[[{"header":{"parameterUnit":"m.s-1","parameterCategory":1,"la1":30.6,"la2":28.766,"lo1":-90.7593,"lo2":-88.6598,"dy":0.0162,"dx":0.0183,"nx":116,"ny":114,"refTime":"2023-03-22T06:00:00:Z","depth":0,"parameterNumber":2,"parameterNumberName":"U-component_of_WINDS"},"data":[0.0,0.0,0.0,0.0,0.0,0.0,0.0,0.0,0.0,0.0,0.0,0.0,0.0,0.0,0.0,0.0,0.0,0.0,0.0,0.0,0.0,0.0,0.0,0.0,0.0,0.0,0.0,0.0,0.0,0.0,0.0,0.0,0.0,0.0,0.0,0.0,0.0,0.0,0.0,0.0,0.0,0.0,0.0,0.0,0.0,0.0,0.0,0.0,0.0,0.0,0.0,0.0,0.0,0.0,0.0,0.0,0.0,0.0,0.0,0.0,0.0,0.0,0.0,0.0,0.0,0.0,0.0,0.0,0.0,0.0,0.0,0.0,0.0,0.0,0.0,0.0,0.0,0.0,0.0,0.0,0.0,0.0,0.0,0.0,0.0,0.0,0.0,0.0,0.0,0.0,0.0,0.0,0.0,0.0,0.0,0.0,0.0,0.0,0.0,0.0,0.0,0.0,0.0,0.0,0.0,0.0,0.0,0.0,0.0,0.0,0.0,0.0,0.0,0.0,0.0,0.0,0.0,0.0,0.0,0.0,0.0,0.0,0.0,0.0,0.0,0.0,0.0,0.0,0.0,0.0,0.0,0.0,0.0,0.0,0.0,0.0,0.0,0.0,0.0,0.0,0.0,0.0,0.0,0.0,0.0,0.0,0.0,0.0,0.0,0.0,0.0,0.0,0.0,0.0,0.0,0.0,0.0,0.0,0.0,0.0,0.0,0.0,0.0,0.0,0.0,0.0,0.0,0.0,0.0,0.0,0.0,0.0,0.0,0.0,0.0,0.0,0.0,0.0,0.0,0.0,0.0,0.0,0.0,0.0,0.0,0.0,0.0,0.0,0.0,0.0,0.0,0.0,0.0,0.0,0.0,0.0,0.0,0.0,0.0,0.0,0.0,0.0,0.0,0.0,0.0,0.0,0.0,0.0,0.0,0.0,0.0,0.0,0.0,0.0,0.0,0.0,0.0,0.0,0.0,0.0,0.0,0.0,0.0,0.0,0.0,0.0,0.0,0.0,0.0,0.0,0.0,0.0,0.0,0.0,0.0,0.0,0.0,0.0,0.0,0.0,0.0,0.0,0.0,0.0,0.0,0.0,0.0,0.0,0.0,0.0,0.0,0.0,0.0,0.0,0.0,0.0,0.0,0.0,0.0,0.0,0.0,0.0,0.0,0.0,0.0,0.0,0.0,0.0,0.0,0.0,0.0,0.0,0.0,0.0,0.0,0.0,0.0,0.0,0.0,0.0,0.0,0.0,0.0,0.0,0.0,0.0,0.0,0.0,0.0,0.0,0.0,0.0,0.0,0.0,0.0,0.0,0.0,0.0,0.0,0.0,0.0,0.0,0.0,0.0,0.0,0.0,0.0,0.0,0.0,0.0,0.0,0.0,0.0,0.0,0.0,0.0,0.0,0.0,0.0,0.0,0.0,0.0,0.0,0.0,0.0,0.0,0.0,0.0,0.0,0.0,0.0,0.0,0.0,0.0,0.0,0.0,0.0,0.0,0.0,0.0,0.0,0.0,0.0,0.0,0.0,0.0,0.0,0.0,0.0,0.0,0.0,0.0,0.0,0.0,0.0,0.0,0.0,0.0,0.0,0.0,0.0,0.0,0.0,0.0,0.0,0.0,0.0,0.0,0.0,0.0,0.0,0.0,0.0,0.0,0.0,0.0,0.0,0.0,0.0,0.0,0.0,0.0,0.0,0.0,0.0,0.0,0.0,0.0,0.0,0.0,0.0,0.0,0.0,0.0,0.0,0.0,0.0,0.0,0.0,0.0,0.0,0.0,0.0,0.0,0.0,0.0,0.0,0.0,0.0,0.0,0.0,0.0,0.0,0.0,0.0,0.0,0.0,0.0,0.0,0.0,0.0,0.0,0.0,0.0,0.0,0.0,0.0,0.0,0.0,0.0,0.0,0.0,0.0,0.0,0.0,0.0,0.0,0.0,0.0,0.0,0.0,0.0,0.0,0.0,0.0,0.0,0.0,0.0,0.0,0.0,0.0,0.0,0.0,0.0,0.0,0.0,0.0,0.0,0.0,0.0,0.0,0.0,0.0,0.0,0.0,0.0,0.0,0.0,0.0,0.0,0.0,0.0,0.0,0.0,0.0,0.0,0.0,0.0,0.0,0.0,0.0,0.0,0.0,0.0,0.0,0.0,0.0,0.0,0.0,0.0,0.0,0.0,0.0,0.0,0.0,0.0,0.0,0.0,0.0,0.0,0.0,0.0,0.0,0.0,0.0,0.0,0.0,0.0,0.0,0.0,0.0,0.0,0.0,0.0,0.0,0.0,0.0,0.0,0.0,0.0,0.0,0.0,0.0,0.0,0.0,0.0,0.0,0.0,0.0,0.0,0.0,0.0,0.0,0.0,0.0,0.0,0.0,0.0,0.0,0.0,0.0,0.0,0.0,0.0,0.0,0.0,0.0,0.0,0.0,0.0,0.0,0.0,0.0,0.0,0.0,0.0,0.0,0.0,0.0,0.0,0.0,0.0,0.0,0.0,0.0,0.0,0.0,0.0,0.0,0.0,0.0,0.0,0.0,0.0,0.0,0.0,0.0,0.0,0.0,0.0,0.0,0.0,0.0,0.0,0.0,0.0,0.0,0.0,0.0,0.0,0.0,0.0,0.0,0.0,0.0,0.0,0.0,0.0,0.0,0.0,0.0,0.0,0.0,0.0,0.0,0.0,0.0,0.0,0.0,0.0,0.0,0.0,0.0,0.0,0.0,0.0,0.0,0.0,0.0,0.0,0.0,0.0,0.0,0.0,0.0,0.0,0.0,0.0,0.0,0.0,0.0,0.0,0.0,0.0,0.0,0.0,0.0,0.0,0.0,0.0,0.0,0.0,0.0,0.0,0.0,0.0,0.0,0.0,0.0,0.0,0.0,0.0,0.0,0.0,0.0,0.0,0.0,0.0,0.0,0.0,0.0,0.0,0.0,0.0,0.0,0.0,0.0,0.0,0.0,0.0,0.0,0.0,0.0,0.0,0.0,0.0,0.0,0.0,0.0,0.0,0.0,0.0,0.0,0.0,0.0,0.0,0.0,0.0,0.0,0.0,0.0,0.0,0.0,0.0,0.0,0.0,0.0,0.0,0.0,0.0,0.0,0.0,0.0,0.0,0.0,0.0,0.0,0.0,0.0,0.0,0.0,0.0,0.0,0.0,0.0,0.0,0.0,0.0,0.0,0.0,0.0,0.0,0.0,0.0,0.0,0.0,0.0,0.0,0.0,0.0,0.0,0.0,0.0,0.0,0.0,0.0,0.0,0.0,0.0,0.0,0.0,0.0,0.0,0.0,0.0,0.0,0.0,0.0,0.0,0.0,0.0,0.0,0.0,0.0,0.0,0.0,0.0,0.0,0.0,0.0,0.0,0.0,0.0,0.0,0.0,0.0,0.0,0.0,0.0,0.0,0.0,0.0,0.0,0.0,0.0,0.0,0.0,0.0,0.0,0.0,0.0,0.0,0.0,0.0,0.0,0.0,0.0,0.0,0.0,0.0,0.0,0.0,0.0,0.0,0.0,0.0,0.0,0.0,0.0,0.0,0.0,0.0,0.0,0.0,0.0,0.0,0.0,0.0,0.0,0.0,0.0,0.0,0.0,0.0,0.0,0.0,0.0,0.0,0.0,0.0,0.0,0.0,0.0,0.0,0.0,0.0,0.0,0.0,0.0,0.0,0.0,0.0,0.0,0.0,0.0,0.0,0.0,0.0,0.0,0.0,0.0,0.0,0.0,0.0,0.0,0.0,0.0,0.0,0.0,0.0,0.0,0.0,0.0,0.0,0.0,0.0,0.0,0.0,0.0,0.0,0.0,0.0,0.0,0.0,0.0,0.0,0.0,0.0,0.0,0.0,0.0,0.0,0.0,0.0,0.0,0.0,0.0,0.0,0.0,0.0,0.0,0.0,0.0,0.0,0.0,0.0,0.0,0.0,0.0,0.0,0.0,0.0,0.0,0.0,0.0,0.0,0.0,0.0,0.0,0.0,0.0,0.0,0.0,0.0,0.0,0.0,0.0,0.0,0.0,0.0,0.0,0.0,0.0,0.0,0.0,0.0,0.0,0.0,0.0,0.0,0.0,0.0,0.0,0.0,0.0,0.0,0.0,0.0,0.0,0.0,0.0,0.0,0.0,0.0,0.0,0.0,0.0,0.0,0.0,0.0,0.0,0.0,0.0,0.0,0.0,0.0,0.0,0.0,0.0,0.0,0.0,0.0,0.0,0.0,0.0,0.0,0.0,0.0,0.0,0.0,0.0,0.0,0.0,0.0,0.0,0.0,0.0,0.0,0.0,0.0,0.0,0.0,0.0,0.0,0.0,0.0,0.0,0.0,0.0,0.0,0.0,0.0,0.0,0.0,0.0,0.0,0.0,0.0,0.0,0.0,0.0,0.0,0.0,0.0,0.0,0.0,0.0,0.0,0.0,0.0,0.0,0.0,0.0,0.0,0.0,0.0,0.0,0.0,0.0,0.0,0.0,0.0,0.0,0.0,0.0,0.0,0.0,0.0,0.0,0.0,0.0,0.0,0.0,0.0,0.0,0.0,0.0,0.0,0.0,0.0,0.0,0.0,0.0,0.0,0.0,0.0,0.0,0.0,0.0,0.0,0.0,0.0,0.0,0.0,0.0,0.0,0.0,0.0,0.0,0.0,0.0,0.0,0.0,0.0,0.0,0.0,0.0,0.0,0.0,0.0,0.0,0.0,0.0,0.0,0.0,0.0,0.0,0.0,0.0,0.0,0.0,0.0,0.0,0.0,0.0,0.0,0.0,0.0,0.0,0.0,0.0,0.0,0.0,0.0,0.0,0.0,0.0,0.0,0.0,0.0,0.0,0.0,0.0,0.0,0.0,0.0,0.0,0.0,0.0,0.0,0.0,0.0,0.0,0.0,0.0,0.0,0.0,0.0,0.0,0.0,0.0,0.0,0.0,0.0,0.0,0.0,0.0,0.0,0.0,0.0,0.0,0.0,0.0,0.0,0.0,0.0,0.0,0.0,0.0,0.0,0.0,0.0,0.0,0.0,0.0,0.0,0.0,0.0,0.0,0.0,0.0,0.0,0.0,0.0,0.0,0.0,0.0,0.0,0.0,0.0,0.0,0.0,0.0,0.0,0.0,0.0,0.0,0.0,0.0,0.0,0.0,0.0,0.0,0.0,0.0,0.0,0.0,0.0,0.0,0.0,0.0,0.0,0.0,0.0,0.0,0.0,0.0,0.0,0.0,0.0,0.0,0.0,0.0,0.0,0.0,0.0,0.0,0.0,0.0,0.0,0.0,0.0,0.0,0.0,0.0,0.0,0.0,0.0,0.0,0.0,0.0,0.0,0.0,0.0,0.0,0.0,0.0,0.0,0.0,0.0,0.0,0.0,0.0,0.0,0.0,0.0,0.0,0.0,0.0,0.0,0.0,0.0,0.0,0.0,0.0,0.0,0.0,0.0,0.0,0.0,0.0,0.0,0.0,0.0,0.0,0.0,0.0,0.0,0.0,0.0,0.0,0.0,0.0,0.0,0.0,0.0,0.0,0.0,0.0,0.0,0.0,0.0,0.0,0.0,0.0,0.0,0.0,0.0,0.0,0.0,0.0,0.0,0.0,0.0,0.0,0.0,0.0,0.0,0.0,0.0,0.0,0.0,0.0,0.0,0.0,0.0,0.0,0.0,0.0,0.0,0.0,0.0,0.0,0.0,0.0,0.0,0.0,0.0,0.0,0.0,0.0,0.0,0.0,0.0,0.0,0.0,0.0,0.0,0.0,0.0,0.0,0.0,0.0,0.0,0.0,0.0,0.0,0.0,0.0,0.0,0.0,0.0,0.0,0.0,0.0,0.0,0.0,0.0,0.0,0.0,0.0,0.0,0.0,0.0,0.0,0.0,0.0,0.0,0.0,0.0,0.0,0.0,0.0,0.0,0.0,0.0,0.0,0.0,0.0,0.0,0.0,0.0,0.0,0.0,0.0,0.0,0.0,0.0,0.0,0.0,0.0,0.0,0.0,0.0,0.0,0.0,0.0,0.0,0.0,0.0,0.0,0.0,0.0,0.0,0.0,0.0,0.0,0.0,0.0,0.0,0.0,0.0,0.0,0.0,0.0,0.0,0.0,0.0,0.0,0.0,-0.4156,-0.527,0.0,0.0,0.0,0.0,0.0,0.0,0.0,0.0,0.0,0.0,0.0,0.0,0.0,0.0,0.0,0.0,0.0,0.0,0.0,0.0,0.0,0.0,0.0,0.0,0.0,0.0,0.0,0.0,0.0,0.0,0.0,0.0,0.0,0.0,0.0,0.0,0.0,0.0,0.0,0.0,0.0,0.0,0.0,0.0,0.0,0.0,0.0,0.0,0.0,0.0,0.0,0.0,0.0,0.0,0.0,0.0,0.0,0.0,0.0,0.0,0.0,0.0,0.0,0.0,0.0,0.0,0.0,0.0,0.0,0.0,0.0,0.0,0.0,0.0,0.0,0.0,0.0,0.0,0.0,0.0,0.0,0.0,0.0,0.0,0.0,0.0,0.0,0.0,0.0,0.0,0.0,0.0,0.0,0.0,0.0,0.0,0.0,0.0,0.0,0.0,0.0,0.0,0.0,0.0,0.0,0.0,0.0,0.0,0.0,0.0,0.0,0.0,0.0,0.0,-0.3666,-0.4336,0.0,0.0,0.0,0.0,0.0,0.0,0.0,0.0,0.0,0.0,0.0,0.0,0.0,0.0,0.0,0.0,0.0,0.0,0.0,0.0,0.0,0.0,0.0,0.0,0.0,0.0,0.0,0.0,0.0,0.0,0.0,0.0,0.0,0.0,0.0,0.0,0.0,0.0,0.0,0.0,0.0,0.0,0.0,0.0,0.0,0.0,0.0,0.0,0.0,0.0,0.0,0.0,0.0,0.0,0.0,0.0,0.0,0.0,0.0,0.0,0.0,0.0,0.0,0.0,0.0,0.0,0.0,0.0,0.0,0.0,0.0,0.0,0.0,0.0,0.0,0.0,0.0,0.0,0.0,0.0,0.0,0.0,0.0,0.0,0.0,0.0,0.0,0.0,0.0,0.0,0.0,0.0,0.0,0.0,0.0,0.0,0.0,0.0,0.0,0.0,0.0,0.0,0.0,0.0,0.0,0.0,0.0,0.0,-0.4022,-0.3888,-0.3755,-0.2999,-0.2644,-0.2688,-0.3444,-0.3444,-0.2956,-0.3757,0.0,0.0,0.0,0.0,0.0,0.0,0.0,0.0,0.0,0.0,0.0,0.0,0.0,0.0,0.0,0.0,0.0,0.0,0.0,0.0,0.0,0.0,-1.9301,-1.9301,-1.9301,-1.8975,0.0,0.0,0.0,0.0,0.0,0.0,0.0,0.0,0.0,0.0,0.0,0.0,-1.4088,-1.4088,-1.4088,-1.4088,-1.4124,0.0,0.0,0.0,0.0,0.0,0.0,0.0,0.0,0.0,0.0,0.0,0.0,0.0,0.0,0.0,0.0,0.0,0.0,0.0,0.0,0.0,0.0,0.0,0.0,0.0,0.0,0.0,0.0,0.0,0.0,0.0,0.0,0.0,0.0,0.0,0.0,0.0,0.0,0.0,0.0,0.0,0.0,0.0,-0.8612,-0.8612,0.0,0.0,0.0,0.0,0.0,0.0,0.0,0.0,0.0,0.0,0.0,0.0,0.0,-0.5675,-0.5494,-0.4741,-0.4117,-0.3667,-0.2867,-0.2241,-0.1792,-0.1659,-0.1614,-0.1614,-0.1749,0.0,-0.2911,-0.3045,0.0,0.0,0.0,0.0,0.0,0.0,0.0,0.0,0.0,0.0,0.0,0.0,0.0,0.0,0.0,0.0,0.0,0.0,0.0,0.0,0.0,-1.8856,-1.8567,-1.8567,-1.8118,-1.7674,-1.731,0.0,0.0,0.0,0.0,0.0,0.0,0.0,0.0,0.0,-1.4243,-1.4208,-1.4088,-1.4088,-1.4088,-1.4088,-1.4201,-1.4363,-1.4566,-1.4824,0.0,0.0,0.0,0.0,0.0,0.0,0.0,0.0,0.0,0.0,0.0,0.0,0.0,0.0,0.0,0.0,0.0,0.0,0.0,0.0,0.0,0.0,0.0,0.0,0.0,0.0,0.0,0.0,0.0,0.0,0.0,0.0,0.0,0.0,0.0,0.0,0.0,0.0,0.0,-0.8424,-0.8116,-0.8564,-0.8248,-0.7981,0.0,0.0,0.0,0.0,0.0,0.0,0.0,0.0,0.0,-0.5102,-0.4966,-0.4652,-0.4115,-0.3715,-0.3403,-0.3224,-0.2778,-0.2332,-0.1839,-0.1839,-0.1705,-0.1391,-0.1391,-0.1659,-0.2062,-0.2062,-0.2643,-0.3446,0.0,0.0,0.0,0.0,-0.2596,-0.2506,0.0,0.0,0.0,0.0,0.0,0.0,0.0,0.0,0.0,0.0,0.0,0.0,-1.8975,-1.8198,-1.7674,-1.7674,-1.7066,-1.6698,-1.6698,0.0,0.0,0.0,0.0,0.0,0.0,0.0,0.0,-1.4088,-1.4088,-1.4088,-1.4088,-1.4088,-1.4088,-1.413,-1.4321,-1.4482,-1.465,-1.4957,-1.5173,0.0,0.0,0.0,0.0,0.0,0.0,0.0,0.0,0.0,0.0,0.0,0.0,0.0,0.0,0.0,0.0,0.0,0.0,0.0,0.0,0.0,0.0,0.0,0.0,0.0,0.0,0.0,0.0,0.0,0.0,0.0,0.0,0.0,0.0,0.0,0.0,0.0,0.0,-0.8508,-0.8065,-0.8296,-0.7848,-0.7445,0.0,0.0,0.0,0.0,0.0,0.0,-0.5458,-0.546,-0.5102,-0.4344,-0.43,-0.3985,-0.3269,-0.3269,-0.3181,-0.3092,-0.3092,-0.2825,-0.2377,-0.2243,-0.1974,-0.1615,-0.148,-0.1391,-0.1391,-0.1391,-0.1838,-0.2419,-0.1704,-0.1838,-0.2419,-0.1659,-0.13,-0.1166,0.0,0.0,0.0,0.0,0.0,0.0,0.0,0.0,0.0,0.0,0.0,-1.8078,-1.8078,-1.731,-1.678,-1.678,-1.6739,-1.6698,-1.6698,-1.6057,-1.5692,0.0,0.0,0.0,0.0,0.0,0.0,-1.4088,-1.4088,-1.4088,-1.4088,-1.4088,-1.4088,-1.413,-1.4321,-1.4398,-1.444,-1.4915,-1.509,-1.5131,0.0,0.0,0.0,0.0,0.0,0.0,0.0,0.0,0.0,0.0,0.0,0.0,0.0,0.0,0.0,0.0,0.0,0.0,0.0,0.0,0.0,0.0,0.0,0.0,0.0,0.0,0.0,0.0,0.0,0.0,0.0,0.0,0.0,0.0,0.0,0.0,0.0,0.0,0.0,-0.7665,-0.7533,0.0,0.0,0.0,0.0,-0.4692,-0.3669,-0.327,-0.3721,-0.3721,-0.39,-0.43,-0.43,-0.4297,-0.4208,-0.421,-0.3987,-0.3587,-0.3587,-0.3317,-0.2868,-0.2422,-0.2199,-0.2109,-0.1615,-0.1391,-0.1391,-0.1391,-0.1436,-0.148,-0.1436,-0.1436,-0.148,-0.1436,-0.1391,-0.1391,0.0,0.0,0.0,0.0,0.0,0.0,0.0,0.0,0.0,-1.9705,-1.8686,-1.7997,-1.7997,-1.6739,-1.5842,-1.5842,-1.5352,-1.5026,-1.5026,-1.4783,-1.4783,0.0,0.0,0.0,0.0,0.0,-1.4088,-1.4088,-1.4088,-1.4088,-1.4088,-1.4088,-1.4166,-1.4279,-1.4482,-1.4699,-1.4873,-1.5048,-1.5173,-1.5298,-1.5389,-1.568,0.0,0.0,0.0,0.0,0.0,0.0,0.0,0.0,0.0,0.0,0.0,0.0,0.0,0.0,0.0,0.0,0.0,0.0,0.0,0.0,0.0,0.0,0.0,0.0,0.0,0.0,0.0,0.0,0.0,0.0,0.0,0.0,0.0,0.0,0.0,0.0,0.0,-0.8237,-0.7614,0.0,-0.603,-0.5455,-0.4921,-0.4429,-0.403,-0.3851,-0.4032,-0.4032,-0.4121,-0.43,-0.43,-0.43,-0.43,-0.43,-0.421,-0.4032,-0.4032,-0.3808,-0.3317,-0.2868,-0.2466,-0.2199,-0.2019,-0.193,-0.193,-0.2241,-0.1973,-0.1391,-0.1391,-0.1391,-0.1391,-0.1391,-0.1391,-0.1391,0.0,0.0,0.0,0.0,0.0,0.0,0.0,0.0,0.0,-1.9533,-1.8471,-1.7605,-1.7155,-1.5842,-1.4943,-1.4943,-1.4419,-1.4088,-1.4088,-1.4208,-1.4412,0.0,0.0,0.0,0.0,-1.4124,-1.4088,-1.4088,-1.4088,-1.4124,-1.4201,-1.4201,-1.4321,-1.4524,-1.4741,-1.4915,-1.509,-1.5173,-1.5257,-1.5389,-1.5389,-1.5756,-1.6294,0.0,0.0,0.0,0.0,0.0,0.0,0.0,0.0,0.0,0.0,0.0,0.0,0.0,0.0,0.0,0.0,0.0,0.0,0.0,0.0,0.0,0.0,0.0,0.0,0.0,0.0,0.0,0.0,0.0,0.0,0.0,0.0,0.0,0.0,0.0,-0.8803,-0.8233,-0.7353,-0.6425,-0.5542,-0.5322,-0.5057,-0.4565,-0.4478,-0.4433,-0.4433,-0.4344,-0.43,-0.43,-0.43,-0.43,-0.43,-0.43,-0.43,-0.43,-0.43,-0.4121,-0.381,-0.3361,-0.2959,-0.2647,-0.2512,-0.2422,-0.2466,-0.2778,-0.251,-0.1928,-0.1928,-0.1928,-0.1928,-0.1928,-0.1928,-0.1928,0.0,0.0,0.0,0.0,0.0,0.0,0.0,0.0,-2.009,-1.8856,-1.7895,-1.687,-1.559,-1.4657,-1.413,-1.4088,-1.4088,-1.4088,-1.413,-1.4447,-1.4608,0.0,0.0,0.0,-1.4398,-1.4201,-1.4088,-1.413,-1.413,-1.4201,-1.4398,-1.4398,-1.4524,-1.4734,-1.4999,-1.509,-1.5131,-1.534,-1.5431,-1.5431,-1.5431,-1.5955,-1.6689,0.0,0.0,0.0,0.0,0.0,0.0,0.0,0.0,0.0,0.0,0.0,0.0,0.0,0.0,0.0,0.0,0.0,0.0,0.0,0.0,0.0,0.0,0.0,0.0,0.0,0.0,0.0,0.0,0.0,0.0,0.0,0.0,0.0,-1.1117,-0.9975,-0.8798,-0.7661,-0.6697,-0.5813,-0.5099,-0.501,-0.501,-0.501,-0.4837,-0.4705,-0.4705,-0.448,-0.4344,-0.4344,-0.4344,-0.43,-0.43,-0.43,-0.43,-0.43,-0.43,-0.43,-0.43,-0.381,-0.3587,-0.3587,-0.3136,-0.2913,-0.2913,-0.2957,-0.2957,-0.2957,-0.2911,-0.2911,-0.2911,-0.2911,-0.2911,-0.2911,0.0,0.0,0.0,0.0,0.0,0.0,0.0,-2.1673,-2.1155,-2.036,-1.9252,-1.7962,-1.6492,-1.5553,-1.4783,-1.4166,-1.4088,-1.4166,-1.4321,-1.444,0.0,0.0,0.0,0.0,-1.4208,-1.4124,-1.4166,-1.4321,-1.4321,-1.4398,-1.4608,-1.4608,-1.4741,-1.4999,-1.509,-1.5173,-1.5347,-1.5756,-1.5922,-1.5922,-1.5922,-1.6252,-1.673,0.0,0.0,0.0,0.0,0.0,0.0,0.0,0.0,0.0,0.0,0.0,0.0,0.0,0.0,0.0,0.0,0.0,0.0,0.0,0.0,0.0,0.0,0.0,0.0,0.0,0.0,0.0,0.0,0.0,0.0,0.0,0.0,-1.2118,-1.1564,-1.0467,-0.9331,-0.8324,-0.7265,-0.6251,-0.5369,-0.5099,-0.501,-0.501,-0.4966,-0.4924,-0.4924,-0.4832,-0.4788,-0.4788,-0.4788,-0.4746,-0.4569,-0.4569,-0.448,-0.43,-0.43,-0.43,-0.43,-0.381,-0.3587,-0.3587,-0.3452,-0.3406,-0.3452,-0.3764,-0.3896,-0.3851,-0.3179,-0.2911,-0.2911,-0.2911,-0.2911,-0.2911,0.0,0.0,0.0,0.0,0.0,0.0,0.0,-2.2277,-2.1714,-2.072,-1.9813,-1.8656,-1.7111,-1.6001,-1.5193,-1.4699,-1.4412,-1.4279,-1.4398,-1.4398,0.0,0.0,0.0,-1.4237,-1.4243,-1.4243,-1.4321,-1.4524,-1.4524,-1.465,-1.4866,-1.4866,-1.4999,-1.5215,-1.5215,-1.5382,-1.5722,-1.5963,-1.6211,-1.6376,-1.6582,-1.6779,-1.7025,-1.731,-1.7635,-1.7991,-1.8121,-1.8161,-1.8241,-1.8692,0.0,0.0,0.0,0.0,0.0,0.0,0.0,0.0,0.0,0.0,0.0,0.0,0.0,0.0,0.0,0.0,0.0,0.0,0.0,0.0,0.0,0.0,0.0,0.0,-1.2747,-1.2412,-1.2032,-1.0939,-0.9845,-0.889,-0.7793,-0.6738,-0.5772,-0.546,-0.528,-0.528,-0.5235,-0.5191,-0.5191,-0.5055,-0.501,-0.501,-0.501,-0.4921,-0.4837,-0.4837,-0.4746,-0.461,-0.461,-0.461,-0.4565,-0.4212,-0.4123,-0.4166,-0.3989,-0.3944,-0.4078,-0.4255,-0.4344,-0.4389,0.0,0.0,0.0,0.0,-0.3673,-0.3673,0.0,0.0,0.0,0.0,0.0,0.0,0.0,-2.2618,-2.1973,-2.0622,-2.0093,-1.9288,-1.771,-1.6521,-1.5722,-1.5477,-1.4936,-1.4559,-1.4482,0.0,0.0,-1.4482,-1.4286,-1.4243,-1.444,-1.444,-1.4524,-1.4741,-1.4741,-1.4866,-1.5131,-1.5131,-1.5215,-1.5389,-1.5472,-1.5722,-1.6095,-1.6211,-1.6451,-1.682,-1.727,-1.7432,-1.7392,-1.7432,-1.7676,-1.804,-1.8322,-1.8402,-1.8482,-1.8843,0.0,0.0,0.0,0.0,0.0,0.0,0.0,0.0,0.0,0.0,0.0,0.0,0.0,0.0,0.0,0.0,0.0,0.0,0.0,0.0,0.0,0.0,0.0,0.0,-1.3052,-1.2705,-1.2534,-1.1569,-1.0481,-0.9318,-0.8229,-0.718,-0.6216,-0.5908,-0.5777,-0.5777,-0.5594,-0.5505,-0.5505,-0.5235,0.0,0.0,0.0,-0.5055,-0.5055,-0.5055,-0.501,-0.501,-0.501,-0.5055,-0.5055,-0.4879,-0.4924,-0.5053,-0.4654,-0.4612,-0.4792,-0.4567,-0.4612,-0.4792,-0.4478,-0.4389,-0.4433,-0.4703,-0.4792,-0.4837,0.0,0.0,0.0,0.0,0.0,0.0,0.0,-2.3013,-2.2684,-2.1916,-2.176,-2.0977,-1.9138,-1.87,-1.7829,-1.6023,-1.5752,-1.547,0.0,0.0,-1.4957,-1.4957,-1.4706,-1.4615,-1.465,-1.465,-1.4783,-1.4999,-1.4999,-1.5131,-1.5347,-1.5347,-1.5347,-1.5431,-1.5797,-1.6012,-1.6128,-1.6861,-1.7188,-1.731,-1.7716,-1.7676,-1.7432,-1.7757,-1.791,-1.804,-1.8322,-1.8402,-1.8482,-1.8843,-1.9002,-1.8913,-1.8407,0.0,0.0,0.0,0.0,0.0,0.0,0.0,0.0,0.0,0.0,0.0,0.0,0.0,0.0,0.0,0.0,0.0,0.0,0.0,0.0,-1.344,-1.3307,-1.3264,-1.3222,-1.3003,-1.196,-0.9492,-0.836,-0.7353,-0.6432,-0.6299,-0.6254,-0.6254,-0.608,-0.6038,-0.621,-0.5816,-0.5686,-0.5858,-0.5686,-0.5508,-0.5327,-0.5327,-0.5235,-0.501,-0.5235,0.0,-0.5327,-0.5455,-0.5542,-0.5542,-0.5453,-0.5455,-0.55,-0.5453,-0.5455,-0.5455,-0.5055,-0.5013,-0.5193,-0.5238,-0.5369,-0.55,0.0,0.0,0.0,0.0,0.0,0.0,0.0,-2.3724,-2.324,-2.2732,-2.2465,-2.1901,-2.0684,-1.9976,-1.9057,-1.7771,-1.6761,0.0,0.0,-1.5333,-1.5041,-1.4915,-1.4783,-1.4776,-1.4915,-1.4915,-1.4999,-1.5257,-1.5257,-1.5298,-1.5389,-1.5389,-1.5514,-1.5763,-1.6004,-1.6335,-1.6787,-1.7237,-1.7595,-1.7919,-1.8121,-1.8121,-1.8049,-1.8161,-1.8201,-1.8241,-1.8603,-1.8723,-1.8754,-1.9033,-1.9152,-1.9103,-1.8776,-1.8935,-1.9183,0.0,0.0,0.0,0.0,0.0,0.0,0.0,0.0,0.0,0.0,0.0,0.0,0.0,0.0,-1.4046,0.0,0.0,-1.3822,-1.361,-1.3568,-1.3519,-1.3398,-1.3398,-1.2656,-1.0669,-0.9923,-0.8956,-0.7434,-0.7173,-0.6912,-0.6428,-0.6299,-0.6302,-0.6384,-0.6169,-0.6124,-0.6257,-0.6124,-0.5991,-0.5902,-0.5902,-0.5811,-0.5719,-0.5991,-0.6038,-0.5902,-0.6163,-0.6251,-0.6257,-0.6121,-0.6118,-0.6248,-0.6248,-0.6163,-0.603,-0.603,-0.5855,-0.5547,-0.5683,-0.5816,-0.5902,0.0,0.0,0.0,0.0,0.0,0.0,0.0,0.0,-2.3864,-2.3309,-2.2951,-2.2578,-2.2135,-2.1155,-2.0276,-1.9556,0.0,0.0,0.0,-1.5899,-1.5325,-1.5103,-1.4943,-1.4957,-1.5131,-1.5173,-1.5257,-1.5389,-1.5472,-1.5555,-1.5555,-1.5631,-1.5839,-1.6211,-1.6294,-1.6738,-1.74,-1.7473,-1.7878,-1.8402,-1.8402,-1.8523,-1.87,-1.8563,-1.8482,-1.8523,-1.8882,-1.9002,-1.9042,-1.9231,-1.9301,-1.9301,-1.9341,-1.9341,-1.9429,-1.9676,-1.9764,0.0,0.0,0.0,0.0,0.0,0.0,0.0,0.0,0.0,-1.6478,-1.4531,-1.4124,-1.4088,-1.4088,-1.4088,-1.4046,-1.3822,-1.3779,-1.3737,-1.3568,-1.3525,-1.3179,-1.2186,-1.1697,-1.0697,-0.8829,-0.8313,-0.7746,-0.7,-0.6738,-0.665,-0.6697,-0.6605,-0.6561,-0.6605,-0.6561,-0.6517,-0.6517,-0.6517,-0.6517,-0.6517,-0.6789,-0.6833,-0.6605,-0.6871,-0.7007,-0.7013,-0.6789,-0.6827,-0.7,-0.7,-0.6871,-0.6741,-0.7095,-0.6827,-0.6251,-0.6343,-0.639,-0.6482,0.0,0.0,0.0,0.0,0.0,0.0,0.0,0.0,0.0,-2.3831,-2.3661,-2.3491,-2.311,-2.2936,-2.2132,0.0,0.0,0.0,-1.7836,-1.7025,-1.6494,-1.6494,-1.5741,-1.5347,-1.5389,-1.5389,-1.5389,-1.5389,-1.5797,-1.6004,-1.6046,-1.6409,-1.6574,-1.6656,-1.7066,-1.731,-1.7432,-1.7797,-1.8112,-1.8402,-1.8402,-1.8523,-1.874,-1.8882,-1.8812,-1.8692,-1.8922,-1.9002,-1.9042,-1.9231,-1.9301,-1.9341,-1.9518,-1.9557,-1.9636,-2.0069,0.0,-2.0264,-2.045,-2.0489,-2.0245,-1.9155,-1.9569,-1.949,0.0,0.0,-1.6511,-1.472,-1.4201,-1.4088,-1.4088,-1.4088,-1.4088,-1.4046,-1.4046,-1.4039,-1.3997,-1.3997,-1.387,-1.3525,-1.2571,-1.1483,-1.0438,-0.9531,-0.9013,-0.8886,-0.7969,-0.7492,-0.772,-0.7275,-0.7136,-0.7356,-0.7139,-0.7007,-0.7007,-0.7007,-0.7007,-0.7007,-0.7312,-0.7401,-0.7401,-0.7672,-0.7764,-0.7764,-0.7764,-0.7764,-0.7764,-0.7764,-0.7764,-0.772,-0.7808,-0.7981,-0.8101,-0.7533,-0.7492,-0.7764,0.0,0.0,0.0,0.0,0.0,0.0,0.0,0.0,0.0,0.0,-2.4787,-2.4469,-2.3632,-2.3348,-2.2768,0.0,0.0,0.0,-1.8935,-1.8109,-1.7585,-1.7472,-1.7,-1.6681,-1.6558,-1.6278,-1.6162,-1.6162,-1.6368,-1.6451,-1.6451,-1.6615,-1.6861,-1.7106,-1.731,-1.7514,-1.7757,-1.8121,-1.8362,-1.8563,-1.8683,-1.8873,-1.9082,-1.928,-1.9289,-1.925,-1.9329,-1.9439,0.0,0.0,-1.9666,-1.9666,-1.9745,-1.9784,-1.9872,-2.0333,-2.045,0.0,-2.0566,-2.0605,-2.045,0.0,-1.9942,-1.9814,-1.7948,-1.7859,-1.7617,-1.5703,-1.5262,-1.5068,-1.4531,-1.4454,-1.4454,0.0,-1.4454,-1.4412,-1.4279,-1.437,-1.4363,-1.4153,-1.3802,-1.2984,-1.1569,-1.1176,-1.074,-1.0048,-0.9231,-0.8711,-0.8675,-0.7977,-0.7628,-0.7716,-0.7628,-0.7584,-0.7584,-0.7584,-0.7672,-0.7929,-0.8201,-0.8368,-0.8492,-0.8942,-0.9122,-0.9122,-0.9122,-0.9034,-0.8903,-0.9078,-0.9122,-0.9074,-0.9122,-0.9379,-0.9589,-0.8496,-0.8321,-0.8675,0.0,0.0,0.0,0.0,0.0,0.0,0.0,0.0,0.0,0.0,0.0,0.0,0.0,0.0,0.0,0.0,0.0,0.0,0.0,-1.9304,-1.8661,-1.851,-1.8158,-1.7876,-1.7747,-1.7399,-1.7196,-1.7196,-1.7359,-1.7408,-1.7408,-1.7529,-1.7772,-1.8103,-1.8103,-1.8296,-1.8687,-1.8895,-1.9173,-1.946,-1.9618,-1.9835,-2.006,-2.0196,-2.0313,-2.0391,-2.0128,-2.0128,0.0,0.0,-2.043,-2.0235,-2.0323,-2.0245,-2.0177,-2.0566,-2.0693,-2.0693,-2.0693,0.0,0.0,-2.0177,-2.0216,-2.002,-1.9006,-1.8847,-1.843,-1.6805,-1.6404,-1.6083,-1.522,-1.5061,-1.4977,-1.4734,-1.4692,-1.465,-1.4482,-1.4608,-1.465,-1.4482,-1.4608,-1.4181,-1.2863,-1.2681,-1.2242,-1.1423,-1.0697,-1.0183,-0.9966,-0.9362,-0.9021,-0.9021,-0.8855,-0.8767,-0.8767,-0.8552,-0.864,-0.8894,-0.9122,-0.9297,-0.9458,-0.9903,-1.012,-1.0164,-1.0419,-1.0289,-0.9903,-1.0376,-1.0419,-1.0246,-1.0501,-1.0923,-1.1219,-1.0221,-0.9705,-0.9628,0.0,0.0,0.0,0.0,0.0,0.0,0.0,0.0,0.0,0.0,0.0,0.0,0.0,0.0,0.0,0.0,0.0,0.0,0.0,-2.0537,-1.9864,-1.9855,-1.9049,-1.8563,-1.8554,-1.8563,-1.8554,-1.8554,-1.9018,-1.9216,-1.9225,-1.962,-1.9825,-1.9816,-1.9816,-2.0041,-2.042,-2.042,-2.0768,-2.1316,-2.1316,-2.1545,-2.1914,-2.1914,-2.2178,-2.2366,-2.1392,0.0,0.0,0.0,-2.1697,-2.1096,-2.1385,-2.1049,0.0,-2.0819,-2.0906,0.0,0.0,0.0,-2.0605,-2.0566,-2.0459,-2.0108,-1.942,-1.8926,-1.8439,-1.7779,-1.7455,-1.6968,-1.6116,-1.5959,-1.567,-1.4859,-1.4692,-1.4692,-1.4692,-1.4692,-1.4692,-1.4692,-1.4692,-1.4692,0.0,-1.388,-1.336,-1.3317,-1.2456,-1.1901,-1.1901,-1.1901,-1.1901,-1.1901,-1.123,-1.0895,-1.0895,-1.025,-0.9951,-0.9951,-0.9951,-0.9951,-0.9994,-1.0207,-1.0381,-1.0636,-1.152,-1.144,-1.0631,-1.1563,-1.1569,-1.1063,-1.1889,-1.2644,-1.3195,-1.3153,-1.206,-1.0636,0.0,0.0,0.0,0.0,0.0,0.0,0.0,0.0,0.0,0.0,0.0,0.0,0.0,0.0,0.0,0.0,0.0,0.0,0.0,-2.2509,-2.1659,-2.1165,-2.0489,-2.006,-1.9943,-1.962,-1.9453,-1.9453,-1.962,-1.9698,-1.9698,-1.9855,-1.9904,-1.9894,-2.0197,-2.0382,-2.0537,-2.0923,-2.1201,-2.1431,-2.1697,-2.1876,-2.2027,-2.2291,-2.2478,-2.2627,0.0,0.0,0.0,0.0,0.0,0.0,-2.2601,0.0,0.0,-2.2182,0.0,0.0,0.0,0.0,-2.0925,-2.0683,-2.0654,-2.0586,-2.0255,-2.005,-1.9726,-1.8926,-1.8687,-1.8359,-1.7504,-1.7342,-1.7058,-1.6165,-1.6041,-1.576,-1.5075,-1.5082,-1.5124,-1.4999,-1.5082,0.0,0.0,0.0,0.0,-1.4265,-1.3571,-1.3184,-1.3334,-1.2735,-1.2559,-1.2844,-1.2638,-1.2511,-1.2511,-1.2298,-1.2341,-1.2644,-1.296,-1.3171,-1.3328,-1.3412,-1.3532,-1.373,-1.4065,-1.4023,-1.373,-1.4065,-1.4156,-1.412,-1.4232,-1.4608,-1.5079,-1.4955,-1.458,-1.4079,0.0,0.0,0.0,0.0,0.0,0.0,0.0,0.0,0.0,0.0,0.0,0.0,0.0,0.0,0.0,0.0,0.0,0.0,0.0,0.0,-2.3807,-2.3198,-2.2717,-2.2307,-2.2027,-2.1731,-2.1438,-2.1096,-2.1096,-2.1096,-2.1029,-2.1029,-2.1029,-2.1019,-2.1288,-2.1469,-2.1659,-2.2086,-2.2397,-2.2537,-2.2872,-2.3058,-2.3121,-2.3379,-2.3526,0.0,0.0,0.0,0.0,0.0,0.0,0.0,0.0,0.0,0.0,0.0,0.0,0.0,0.0,-2.1244,-2.1128,-2.0886,-2.0896,-2.0974,-2.0848,-2.0799,-2.0654,-2.0089,-1.9971,-1.9696,-1.8838,-1.8638,-1.8278,-1.7423,-1.6935,-1.6453,-1.5775,-1.5499,-1.5347,-1.5215,-1.5305,-1.5472,0.0,0.0,0.0,-1.4999,-1.4566,-1.4426,-1.4747,-1.4183,-1.4043,-1.449,-1.4274,-1.4149,-1.4149,-1.3939,-1.3988,-1.4365,-1.4754,-1.5011,-1.5253,-1.5253,-1.5369,-1.5569,-1.5906,-1.5865,-1.5569,-1.5906,-1.5996,-1.5962,-1.6111,-1.6406,-1.6707,-1.6577,-1.6781,-1.6944,0.0,0.0,0.0,0.0,0.0,0.0,0.0,0.0,0.0,0.0,0.0,0.0,0.0,0.0,0.0,0.0,0.0,0.0,0.0,0.0,0.0,-2.5785,-2.5413,-2.5039,-2.4661,-2.4661,-2.4266,-2.3434,-2.3434,-2.3324,-2.3139,-2.3139,-2.3139,-2.3139,-2.3176,-2.3398,-2.3728,-2.3959,-2.425,-2.4634,-2.479,-2.4992,-2.5147,-2.5111,0.0,0.0,0.0,0.0,0.0,0.0,0.0,0.0,0.0,0.0,0.0,0.0,0.0,-2.154,-2.1502,-2.1359,-2.1205,-2.1205,-2.1205,-2.1205,-2.1205,-2.1205,-2.1205,-2.1205,-2.1205,-2.0964,0.0,0.0,-1.9392,-1.8541,-1.7536,-1.6854,-1.678,-1.6023,-1.5506,0.0,0.0,0.0,0.0,0.0,0.0,-1.5506,-1.5472,-1.5673,-1.6128,-1.617,-1.6335,-1.6738,-1.6165,-1.582,-1.582,-1.5199,-1.4983,-1.5177,-1.5362,-1.561,-1.5872,-1.5872,-1.5996,-1.6209,-1.7139,-1.7009,-1.625,-1.718,-1.7139,-1.6642,-1.7496,-1.7948,-1.8118,-1.8118,-1.8607,-1.9045,0.0,0.0,0.0,0.0,0.0,0.0,0.0,0.0,0.0,0.0,0.0,0.0,0.0,0.0,0.0,0.0,0.0,0.0,0.0,0.0,0.0,0.0,0.0,0.0,0.0,0.0,0.0,-2.5085,-2.5085,-2.505,-2.5015,-2.5015,-2.5015,-2.5015,-2.5308,-2.5507,-2.5611,-2.5983,-2.6202,-2.6249,0.0,-2.5791,-2.5779,0.0,0.0,0.0,0.0,0.0,0.0,0.0,0.0,0.0,0.0,0.0,-2.4312,0.0,0.0,-2.2258,-2.1655,-2.1464,-2.1397,-2.1244,-2.132,-2.1397,-2.1244,-2.1205,-2.1205,-2.1205,-2.1205,-2.1128,0.0,0.0,0.0,-1.962,-1.9256,0.0,-1.7602,-1.7253,0.0,-1.6451,0.0,-1.6409,-1.6533,-1.6533,0.0,0.0,-1.6368,-1.6574,-1.7025,-1.7066,-1.727,-1.7676,-1.77,-1.7691,-1.7691,-1.7691,-1.7691,-1.7772,-1.7804,-1.7965,-1.8158,-1.8158,-1.8367,-1.8687,-1.8944,-1.8975,-1.8917,-1.9164,-1.9173,-1.9045,-1.9253,-1.9371,-1.942,-1.942,-1.9578,-1.9657,0.0,0.0,0.0,0.0,0.0,0.0,0.0,0.0,0.0,0.0,0.0,0.0,0.0,0.0,0.0,0.0,0.0,0.0,0.0,0.0,0.0,0.0,0.0,0.0,0.0,0.0,0.0,0.0,0.0,0.0,-2.6298,-2.6298,-2.6298,-2.6332,-2.6493,-2.6574,-2.6574,-2.6971,0.0,0.0,0.0,0.0,0.0,0.0,0.0,0.0,0.0,0.0,0.0,0.0,0.0,-2.591,-2.598,-2.5571,-2.4945,-2.4612,0.0,-2.2718,-2.2289,-2.1921,-2.1617,-2.1512,-2.154,-2.1617,-2.1512,-2.1464,-2.1464,-2.1464,-2.1464,0.0,-2.1464,-2.1397,0.0,0.0,0.0,0.0,-1.8798,-1.8359,-1.7876,0.0,-1.7131,0.0,-1.7025,-1.7025,-1.7066,0.0,-1.6935,-1.6894,-1.7351,-1.7392,-1.7595,-1.8,-1.8282,-1.8442,-1.8531,-1.8732,-1.8812,-1.8812,-1.8922,-1.9082,-1.924,-1.924,-1.9439,-1.9715,-1.9715,-1.9794,-1.9902,-1.9902,-1.9902,-1.9902,-1.9902,-1.9902,-1.9902,-1.9902,-1.9902,-1.9902,0.0,0.0,0.0,0.0,0.0,0.0,0.0,0.0,0.0,0.0,0.0,0.0,0.0,0.0,0.0,0.0,0.0,0.0,0.0,0.0,0.0,0.0,0.0,0.0,0.0,0.0,0.0,0.0,0.0,0.0,0.0,0.0,0.0,0.0,0.0,0.0,0.0,0.0,0.0,0.0,0.0,0.0,0.0,0.0,0.0,0.0,0.0,0.0,0.0,0.0,-2.6119,-2.5945,-2.6097,-2.5641,-2.5052,-2.5194,-2.4263,-2.3139,-2.3139,-2.2654,-2.209,-2.1987,-2.1949,-2.1911,-2.1807,-2.1807,-2.1807,-2.1807,0.0,-2.1807,-2.1807,-2.1655,-2.154,-2.154,0.0,-2.0138,-2.0021,-1.9444,-1.8731,-1.8014,-1.7974,-1.7893,-1.7595,-1.7554,-1.7716,-1.808,-1.7383,-1.7147,-1.7514,-1.7563,-1.7757,-1.8121,-1.8362,-1.8563,-1.8772,-1.8962,-1.9033,-1.9033,-1.9231,-1.9429,-1.9606,-1.9645,-1.9754,-1.9942,-1.9942,-1.9981,-1.9981,-1.9981,-1.9981,-1.9981,-1.9981,-1.9981,-1.9981,-1.9981,-1.9981,-1.9981,0.0,0.0,0.0,0.0,0.0,0.0,0.0,0.0,0.0,0.0,-3.31,-3.31,0.0,0.0,0.0,0.0,0.0,0.0,0.0,0.0,0.0,0.0,0.0,0.0,0.0,0.0,0.0,0.0,0.0,0.0,0.0,0.0,0.0,0.0,0.0,0.0,0.0,0.0,0.0,0.0,0.0,0.0,0.0,0.0,0.0,0.0,0.0,0.0,0.0,0.0,-2.6543,-2.591,-2.5945,-2.55,-2.5016,-2.504,-2.4492,-2.3902,-2.3902,-2.3793,-2.3537,-2.2953,-2.2777,-2.2628,-2.1959,-2.1807,0.0,0.0,-2.1807,-2.1807,-2.1807,-2.1769,-2.1769,-2.1769,0.0,0.0,0.0,0.0,-2.0518,0.0,-1.9323,-1.9244,-1.8531,-1.8451,0.0,0.0,-1.8451,-1.8331,-1.8241,-1.8362,-1.8571,-1.8843,-1.8873,-1.8993,-1.9183,-1.9231,-1.9262,-1.9262,-1.9429,-1.9557,-1.9606,-1.9754,-1.999,-2.0225,-2.0225,-2.0333,-2.0489,-2.0489,-2.0489,-2.0489,-2.0489,-2.0489,-2.0489,-2.0489,-2.0489,-2.0489,0.0,0.0,0.0,0.0,0.0,0.0,0.0,-3.3833,-3.3605,-3.3605,-3.3536,-3.3431,-3.3326,-3.329,-3.329,0.0,0.0,0.0,0.0,0.0,0.0,0.0,0.0,0.0,0.0,0.0,0.0,0.0,0.0,0.0,0.0,0.0,0.0,0.0,0.0,0.0,0.0,0.0,0.0,0.0,0.0,0.0,0.0,0.0,0.0,0.0,0.0,0.0,0.0,0.0,-2.6994,-2.6508,-2.6154,-2.5875,-2.5641,-2.5734,-2.53,-2.4707,-2.4707,-2.4409,-2.4011,-2.3658,-2.3559,-2.3486,-2.3069,0.0,0.0,0.0,-2.2681,-2.244,-2.244,-2.2063,0.0,-2.1807,0.0,0.0,0.0,0.0,0.0,0.0,0.0,-2.0255,0.0,-1.9183,-1.8882,-1.9301,-1.9042,-1.8772,-1.8571,-1.866,-1.8772,-1.9002,-1.9002,-1.9112,-1.9301,-1.9301,-1.9301,-1.9301,-1.939,-1.9548,-1.9754,-1.9863,-2.0098,-2.0459,-2.0459,-2.0489,-2.0605,-2.0605,-2.0605,-2.0605,-2.0605,-2.0605,-2.0605,-2.0605,-2.0605,-2.0605,0.0,0.0,0.0,0.0,0.0,0.0,0.0,-3.4658,-3.4249,-3.4142,-3.3971,-3.3764,-3.3466,-3.3361,-3.3326,0.0,0.0,0.0,0.0,0.0,0.0,0.0,0.0,0.0,0.0,0.0,0.0,0.0,0.0,0.0,0.0,0.0,0.0,0.0,0.0,0.0,0.0,0.0,0.0,0.0,0.0,0.0,0.0,0.0,0.0,0.0,0.0,0.0,0.0,0.0,-2.765,-2.7162,-2.6658,-2.6361,-2.6305,-2.6465,-2.606,-2.5558,-2.5558,-2.5111,-2.4552,-2.4409,-2.4373,-2.4301,-2.4145,-2.4108,0.0,0.0,-2.3632,-2.3176,-2.3038,0.0,-2.1997,0.0,-2.1807,-2.1807,0.0,0.0,0.0,0.0,0.0,0.0,-2.1219,-2.0099,0.0,-2.0255,-1.9883,-1.939,-1.8851,-1.8812,-1.8891,-1.9073,-1.9073,-1.9152,-1.9301,-1.9301,-1.9301,-1.9301,-1.9381,-1.9578,-1.9902,-2.002,-2.0255,-2.0605,-2.0605,-2.0605,-2.0605,-2.0605,-2.0605,-2.0605,-2.0605,-2.0605,-2.0605,-2.0605,-2.0605,-2.0605,0.0,0.0,0.0,0.0,0.0,0.0,0.0,-3.5648,-3.5422,-3.4876,-3.4791,-3.4539,-3.3917,-3.3536,-3.3361,0.0,0.0,0.0,0.0,0.0,0.0,0.0,0.0,0.0,0.0,0.0,0.0,0.0,0.0,0.0,0.0,0.0,0.0,0.0,0.0,0.0,0.0,0.0,0.0,0.0,0.0,0.0,0.0,0.0,0.0,0.0,0.0,0.0,0.0,0.0,0.0,-2.7451,-2.7384,-2.6973,-2.6499,-2.6499,0.0,0.0,-2.6383,-2.6349,-2.6094,-2.5382,-2.5194,-2.5004,-2.4264,0.0,0.0,-2.4108,-2.4047,-2.3804,-2.3102,-2.2927,-2.2665,-2.1921,0.0,-2.1807,0.0,0.0,0.0,0.0,0.0,0.0,-2.1756,-2.1603,-2.1565,-2.1603,-2.1565,-2.0875,-1.9341,-1.9222,-1.9262,-1.9262,-1.9262,-1.9262,-1.9301,-1.9301,-1.9301,-1.9301,-1.9657,-1.9863,-1.9902,-2.0333,-2.0566,-2.0605,-2.0605,-2.0605,-2.0605,-2.0605,-2.0605,-2.0605,-2.0605,-2.0605,-2.0605,-2.0605,-2.0605,-2.0605,0.0,0.0,0.0,0.0,0.0,0.0,-3.6783,-3.6415,-3.6072,-3.585,-3.5708,-3.5516,-3.524,-3.4963,-3.4514,-3.3848,0.0,0.0,0.0,0.0,0.0,0.0,0.0,0.0,0.0,0.0,0.0,-3.3093,-3.2701,0.0,0.0,0.0,0.0,0.0,0.0,0.0,0.0,0.0,0.0,0.0,0.0,0.0,0.0,0.0,0.0,0.0,0.0,0.0,0.0,0.0,0.0,0.0,-2.8279,-2.7769,0.0,0.0,-2.6499,-2.6499,-2.6499,-2.6499,-2.6418,-2.6094,-2.6025,-2.5955,-2.5616,0.0,-2.5534,-2.5534,-2.5146,-2.4564,-2.3804,-2.3313,-2.274,-2.1911,0.0,0.0,-2.1807,0.0,0.0,0.0,-2.244,0.0,0.0,0.0,-2.1794,-2.1794,-2.1794,-2.1527,-2.0837,-2.0304,-1.9805,-1.9301,-1.9301,-1.9301,-1.9301,-1.9301,-1.9301,-1.9301,-2.0079,-2.0508,-2.0653,-2.1441,-2.1897,-2.2021,-2.2021,-2.2021,-2.2021,-2.2021,-2.2021,-2.2021,-2.2021,-2.2021,-2.2021,-2.2021,-2.2021,-2.2021,0.0,0.0,0.0,0.0,0.0,-3.7698,-3.7698,-3.7296,-3.692,-3.6738,-3.6554,-3.643,-3.6198,-3.6057,-3.5629,-3.4706,-3.4385,0.0,0.0,0.0,0.0,0.0,0.0,0.0,0.0,0.0,-3.3779,-3.3779,-3.3296,-3.3079,0.0,0.0,0.0,0.0,0.0,0.0,0.0,0.0,0.0,0.0,0.0,0.0,0.0,0.0,0.0,0.0,0.0,0.0,0.0,0.0,0.0,0.0,0.0,0.0,0.0,0.0,-2.6692,-2.6555,-2.6499,-2.6499,-2.6499,-2.6499,-2.6499,-2.6499,0.0,0.0,-2.6499,-2.6499,-2.606,-2.5406,-2.46,-2.3852,-2.3065,-2.2289,0.0,-2.1807,-2.1807,-2.2025,0.0,0.0,0.0,-2.2815,0.0,-2.3091,-2.2521,-2.2521,-2.2521,-2.2408,-2.2182,-2.1576,-2.0885,-2.007,-2.0031,-2.007,-2.0099,-2.0099,-2.0138,-2.0207,-2.0981,-2.1403,-2.1583,-2.2366,-2.2824,-2.2995,-2.2995,-2.2995,-2.2995,-2.2995,-2.2995,-2.2995,-2.2995,-2.2995,-2.2995,-2.2995,-2.2995,-2.2995,0.0,0.0,0.0,0.0,0.0,0.0,-3.8391,-3.8363,-3.8148,-3.7476,-3.7387,-3.7117,-3.6477,-3.6415,-3.6384,-3.6384,-3.5595,0.0,0.0,0.0,0.0,0.0,0.0,0.0,0.0,0.0,-3.4399,-3.4399,-3.4366,-3.4385,-3.4385,-3.4385,-3.4385,0.0,0.0,0.0,0.0,0.0,0.0,0.0,0.0,0.0,0.0,0.0,0.0,0.0,0.0,0.0,0.0,0.0,0.0,0.0,0.0,0.0,0.0,0.0,-2.7095,-2.6692,-2.6521,-2.6499,-2.6499,-2.6499,-2.6499,-2.6499,0.0,0.0,-2.6499,-2.6499,-2.6487,-2.6245,-2.5453,-2.4636,-2.3841,-2.3102,-2.2327,0.0,-2.1807,-2.1807,0.0,0.0,0.0,-2.2703,-2.353,-2.3934,-2.4164,-2.4164,-2.4164,-2.3824,-2.3038,-2.2964,-2.2617,-2.1794,-2.1766,-2.1821,-2.1952,-2.1952,-2.2065,-2.2253,-2.2478,-2.259,-2.259,-2.2872,-2.2995,-2.2995,-2.2995,-2.2995,-2.2995,-2.2995,-2.2995,-2.2995,-2.2995,-2.2995,-2.2995,-2.2995,-2.2995,-2.2995,0.0,0.0,0.0,0.0,0.0,0.0,0.0,-3.8391,-3.8307,-3.8119,-3.8091,-3.7988,-3.7799,-3.777,-3.777,-3.777,-3.6692,0.0,0.0,0.0,0.0,0.0,0.0,0.0,0.0,0.0,-3.4414,-3.4414,-3.4957,-3.5004,-3.4631,-3.5169,-3.5169,-3.4721,-3.4497,0.0,0.0,0.0,0.0,0.0,0.0,0.0,0.0,0.0,0.0,0.0,0.0,0.0,0.0,0.0,0.0,0.0,0.0,0.0,0.0,0.0,0.0,0.0,-2.6841,-2.6841,-2.6841,-2.6841,-2.6841,-2.6841,-2.6841,0.0,-2.6807,-2.6658,-2.6658,-2.6371,-2.5488,-2.5217,-2.466,-2.3213,-2.2857,0.0,0.0,0.0,0.0,-2.2777,-2.3298,-2.3751,0.0,0.0,-2.42,-2.42,-2.42,-2.408,-2.3824,-2.3824,-2.3213,-2.1832,-2.1794,-2.1869,-2.1989,-2.1989,-2.2103,-2.2328,-2.3073,-2.3404,-2.3452,-2.4228,-2.4576,-2.4576,-2.4576,-2.4576,-2.4576,-2.4576,-2.4576,-2.4576,-2.4576,-2.4576,-2.4576,-2.4576,-2.4576,-2.4576,0.0,0.0,0.0,0.0,0.0,0.0,0.0,-3.8391,-3.8391,-3.8391,-3.8391,-3.8391,-3.8391,-3.8391,-3.8391,-3.8391,-3.7637,0.0,0.0,0.0,0.0,0.0,0.0,0.0,-3.5154,-3.5204,-3.5237,-3.5237,-3.5772,-3.5723,-3.5151,-3.5672,-3.5544,-3.4902,-3.4817,-3.4765,0.0,0.0,0.0,0.0,0.0,0.0,-3.4414,0.0,0.0,0.0,0.0,0.0,0.0,0.0,0.0,0.0,0.0,0.0,0.0,0.0,0.0,0.0,0.0,-2.699,-2.699,-2.699,-2.699,0.0,0.0,0.0,-2.6943,-2.6841,-2.676,-2.6508,-2.5943,-2.5652,-2.5028,-2.3632,-2.3265,0.0,0.0,0.0,0.0,-2.2964,0.0,0.0,0.0,-2.4116,-2.42,-2.42,-2.42,-2.42,-2.42,-2.42,-2.374,-2.2745,-2.2708,-2.2782,-2.2957,-2.3021,-2.3169,-2.3342,-2.4047,-2.4373,-2.4373,-2.5004,-2.5312,-2.5312,-2.5312,-2.5312,0.0,-2.5312,-2.5312,-2.5312,-2.5312,-2.5312,-2.5312,-2.5312,-2.5312,-2.5312,0.0,0.0,0.0,0.0,0.0,0.0,0.0,-3.8391,-3.8391,-3.8391,-3.8391,-3.8391,-3.8391,-3.8391,-3.8391,-3.8391,0.0,0.0,0.0,0.0,0.0,0.0,0.0,0.0,-3.6446,-3.6554,-3.66,-3.66,-3.6813,-3.6584,-3.6008,-3.6024,-3.5689,-3.5052,-3.5052,-3.4968,0.0,0.0,0.0,0.0,0.0,0.0,0.0,0.0,0.0,0.0,0.0,0.0,0.0,0.0,0.0,0.0,0.0,0.0,0.0,0.0,0.0,0.0,0.0,0.0,0.0,0.0,0.0,0.0,0.0,0.0,0.0,-2.7024,-2.6863,-2.676,-2.6714,-2.6013,-2.5158,-2.4301,-2.3559,0.0,0.0,-2.2478,0.0,0.0,-2.3409,0.0,-2.3629,-2.397,-2.42,-2.42,-2.42,-2.42,-2.42,-2.42,-2.42,-2.4236,-2.4236,-2.4309,-2.4538,-2.4718,-2.4921,-2.5111,-2.5241,-2.5312,-2.5312,-2.5312,-2.5312,-2.5312,-2.5312,-2.5312,-2.5312,-2.5312,-2.5312,-2.5312,-2.5312,-2.5312,-2.5312,-2.5312,-2.5312,-2.5312,0.0,0.0,0.0,0.0,0.0,0.0,0.0,0.0,0.0,0.0,-3.8391,-3.8391,-3.8391,-3.8391,-3.8391,0.0,0.0,0.0,0.0,0.0,0.0,0.0,0.0,0.0,-3.6691,-3.6752,-3.6737,-3.6737,-3.744,-3.7456,-3.6814,-3.7456,-3.7308,-3.6569,-3.6569,-3.6212,0.0,0.0,0.0,0.0,0.0,0.0,0.0,0.0,0.0,0.0,-3.4631,-3.4528,0.0,0.0,0.0,0.0,0.0,0.0,0.0,0.0,-2.938,0.0,-2.7743,0.0,-2.7369,-2.7369,-2.7369,-2.7369,0.0,0.0,0.0,0.0,0.0,0.0,0.0,0.0,0.0,0.0,0.0,0.0,-2.2964,0.0,0.0,-2.3861,-2.4007,-2.4043,-2.4043,-2.4152,-2.42,-2.42,-2.42,-2.42,-2.42,-2.42,-2.4273,-2.4418,-2.4418,-2.4538,-2.4718,-2.4921,-2.5123,-2.5241,-2.5276,-2.5312,-2.5312,-2.5312,-2.5312,-2.5312,-2.5312,-2.5312,-2.5312,-2.5312,-2.5312,-2.5312,-2.5312,-2.5312,-2.5312,-2.5312,-2.5312,-2.5312,0.0,0.0,0.0,0.0,0.0,0.0,0.0,0.0,0.0,0.0,0.0,0.0,0.0,0.0,0.0,0.0,0.0,0.0,0.0,0.0,0.0,0.0,0.0,-3.7632,-3.7719,-3.7777,-3.7806,-3.7806,-3.8351,-3.8311,-3.7648,-3.8108,-3.7908,-3.7221,-3.686,-3.6384,0.0,0.0,0.0,0.0,-3.4668,0.0,0.0,0.0,0.0,0.0,-3.4731,-3.4698,0.0,-3.4471,-3.4212,-3.3908,0.0,0.0,0.0,0.0,-2.9978,-2.9254,-2.8254,-2.7723,-2.749,-2.749,-2.749,-2.749,0.0,0.0,0.0,0.0,0.0,0.0,0.0,0.0,0.0,0.0,-2.4707,0.0,0.0,0.0,-2.3519,-2.4127,-2.4043,-2.4007,-2.4189,-2.42,-2.42,-2.42,-2.42,-2.42,-2.42,-2.42,-2.4236,-2.4345,-2.4526,-2.4682,-2.479,-2.4981,-2.5147,-2.5218,-2.5276,-2.5312,-2.5312,-2.5312,-2.5312,-2.5312,-2.5312,-2.5312,-2.5312,-2.5312,-2.5312,-2.5312,-2.5312,-2.5312,-2.5312,-2.5312,-2.5312,-2.5312,0.0,0.0,0.0,0.0,0.0,0.0,0.0,0.0,0.0,0.0,0.0,0.0,0.0,0.0,0.0,0.0,0.0,0.0,0.0,0.0,0.0,0.0,-3.8412,-3.8805,-3.8832,-3.8969,-3.9067,-3.9067,-3.9218,-3.9023,-3.8463,-3.8463,-3.8124,-3.7517,-3.6784,-3.6274,0.0,0.0,-3.5019,0.0,-3.4902,0.0,0.0,0.0,0.0,0.0,0.0,0.0,0.0,-3.5082,-3.4712,-3.4206,-3.4407,0.0,0.0,0.0,0.0,0.0,-2.8725,-2.8105,-2.7623,-2.7523,-2.749,-2.749,0.0,0.0,0.0,0.0,0.0,0.0,0.0,0.0,0.0,0.0,0.0,0.0,-2.3703,-2.3372,-2.3446,-2.4116,-2.3897,-2.3824,-2.4164,-2.42,-2.42,-2.42,-2.42,-2.42,-2.42,-2.42,-2.42,-2.4236,-2.4574,-2.4754,-2.479,-2.5016,-2.5111,-2.5111,-2.5241,-2.5312,-2.5312,-2.5312,-2.5312,-2.5312,-2.5312,-2.5312,-2.5312,-2.5312,-2.5312,-2.5312,-2.5312,-2.5312,-2.5312,-2.5312,-2.5312,-2.5312,0.0,0.0,0.0,0.0,0.0,0.0,0.0,0.0,0.0,0.0,0.0,0.0,0.0,0.0,0.0,0.0,0.0,0.0,0.0,0.0,0.0,-3.7982,-3.8482,-3.886,-3.8969,-3.9148,-3.9245,-3.9245,-3.9272,-3.9245,-3.9148,-3.9148,-3.8799,-3.8137,-3.7812,-3.7163,-3.6305,-3.5913,-3.5527,-3.5148,-3.4968,0.0,0.0,0.0,0.0,0.0,0.0,0.0,0.0,-3.4983,-3.4975,-3.4928,-3.4414,0.0,0.0,0.0,0.0,0.0,-2.8853,-2.8417,-2.8189,-2.7656,-2.749,-2.749,0.0,0.0,0.0,0.0,0.0,0.0,0.0,-2.7214,-2.6589,0.0,0.0,-2.3776,0.0,0.0,-2.4043,-2.42,-2.4164,-2.4127,-2.4189,-2.42,-2.42,-2.42,-2.42,-2.42,-2.42,-2.42,-2.4273,-2.4454,-2.449,-2.4646,-2.479,-2.5111,-2.5276,-2.5276,-2.5276,-2.5312,-2.5312,-2.5312,-2.5312,-2.5312,-2.5312,-2.5312,-2.5312,-2.5312,-2.5312,-2.5312,-2.5312,-2.5312,-2.5312,-2.5312,-2.5312,-2.5312,0.0,0.0,0.0,0.0,0.0,0.0,0.0,0.0,0.0,0.0,0.0,0.0,0.0,0.0,0.0,0.0,0.0,0.0,0.0,0.0,-3.88,-3.8324,-3.8641,-3.8914,-3.9148,-3.9245,-3.9299,-3.9299,-3.9299,-3.9104,-3.8745,-3.8423,-3.8112,-3.7793,-3.7326,-3.6814,-3.6368,-3.5894,-3.5572,-3.5359,0.0,0.0,0.0,0.0,0.0,0.0,0.0,0.0,0.0,0.0,-3.5213,-3.5169,-3.4954,0.0,0.0,0.0,0.0,0.0,-2.9303,-2.8468,-2.7776,-2.7556,-2.749,-2.749,0.0,0.0,0.0,0.0,0.0,0.0,0.0,0.0,-2.6816,-2.5779,0.0,-2.3446,-2.3861,-2.3714,-2.3703,-2.4152,-2.4007,-2.397,-2.4189,-2.42,-2.42,-2.42,-2.42,-2.42,-2.42,-2.42,-2.4236,-2.4345,-2.4454,-2.461,-2.479,-2.5418,-2.5546,-2.5182,-2.5276,-2.5312,-2.5312,-2.5312,-2.5312,-2.5312,-2.5312,-2.5312,-2.5312,-2.5312,-2.5312,-2.5312,-2.5312,-2.5312,-2.5347,-2.5756,-2.5652,-2.5382,0.0,0.0,0.0,0.0,0.0,0.0,0.0,0.0,0.0,0.0,0.0,0.0,0.0,0.0,0.0,0.0,0.0,0.0,0.0,-3.9194,-3.9215,-3.9205,-3.9121,-3.915,-3.9245,-3.9272,-3.9202,-3.9077,-3.9077,-3.8717,-3.808,-3.7634,-3.731,-3.7131,-3.6631,-3.6305,-3.6164,-3.5716,-3.5504,-3.5504,0.0,0.0,0.0,0.0,0.0,0.0,0.0,0.0,0.0,0.0,0.0,0.0,0.0,0.0,0.0,-3.3873,-3.2311,-3.0587,-2.9918,-2.8678,-2.7556,-2.749,0.0,0.0,0.0,0.0,0.0,0.0,0.0,0.0,0.0,-2.7121,0.0,-2.5896,-2.4396,-2.3545,-2.4116,-2.3666,-2.3519,-2.4127,-2.3934,-2.3861,-2.4164,-2.42,-2.4261,-2.4358,-2.4406,-2.4442,-2.4575,-2.4611,-2.4611,-2.4611,-2.4826,-2.5004,-2.5159,-2.5953,-2.5953,-2.5147,-2.5581,-2.5721,-2.5546,-2.5756,-2.5721,-2.5558,-2.5558,-2.5453,-2.5312,-2.5312,-2.5312,-2.5312,-2.5312,-2.5418,-2.5664,-2.6553,-2.6499,-2.6128,0.0,0.0,0.0,0.0,0.0,0.0,0.0,0.0,0.0,0.0,0.0,0.0,0.0,0.0,0.0,0.0,0.0,0.0,0.0,-4.1566,-4.139,-4.1021,-4.0362,-3.9704,-3.904,-3.9202,-3.8996,-3.8379,-3.8379,-3.8051,-3.7458,-3.7429,-3.7071,-3.6461,-3.643,-3.6085,-3.5554,-3.5537,-3.5504,-3.5504,-3.5504,0.0,0.0,0.0,0.0,0.0,0.0,0.0,0.0,0.0,0.0,0.0,0.0,0.0,-3.4503,-3.4444,-3.3005,-3.1298,-3.0598,-2.9444,-2.8254,-2.7656,-2.7268,0.0,-2.7436,-2.7403,0.0,-2.7469,0.0,0.0,0.0,-2.6539,-2.5802,-2.5406,-2.4755,-2.4288,-2.4225,-2.4152,-2.4152,-2.4189,-2.4164,-2.4164,-2.42,-2.42,-2.4406,-2.4909,-2.4945,-2.5194,-2.5756,-2.5791,-2.5791,-2.5791,-2.6079,-2.6274,-2.6274,-2.6841,-2.6514,-2.5312,-2.6663,-2.6981,-2.6346,-2.7048,-2.6981,-2.6311,-2.6311,-2.5931,-2.5312,-2.5312,-2.5312,-2.5312,-2.5312,-2.5721,-2.6477,-2.7765,-2.8234,-2.8278,0.0,0.0,0.0,0.0,0.0,0.0,0.0,0.0,0.0,0.0,0.0,0.0,0.0,0.0,0.0,0.0,0.0,0.0,0.0,-4.1916,-4.1618,-4.1596,-4.0432,-3.9586,-3.9137,-3.8835,-3.8562,-3.8306,-3.7501,-3.7011,-3.6784,-3.6383,-3.6085,-3.5861,-3.5861,-3.5701,-3.5504,-3.5504,-3.5504,-3.5504,-3.5504,-3.5504,0.0,0.0,0.0,0.0,0.0,0.0,0.0,0.0,-3.5504,-3.5504,-3.5504,-3.5325,-3.504,-3.4638,-3.3062,-3.1358,-3.069,-2.9065,-2.7556,-2.749,-2.7154,0.0,0.0,-2.7335,-2.7235,-2.7053,-2.6985,0.0,0.0,0.0,-2.6173,-2.5594,-2.5087,-2.4659,-2.4261,-2.42,-2.42,-2.42,-2.42,-2.4334,-2.4671,-2.4707,-2.4945,-2.5511,-2.5569,-2.5652,-2.5896,-2.5896,-2.5896,-2.5896,-2.6239,-2.6445,-2.6595,-2.7438,-2.7471,-2.6663,-2.7237,-2.7338,-2.7082,-2.7384,-2.7351,-2.7082,-2.7082,-2.6947,-2.6663,-2.6663,-2.6663,-2.6701,-2.7078,-2.7643,-2.8326,-2.9297,-2.9342,-2.907,0.0,0.0,0.0,0.0,0.0,0.0,0.0,0.0,0.0,0.0,0.0,0.0,0.0,0.0,0.0,0.0,0.0,0.0,-4.2696,-4.2273,-4.1967,-4.1857,-4.0947,-4.0153,-3.9491,-3.8755,-3.8133,-3.7706,-3.6631,-3.6116,-3.6116,-3.5668,-3.5504,-3.5504,-3.5504,-3.5504,-3.5504,-3.5504,-3.5504,-3.5504,-3.5504,-3.5504,0.0,0.0,0.0,0.0,0.0,0.0,0.0,0.0,-3.5504,-3.5504,-3.5504,-3.5504,-3.5415,-3.4936,-3.3237,-3.1387,-3.095,-2.8984,-2.7146,0.0,0.0,0.0,-2.7066,-2.7201,-2.7201,-2.6964,-2.6829,0.0,-2.6897,0.0,0.0,0.0,-2.5652,-2.5335,-2.4814,-2.4754,-2.4754,-2.4754,-2.4754,-2.4886,-2.5264,-2.5288,-2.5546,-2.6104,-2.6139,-2.622,-2.638,-2.6414,-2.6414,-2.6414,-2.6833,-2.717,-2.7284,-2.8254,-2.8514,-2.8176,-2.8176,-2.8032,-2.7835,-2.8078,-2.8032,-2.7835,-2.7835,-2.7808,-2.7779,-2.7779,-2.7897,-2.8127,-2.8794,-2.9281,-2.9771,-3.0678,-3.0712,-3.0379,0.0,0.0,0.0,0.0,0.0,0.0,0.0,0.0,0.0,0.0,0.0,0.0,0.0,0.0,0.0,0.0,0.0,0.0,-4.2868,-4.2899,-4.2633,-4.2029,-4.2197,-4.1594,-4.0129,-3.9046,-3.7807,-3.6399,-3.5797,-3.5504,-3.5504,-3.5504,-3.5504,-3.5504,-3.5504,-3.5504,-3.5504,-3.5504,-3.5504,-3.5504,-3.5504,-3.5504,-3.5504,0.0,0.0,0.0,0.0,0.0,0.0,0.0,-3.5504,-3.5504,-3.5504,-3.5504,-3.5504,-3.5504,-3.3602,-3.15,-3.1486,-2.9455,-2.7315,0.0,0.0,0.0,-2.676,-2.6998,-2.7302,-2.7302,0.0,-2.7045,-2.7268,-2.7146,0.0,-2.6461,-2.6577,-2.6508,-2.5965,-2.5896,-2.5896,-2.5896,-2.5896,-2.5896,-2.5896,-2.5896,-2.6151,-2.6679,-2.6714,-2.6952,-2.7456,-2.749,-2.749,-2.7503,-2.8229,-2.8587,-2.8587,-2.9257,-2.9602,-2.9602,-2.9617,-2.923,-2.8524,-2.9261,-2.9198,-2.8538,-2.8551,-2.8484,-2.8436,-2.8436,-2.8777,-2.9394,-3.0138,-3.0426,-3.0576,-3.1921,-3.2412,-3.2497,0.0,0.0,0.0,0.0,0.0,0.0,0.0,0.0,0.0,0.0,0.0,0.0,0.0,0.0,0.0,0.0,0.0,0.0,-4.2696,-4.2696,-4.2665,-4.2633,-4.1709,-4.089,-4.0257,-3.8171,-3.6673,-3.5765,-3.5587,-3.5504,-3.5504,-3.5504,-3.5504,-3.5504,-3.5504,-3.5504,-3.5504,-3.5504,-3.5504,-3.5504,-3.5504,-3.5504,-3.5504,0.0,0.0,0.0,0.0,0.0,0.0,0.0,0.0,0.0,-3.5504,-3.5504,-3.5504,-3.5504,-3.3808,-3.1834,-3.1405,-2.9524,0.0,-2.7372,0.0,0.0,0.0,-2.6998,0.0,0.0,-2.7066,-2.718,-2.7113,-2.7248,0.0,-2.6483,-2.6577,-2.6508,-2.5965,-2.5896,-2.5896,-2.5896,-2.5896,-2.6035,-2.644,-2.6474,-2.6679,-2.7222,-2.7255,-2.7323,-2.749,-2.749,-2.7636,-2.7914,-2.836,-2.8716,-2.894,-2.9383,-2.9602,-2.9617,-3.0052,-2.9883,-2.9306,-2.9943,-3.0107,-2.9914,-3.0406,-3.0613,-3.0579,-3.0579,-3.0923,-3.1509,-3.1715,-3.2062,-3.2486,-3.2905,-3.3045,-3.3073,0.0,0.0,0.0,0.0,0.0,0.0,0.0,0.0,0.0,0.0,0.0,0.0,0.0,0.0,0.0,0.0,0.0,0.0,0.0,-4.2317,-4.2077,-4.19,-4.1209,-4.0546,-3.9994,-3.7934,-3.6537,-3.5893,-3.5624,-3.5504,-3.5504,-3.5504,-3.5504,-3.5504,-3.5504,-3.5504,-3.5504,-3.5504,-3.5504,-3.5504,-3.5504,-3.5504,-3.5504,0.0,0.0,0.0,0.0,0.0,0.0,0.0,0.0,0.0,-3.5504,0.0,-3.5439,-3.5133,-3.3691,-3.208,-3.1383,-2.9594,0.0,-2.7661,-2.7416,-2.718,-2.718,0.0,0.0,0.0,-2.7167,-2.7268,-2.7214,-2.7302,-2.7289,-2.6905,-2.6952,-2.6918,-2.6586,-2.6552,-2.6552,-2.6552,-2.6552,-2.6667,-2.6985,-2.7019,-2.7154,-2.7503,-2.749,-2.749,-2.749,-2.749,-2.7669,-2.8079,-2.8438,-2.8871,-2.9458,-2.9778,-3.0094,-3.0361,-3.0726,-3.0712,-3.0375,-3.074,-3.0909,-3.0937,-3.1583,-3.185,-3.1878,-3.2117,-3.244,-3.2778,-3.2778,-3.3002,-3.329,-3.329,-3.329,-3.3326,0.0,0.0,0.0,0.0,0.0,0.0,0.0,0.0,0.0,0.0,0.0,0.0,0.0,0.0,0.0,0.0,0.0,0.0,0.0,-4.1803,-4.1111,-4.0451,-4.0721,-4.0442,-3.9468,-3.8133,-3.7161,-3.6567,-3.5863,-3.5504,-3.5504,-3.5504,-3.5504,-3.5504,-3.5504,-3.5504,-3.5504,-3.5504,-3.5504,-3.5504,-3.5504,-3.5504,-3.5504,-3.5504,0.0,0.0,0.0,0.0,0.0,0.0,0.0,0.0,-3.5504,-3.5504,-3.5359,-3.461,-3.347,-3.2268,-3.1486,0.0,0.0,-2.8101,-2.7559,0.0,-2.699,-2.7146,-2.7335,-2.7469,0.0,-2.7369,-2.7503,-2.7403,-2.7369,-2.7503,-2.749,-2.749,-2.749,-2.749,-2.749,-2.749,-2.749,-2.749,-2.749,-2.749,-2.749,-2.749,-2.749,-2.7536,-2.757,-2.7622,-2.7848,-2.8258,-2.8625,-2.9236,-3.0145,-3.0452,-3.0909,-3.1485,-3.1555,-3.1569,-3.1569,-3.1569,-3.1597,-3.1682,-3.2244,-3.2483,-3.2525,-3.3087,-3.329,-3.329,-3.329,-3.3326,-3.3326,-3.3326,-3.3361,-3.3396,0.0,0.0,0.0,0.0,0.0,0.0,0.0,0.0,0.0,0.0,0.0,0.0,0.0,0.0,0.0,0.0,0.0,0.0,0.0,-4.1044,-4.0622,-4.0622,-4.0328,-3.9844,-3.9206,-3.8228,-3.754,-3.721,-3.6073,-3.5504,-3.5504,-3.5504,-3.5504,-3.5504,-3.5504,-3.5504,-3.5504,-3.5504,-3.5504,-3.5504,-3.5504,-3.5504,-3.5504,-3.5504,-3.5504,0.0,0.0,0.0,0.0,0.0,0.0,0.0,-3.5504,-3.5504,-3.5472,-3.5279,-3.409,-3.2668,0.0,-3.0376,0.0,0.0,-2.7661,-2.718,-2.7045,-2.7146,-2.7302,-2.7335,-2.7403,-2.7469,-2.749,-2.7503,-2.7469,-2.749,-2.749,-2.749,-2.749,-2.749,-2.749,-2.749,-2.749,-2.749,-2.749,-2.749,-2.749,-2.749,-2.749,-2.7636,-2.7947,-2.8405,-2.896,-2.9575,-3.0127,-3.0657,-3.1175,-3.1241,-3.1359,-3.1499,-3.1977,-3.2216,-3.2216,-3.2216,-3.2469,-3.2932,-3.3073,-3.3094,-3.3108,-3.3234,-3.329,-3.329,-3.329,-3.3396,-3.3536,-3.3536,-3.364,-3.3793,0.0,0.0,0.0,0.0,0.0,0.0,0.0,0.0,0.0,0.0,0.0,0.0,0.0,0.0,0.0,0.0,0.0,0.0,0.0,0.0,-3.9839,-3.9804,-3.9514,-3.9328,-3.9265,-3.8487,-3.8017,-3.7883,-3.6596,-3.5804,-3.5504,-3.5504,-3.5504,-3.5504,-3.5504,-3.5504,-3.5504,-3.5504,-3.5504,-3.5504,-3.5504,-3.5504,-3.5504,-3.5504,-3.5504,-3.5504,-3.5504,0.0,0.0,0.0,0.0,0.0,0.0,0.0,-3.5424,-3.5052,-3.4293,-3.3358,0.0,0.0,0.0,0.0,0.0,0.0,-2.7268,-2.7302,-2.7403,-2.7403,-2.7469,-2.749,-2.749,-2.749,-2.749,-2.749,-2.749,-2.749,-2.749,-2.749,-2.749,-2.749,-2.749,-2.749,-2.749,-2.749,-2.749,-2.749,-2.7785,-2.811,-2.8492,-2.9072,-2.972,-3.0392,-3.0742,-3.1229,-3.1921,-3.1935,-3.2075,-3.237,-3.2693,-3.2848,-3.2848,-3.2848,-3.3016,-3.329,-3.329,-3.329,-3.329,-3.329,-3.329,-3.329,-3.329,-3.3361,-3.3466,-3.3466,-3.357,-3.3793,0.0,0.0,0.0,0.0,0.0,0.0,0.0,0.0,0.0,0.0,0.0,0.0,0.0,0.0,0.0,0.0,0.0,0.0,0.0,0.0,0.0,-3.8745,-3.8708,-3.8907,-3.9337,-3.8749,-3.8391,-3.8392,-3.7295,-3.6399,-3.5669,-3.5549,-3.5504,-3.5504,-3.5504,-3.5504,-3.5504,-3.5504,-3.5504,-3.5504,-3.5504,-3.5504,-3.5504,-3.5504,-3.5504,-3.5504,-3.5504,-3.5504,-3.5504,-3.5504,0.0,0.0,0.0,0.0,-3.5359,-3.471,-3.4413,-3.4027,0.0,0.0,0.0,0.0,0.0,0.0,-2.7436,-2.7436,-2.7469,-2.7469,-2.7503,-2.749,-2.749,-2.749,-2.749,-2.749,-2.749,-2.749,-2.749,-2.749,-2.749,-2.749,-2.7581,-2.7646,-2.7646,-2.7738,-2.7803,-2.7803,-2.8268,-2.8715,-2.9139,-2.9728,-3.0383,-3.1012,-3.1225,-3.1714,-3.2553,-3.2567,-3.282,-3.329,-3.329,-3.329,-3.329,-3.329,-3.329,-3.329,-3.329,-3.329,-3.329,-3.329,-3.329,-3.329,-3.329,-3.3326,-3.3361,-3.3361,-3.3466,-3.3675,0.0,0.0,0.0,0.0,0.0,0.0,0.0,0.0,0.0,0.0,0.0,0.0,0.0,0.0,0.0,0.0,0.0,0.0,0.0,0.0,0.0,-3.8553,-3.8352,-3.8538,-3.9141,-3.8723,-3.8471,-3.8392,-3.8052,-3.7367,-3.6342,-3.5774,-3.5504,-3.5504,-3.5504,-3.5504,-3.5504,-3.5504,-3.5504,-3.5504,-3.5504,-3.5504,-3.5504,-3.5504,-3.5504,-3.5504,-3.5504,-3.5504,-3.5504,-3.5504,-3.5504,0.0,0.0,0.0,-3.5472,-3.5359,-3.4839,-3.4279,0.0,0.0,0.0,0.0,0.0,-2.7268,0.0,0.0,-2.7335,0.0,-2.7436,-2.749,-2.749,-2.749,-2.749,-2.749,-2.749,-2.749,-2.749,-2.749,-2.749,-2.749,-2.7968,-2.8268,-2.8268,-2.8739,-2.9052,-2.9052,-2.9118,-2.9333,-2.9669,-3.0602,-3.1299,-3.1682,-3.2535,-3.3031,-3.3164,-3.3164,-3.3206,-3.329,-3.329,-3.329,-3.329,-3.329,-3.329,-3.329,-3.329,-3.329,-3.329,-3.329,-3.329,-3.329,-3.329,-3.3396,-3.357,-3.357,-3.3675,-3.3862,0.0,0.0,0.0,0.0,0.0,0.0,0.0,0.0,0.0,0.0,0.0,0.0,0.0,0.0,0.0,0.0,0.0,0.0,0.0,0.0,0.0,-3.8516,-3.8404,-3.8538,-3.8907,-3.876,-3.8701,-3.8803,-3.8338,-3.7719,0.0,-3.6357,-3.5863,-3.5504,-3.5504,-3.5504,-3.5504,-3.5504,-3.5504,-3.5504,-3.5504,-3.5439,-3.5326,-3.5472,-3.5439,-3.5359,-3.5472,-3.5504,-3.5504,-3.5504,-3.5504,-3.5504,-3.5504,0.0,0.0,0.0,-3.5246,0.0,-3.3919,0.0,0.0,0.0,0.0,0.0,-2.8309,0.0,-2.8413,-2.8413,-2.8482,-2.8307,-2.7607,-2.749,-2.749,-2.749,-2.7798,-2.8007,-2.8007,-2.8294,-2.8503,-2.8503,-2.8726,-2.8917,-2.8917,-2.9118,-2.931,-2.931,-2.9575,-2.9902,-3.0268,-3.1209,-3.1913,-3.2303,-3.2947,-3.329,-3.329,-3.329,-3.329,-3.329,-3.329,-3.329,-3.329,-3.329,-3.329,-3.329,-3.329,-3.329,-3.329,-3.329,-3.329,-3.329,-3.329,-3.3361,-3.3431,-3.3431,-3.357,-3.3744,0.0,0.0,0.0,0.0,0.0,0.0,0.0,0.0,0.0,0.0,0.0,0.0,0.0,0.0,0.0,0.0,0.0,0.0,0.0,0.0,0.0,-3.859,-3.8516,-3.8627,-3.8943,-3.8907,-3.898,-3.9177,-3.8701,-3.8102,-3.7404,-3.6941,-3.6282,0.0,-3.5504,-3.5504,-3.5504,-3.5504,0.0,-3.5504,-3.5504,-3.5359,-3.5213,-3.5439,-3.5326,-3.5148,-3.5407,-3.5472,-3.5439,-3.5472,-3.5504,-3.5504,-3.5504,-3.5504,0.0,0.0,0.0,0.0,0.0,0.0,0.0,0.0,0.0,0.0,0.0,0.0,-2.931,0.0,-2.931,-2.9013,-2.8137,-2.7968,-2.7968,-2.7968,-2.8333,-2.8643,-2.8643,-2.9035,-2.931,-2.931,-2.9405,-2.9497,-2.9497,-2.9627,-2.9742,-2.9742,-3.0111,-3.048,-3.0916,-3.168,-3.2205,-3.2469,-3.3003,-3.322,-3.3087,-3.3206,-3.329,-3.329,-3.329,-3.329,-3.329,-3.329,-3.329,-3.329,-3.329,-3.329,-3.329,-3.329,-3.3326,-3.3396,-3.3396,-3.3396,-3.3466,-3.3466,-3.3536,-3.3709,0.0,0.0,0.0,0.0,0.0,0.0,0.0,0.0,0.0,0.0,0.0,0.0,-4.1492,-4.0243,-3.9697,-4.0347,-3.9103,-3.8315,-3.8277,-3.8863,-3.9118,-3.8782,-3.8612,0.0,-3.9352,-3.9177,-3.9177,-3.9388,-3.9343,0.0,-3.7404,-3.7375,-3.6701,-3.5504,-3.5504,-3.5504,-3.5504,0.0,0.0,0.0,-3.5504,-3.5359,-3.5213,-3.5439,-3.5261,-3.4968,-3.5359,-3.5359,-3.5261,-3.5439,-3.5504,-3.5504,-3.5504,-3.5504,-3.5504,0.0,0.0,0.0,0.0,0.0,0.0,0.0,0.0,0.0,0.0,0.0,-2.931,-2.931,-2.931,-2.9297,-2.9231,-2.9231,-2.9231,-2.9231,-2.9209,-2.9235,-2.9235,-2.9297,-2.931,-2.931,-2.9758,-3.0061,-3.0061,-3.0581,-3.0895,-3.0895,-3.0921,-3.1121,-3.1553,-3.1896,-3.2014,-3.1861,-3.2793,-3.3045,-3.2455,-3.3031,-3.329,-3.329,-3.329,-3.329,-3.329,-3.329,-3.329,-3.329,-3.329,-3.329,-3.329,-3.329,-3.3396,-3.357,-3.357,-3.3709,-3.3862,-3.3862,-3.3896,-3.3896,0.0,0.0,0.0,0.0,0.0,0.0,0.0,0.0,0.0,0.0,0.0,0.0,0.0,-4.0034,-3.9929,-3.9733,-3.9211,-3.8899,-3.8899,-3.8716,-3.8546,-3.8427,-3.8352,-3.8389,-3.8627,-3.8575,-3.8686,-3.9017,-3.9017,-3.868,-3.8033,-3.7599,-3.6956,-3.6118,-3.5684,-3.5504,-3.5504,-3.5504,0.0,0.0,0.0,0.0,0.0,0.0,-3.5082,-3.4783,-3.5049,0.0,-3.5213,-3.5294,-3.5392,-3.5504,0.0,0.0,0.0,0.0,0.0,0.0,0.0,0.0,0.0,0.0,0.0,-3.1321,-3.0543,-3.0372,-3.0372,-3.0372,-3.0372,-3.0372,-3.0372,-2.9771,-2.931,-2.931,-2.9588,-2.9823,-2.9823,-3.015,-3.0372,-3.0372,-3.0555,-3.0686,-3.0686,-3.0869,-3.1099,-3.1384,-3.1384,-3.1519,-3.1909,-3.2273,-3.2272,-3.182,-3.2779,-3.3178,-3.3002,-3.3178,-3.329,-3.329,-3.329,-3.329,-3.329,-3.329,-3.329,-3.329,-3.329,-3.329,-3.329,-3.329,-3.3361,-3.3396,-3.3396,-3.3466,-3.3536,-3.364,-3.3709,-3.3744,0.0,0.0,0.0,0.0,0.0,0.0,0.0,0.0,0.0,-3.9376,0.0,0.0,0.0,0.0,-3.9718,-3.9009,-3.9009,-3.9045,-3.9045,-3.8634,-3.8427,-3.8501,-3.8501,-3.8538,-3.859,-3.8355,-3.8502,-3.898,-3.8794,-3.8561,-3.8377,-3.7719,-3.7075,-3.6462,-3.5804,-3.5504,0.0,0.0,0.0,-3.5504,0.0,0.0,-3.5001,0.0,-3.5096,-3.4783,0.0,0.0,-3.5115,-3.5115,-3.518,-3.5326,0.0,0.0,0.0,0.0,0.0,0.0,-3.4839,0.0,0.0,0.0,0.0,-3.2268,-3.1542,-3.1198,-3.0986,-3.0986,-3.0986,-3.0986,-3.0986,-3.0359,-2.9849,-2.9849,-3.0176,-3.0388,-3.0388,-3.0751,-3.0986,-3.0986,-3.0986,-3.0986,-3.0986,-3.0986,-3.1099,-3.1384,-3.1519,-3.174,-3.2092,-3.2297,-3.229,-3.2007,-3.2443,-3.2904,-3.329,-3.329,-3.329,-3.329,-3.329,-3.329,-3.329,-3.329,-3.329,-3.329,-3.329,-3.329,-3.329,-3.329,-3.3361,-3.3396,-3.3396,-3.3431,-3.3536,-3.364,-3.3709,-3.3744,0.0,0.0,0.0,0.0,0.0,0.0,0.0,0.0,-4.0069,-3.9341,0.0,0.0,0.0,0.0,0.0,-3.8277,-3.8366,-3.8478,-3.8478,-3.8686,-3.887,-3.9068,-3.9068,-3.9177,-3.9373,-3.873,-3.8715,-3.9388,-3.8751,-3.8422,-3.8407,-3.7719,-3.709,-3.6492,-3.5804,-3.5504,-3.5504,0.0,-3.5504,-3.5504,0.0,-3.5359,-3.5213,0.0,0.0,0.0,-3.5115,-3.5082,0.0,-3.4902,0.0,0.0,0.0,0.0,0.0,0.0,0.0,0.0,0.0,0.0,0.0,0.0,0.0,0.0,-3.229,0.0,-3.1011,-3.1011,-3.1024,-3.0986,-3.0986,-3.0986,-3.0986,-3.0986,-3.0986,-3.0986,-3.0986,-3.0986,-3.0986,-3.0986,-3.0986,-3.0986,-3.0986,-3.0986,-3.1024,-3.1024,-3.1384,-3.1776,-3.2128,-3.1899,-3.1965,-3.237,-3.1808,-3.2075,-3.3248,-3.3276,-3.329,-3.329,-3.329,-3.329,-3.329,-3.329,-3.329,-3.329,-3.329,-3.329,-3.329,-3.329,-3.3417,-3.3605,-3.3605,-3.3709,-3.3882,-3.3882,-3.3896,-3.3917,0.0,0.0,0.0,0.0,0.0,0.0,-3.8546,-3.8694,-3.873,0.0,0.0,0.0,-3.8789,-3.862,-3.8412,-3.8202,-3.824,-3.8277,-3.8277,-3.8464,-3.8538,-3.8464,-3.859,-3.8701,-3.8738,-3.8561,-3.8708,-3.9177,-3.8999,-3.8981,-3.911,-3.7958,-3.7315,-3.7105,-3.5998,-3.5504,-3.5504,-3.5504,0.0,-3.5504,-3.5504,-3.5359,0.0,0.0,0.0,0.0,0.0,-3.5034,-3.5115,0.0,-3.5213,-3.5326,0.0,0.0,0.0,0.0,0.0,0.0,-3.5504,0.0,0.0,0.0,0.0,0.0,0.0,0.0,-3.1809,-3.1809,-3.1357,-3.0986,-3.0986,-3.0986,-3.0986,-3.0986,-3.0986,-3.0986,-3.0986,-3.0986,-3.0986,-3.0986,-3.0986,-3.0986,-3.0986,-3.0986,-3.1235,-3.1776,-3.1909,-3.225,-3.2909,-3.2095,-3.1624,-3.1738,-3.1583,-3.1864,-3.2651,-3.3066,-3.329,-3.329,-3.329,-3.329,-3.329,-3.329,-3.329,-3.329,-3.329,-3.329,-3.329,-3.329,-3.3577,-3.3928,-3.3521,-3.3646,-3.4011,-3.3764,-3.3675,-3.3709,0.0,0.0,0.0,0.0,0.0,0.0,-3.8202,-3.8202,-3.8202,0.0,0.0,0.0,-3.8329,-3.8329,-3.8277,-3.8202,-3.8277,-3.8329,-3.8329,-3.8501,-3.8612,-3.8575,-3.8701,-3.8775,-3.8848,-3.8619,-3.8713,-3.9228,-3.893,-3.9017,-3.9358,-3.8033,-3.7404,-3.7345,0.0,0.0,0.0,0.0,0.0,0.0,-3.5504,0.0,0.0,-3.5326,-3.5261,0.0,0.0,0.0,-3.5082,-3.5016,-3.5096,0.0,0.0,0.0,0.0,0.0,0.0,0.0,0.0,0.0,0.0,0.0,0.0,0.0,-3.3353,-3.2613,-3.2015,-3.17,-3.1296,-3.0986,-3.0986,-3.0986,-3.0986,-3.0986,-3.0986,-3.0986,-3.0986,-3.0986,-3.0986,-3.0986,-3.0986,-3.0986,-3.0986,-3.1161,-3.1421,-3.185,-3.2164,-3.2425,-3.2547,-3.1878,-3.1359,-3.1092,-3.1345,-3.178,-3.2398,-3.3016,-3.329,-3.329,-3.329,-3.3417,-3.3632,-3.3417,-3.3417,-3.3597,-3.3382,-3.3417,-3.3597,-3.3382,-3.3597,-3.4085,-3.377,-3.4065,-3.461,-3.4438,-3.4249,-3.4216,0.0,0.0,0.0,0.0,0.0,0.0,-3.8202,-3.8202,-3.8202,0.0,-3.8366,-3.8478,-3.8478,-3.8478,-3.8404,-3.8202,-3.8366,-3.8478,-3.8478,-3.8723,-3.8907,-3.9068,-3.9104,-3.9177,-3.9337,-3.8775,-3.8775,-3.9388,-3.8796,-3.8811,-3.9358,-3.8033,-3.7404,-3.7345,0.0,0.0,0.0,0.0,0.0,-3.5504,-3.5504,-3.5504,0.0,0.0,-3.5504,-3.5472,-3.5294,-3.5115,-3.4935,-3.4831,-3.485,0.0,0.0,0.0,0.0,0.0,-3.5504,0.0,0.0,0.0,0.0,0.0,-3.4938,0.0,-3.3596,-3.2861,-3.216,-3.1505,-3.1296,-3.1222,-3.1222,-3.1222,-3.1222,-3.1222,-3.1198,-3.1086,-3.1024,-3.0986,-3.0986,-3.0986,-3.0986,-3.0986,-3.0986,-3.1347,-3.1629,-3.1666,-3.229,-3.2333,-3.1555,-3.1429,-3.1092,-3.0413,-3.112,-3.1752,-3.23,-3.2988,-3.329,-3.329,-3.3347,-3.3632,-3.4085,-3.3667,-3.3736,-3.4172,-3.3667,-3.3736,-3.4153,-3.3667,-3.3805,-3.4274,-3.4153,-3.4643,-3.5432,-3.54,-3.5204,-3.5073,0.0,0.0,0.0,0.0,0.0,0.0,-3.8202,-3.8202,-3.8202,-3.8202,-3.824,-3.824,-3.824,-3.824,-3.824,-3.8202,-3.8366,-3.8478,-3.8478,-3.8848,-3.898,-3.887,-3.9017,-3.9104,-3.9141,-3.9022,-3.913,-3.9388,-3.929,-3.929,-3.9358,-3.8033,-3.7404,-3.7345,0.0,0.0,0.0,0.0,0.0,-3.5504,-3.5504,-3.5504,-3.5504,-3.5504,-3.5504,-3.5504,-3.5472,-3.5439,-3.5359,-3.5341,-3.5374,-3.5359,0.0,0.0,0.0,-3.5504,0.0,0.0,0.0,0.0,0.0,0.0,-3.5392,0.0,-3.5067,-3.4442,-3.3822,-3.3685,-3.3178,-3.2769,-3.2769,-3.2769,-3.2769,-3.2769,-3.2268,-3.1676,-3.1086,-3.0986,-3.0986,-3.0986,-3.0986,-3.0986,-3.0986,-3.1347,-3.1703,-3.1982,-3.2275,-3.219,-3.1527,-3.0993,-3.0399,-2.9799,-3.0895,-3.1555,-3.1668,-3.2778,-3.329,-3.3326,-3.3736,-3.3982,-3.4104,-3.4457,-3.4643,-3.4743,-3.461,-3.4658,-3.4758,-3.4624,-3.489,-3.5317,-3.4442,-3.4743,-3.5608,-3.5464,-3.5367,-3.5385,0.0,0.0,0.0,0.0,0.0,0.0,0.0,-3.8202,-3.8202,-3.8202,-3.8277,-3.8366,-3.8366,-3.8366,-3.8315,-3.8202,-3.8277,-3.8404,-3.8478,-3.8701,-3.8848,-3.8943,-3.9068,-3.9141,-3.9265,-3.9265,-3.9301,-3.9388,-3.9388,-3.9245,-3.8886,-3.7883,-3.724,-3.6911,-3.5938,0.0,0.0,0.0,-3.5504,-3.5504,-3.5504,0.0,-3.5504,-3.5504,-3.5504,-3.5504,-3.5504,-3.5439,-3.5326,-3.5213,-3.5261,0.0,-3.5359,-3.5439,-3.5504,0.0,-3.5504,-3.5504,0.0,0.0,0.0,-3.5504,-3.5504,0.0,0.0,-3.461,-3.4211,-3.3837,-3.3457,-3.3178,-3.3178,-3.3178,-3.3178,-3.3178,-3.2897,-3.2506,-3.2137,-3.1786,-3.1394,-3.1048,-3.1334,-3.1468,-3.131,-3.1859,-3.2374,-3.2626,-3.2484,-3.2005,-3.1064,-3.0666,-3.0203,-2.9631,-3.0839,-3.1485,-3.1485,-3.2707,-3.329,-3.329,-3.3577,-3.3997,-3.4509,-3.4509,-3.4776,-3.5285,-3.5023,-3.5041,-3.5285,-3.5023,-3.5382,-3.6022,-3.5219,-3.5479,-3.6352,-3.6242,-3.6054,-3.5976,0.0,0.0,0.0,0.0,0.0,0.0,0.0,0.0,-3.8202,-3.8202,-3.8329,-3.8441,-3.8441,-3.8441,-3.8366,-3.8202,-3.824,-3.8329,-3.8478,-3.8553,-3.8738,-3.9068,-3.9104,-3.9177,-3.9388,-3.9388,-3.9388,-3.9388,-3.9388,-3.9065,-3.8377,-3.7719,-3.7075,-3.6462,0.0,0.0,0.0,0.0,0.0,-3.5504,0.0,-3.5504,-3.5504,-3.5504,-3.5504,-3.5504,-3.5504,-3.5392,-3.5213,-3.5082,-3.5115,-3.5261,-3.5261,-3.5359,0.0,0.0,0.0,0.0,0.0,0.0,0.0,-3.5504,-3.5504,-3.5326,0.0,0.0,0.0,-3.3782,-3.3644,-3.3644,-3.3644,-3.3644,-3.3644,-3.3644,-3.3506,-3.3422,-3.3422,-3.2883,-3.2268,-3.1505,-3.1955,-3.2232,-3.1982,-3.2698,-3.3259,-3.3527,-3.2929,-3.2131,-3.1067,-3.0688,-3.0323,-2.9924,-3.1043,-3.1669,-3.1801,-3.3002,-3.3612,-3.3612,-3.3716,-3.4201,-3.5041,-3.471,-3.5041,-3.5816,-3.5382,-3.5447,-3.5816,-3.5382,-3.572,-3.646,-3.5911,-3.6179,-3.6908,-3.6984,-3.68,-3.66,-3.8202,-3.8202,0.0,0.0,0.0,0.0,0.0,0.0,-3.8202,-3.8202,-3.8202,-3.824,-3.824,-3.824,-3.8202,0.0,-3.8366,-3.8478,-3.8478,-3.8649,-3.887,-3.9104,-3.9104,-3.9177,-3.9388,-3.9388,-3.9388,-3.9388,-3.9388,-3.9065,-3.8377,-3.7719,-3.7075,0.0,-3.5804,0.0,0.0,0.0,-3.5504,0.0,-3.5504,-3.5504,-3.5504,-3.5504,-3.5504,-3.5504,-3.5504,-3.5504,-3.5472,-3.5439,-3.5439,-3.5472,-3.5472,-3.5472,-3.5504,-3.5504,0.0,0.0,0.0,0.0,-3.5504,-3.5504,-3.5504,-3.5472,-3.5392,0.0,-3.5359,-3.5261,0.0,-3.5261,-3.5261,0.0,0.0,-3.5261,-3.4658,-3.4177,-3.4177,-3.4095,-3.3788,-3.3052,-3.3003,-3.3108,-3.3262,-3.3802,-3.4283,-3.4688,-3.3713,-3.3068,-3.291,-3.1381,-3.068,-3.1005,-3.1743,-3.2359,-3.2834,-3.4079,-3.4725,-3.471,-3.5187,-3.5479,-3.5623,-3.6053,-3.6289,-3.6398,-3.6352,-3.6352,-3.6383,-3.6352,-3.6383,-3.646,-3.5911,-3.6053,-3.6585,-3.6877,-3.6969,-3.6984,-3.8202,-3.8202,0.0,0.0,0.0,0.0,0.0,0.0,-3.8202,-3.8202,-3.8202,-3.8202,-3.8202,0.0,0.0,0.0,0.0,-3.8366,0.0,-3.8686,-3.8819,-3.8907,-3.9141,-3.9265,-3.9228,-3.9337,-3.9388,-3.9388,-3.9388,-3.8871,-3.7808,-3.7539,-3.6881,0.0,-3.5624,0.0,-3.5472,0.0,-3.5052,0.0,0.0,-3.5085,-3.5504,-3.5504,-3.5504,-3.5504,-3.5504,-3.5504,-3.5504,-3.5504,-3.5504,-3.5504,-3.5504,-3.5504,0.0,-3.5504,0.0,0.0,0.0,0.0,-3.5504,-3.5504,-3.5504,-3.5504,-3.5504,-3.5504,-3.5504,-3.5504,0.0,0.0,0.0,0.0,0.0,0.0,-3.5213,-3.4986,-3.4986,-3.4986,-3.4591,-3.3506,-3.3734,-3.4109,-3.4413,-3.4547,-3.4714,-3.4844,-3.4127,-3.348,-3.3086,-3.2356,-3.2019,-3.2238,-3.2881,-3.336,-3.3583,-3.4466,-3.4909,-3.4909,-3.5121,-3.5382,-3.572,-3.5926,-3.6226,-3.6492,-3.6492,-3.6492,-3.6492,-3.6492,-3.6492,-3.6492,-3.6258,-3.6289,-3.6523,-3.6662,-3.6724,-3.6724,-3.8202,0.0,0.0,0.0,0.0,0.0,0.0,0.0,-3.8202,-3.8202,-3.8202,-3.8144,-3.797,-3.8101,0.0,0.0,-3.8101,-3.824,0.0,0.0,-3.8723,-3.8723,-3.9104,0.0,-3.9104,-3.9301,-3.9388,-3.9388,-3.923,-3.8542,-3.7404,-3.724,-3.6567,-3.5504,0.0,-3.5504,-3.5472,0.0,-3.4986,-3.5424,-3.461,-3.4543,-3.4935,-3.5326,-3.5504,-3.5504,-3.5504,-3.5504,-3.5504,-3.5504,-3.5504,-3.5504,-3.5504,-3.5504,-3.5504,0.0,0.0,0.0,-3.5504,-3.5504,-3.5504,-3.5504,-3.5504,-3.5504,-3.5504,-3.5504,-3.5504,-3.5504,-3.5504,0.0,0.0,0.0,-3.5504,-3.5504,0.0,-3.5504,-3.5504,-3.5504,-3.5148,-3.4153,-3.461,-3.5073,-3.532,-3.535,-3.5317,-3.5275,-3.4775,-3.4265,-3.3759,-3.3441,-3.3337,-3.3462,-3.3953,-3.4284,-3.441,-3.5021,-3.535,-3.535,-3.535,-3.5544,-3.5926,-3.5926,-3.6116,-3.6492,-3.6492,-3.6492,-3.6492,-3.6492,-3.6492,-3.6492,-3.6492,-3.6492,-3.6492,-3.6492,-3.6492,-3.6492,-3.8202,-3.8202,0.0,0.0,0.0,0.0,0.0,0.0,-3.8202,-3.8202,-3.8202,0.0,0.0,0.0,0.0,0.0,0.0,-3.8202,-3.8202,0.0,-3.8516,0.0,0.0,-3.9104,0.0,-3.9301,-3.9388,-3.9388,-3.8751,-3.8078,-3.7404,-3.6791,-3.6148,-3.5504,-3.5504,-3.5504,-3.5504,-3.5472,-3.5472,-3.5424,-3.461,-3.3905,-3.3437,-3.4935,-3.5504,-3.5504,-3.5504,-3.5504,-3.5504,-3.5504,-3.5504,-3.5504,-3.5504,-3.5504,-3.5504,-3.5504,-3.5504,-3.5504,-3.5504,-3.5504,-3.5504,-3.5504,-3.5504,-3.5504,-3.5504,-3.5504,-3.5504,-3.5504,-3.5504,-3.5504,-3.5504,-3.5504,-3.5504,-3.5504,-3.5504,0.0,0.0,-3.5504,-3.5472,-3.5439,-3.5733,-3.5973,-3.5973,-3.6258,-3.6445,-3.6461,-3.5959,-3.5642,-3.5612,-3.4565,-3.4176,-3.4632,-3.4724,-3.4987,-3.5446,-3.6122,-3.646,-3.646,-3.646,-3.646,-3.646,-3.646,-3.6492,-3.6492,-3.6492,-3.6492,-3.6492,-3.6492,-3.6492,-3.6492,-3.6492,-3.6492,-3.6492,-3.6492,-3.6492,-3.6492,0.0,0.0,0.0,0.0,0.0,0.0,0.0,-3.8202,0.0,0.0,-3.8202,0.0,0.0,-3.8086,-3.813,0.0,0.0,-3.8202,-3.8202,-3.8404,0.0,0.0,0.0,-3.9031,0.0,0.0,-3.9388,-3.9388,-3.8736,-3.8063,-3.7404,-3.6776,-3.6133,0.0,0.0,-3.5198,0.0,0.0,0.0,0.0,0.0,-3.3422,-3.3318,-3.4327,-3.4725,-3.4791,-3.5326,-3.5504,-3.5504,-3.5504,-3.5504,-3.5504,-3.5504,-3.5504,-3.5504,-3.5504,-3.5504,-3.5504,-3.5504,-3.5504,-3.5504,-3.5504,-3.5504,-3.5504,-3.5504,-3.5504,-3.5504,-3.5504,-3.5504,-3.5504,-3.5504,-3.5504,-3.5504,-3.5504,-3.5504,-3.5504,0.0,-3.5504,-3.5522,-3.5621,-3.5926,-3.6148,-3.6148,-3.6352,-3.6492,-3.6492,-3.632,-3.6226,-3.6226,-3.5872,-3.5718,-3.589,-3.5921,-3.6014,-3.6153,-3.6384,-3.6492,-3.6492,-3.6492,-3.6492,-3.6492,-3.6492,-3.6492,-3.6492,-3.6492,-3.6492,-3.6492,-3.6492,-3.6492,-3.6492,-3.6492,-3.6492,-3.6492,-3.6492,-3.6492,-3.6492,-3.7271,0.0,0.0,0.0,0.0,0.0,0.0,0.0,0.0,0.0,-3.8,0.0,-3.7912,0.0,-3.8115,0.0,-3.8086,-3.8115,-3.7897,-3.8287,0.0,-3.7897,-3.8657,-3.9017,0.0,0.0,0.0,0.0,0.0,-3.7823,0.0,0.0,0.0,0.0,0.0,-3.5198,-3.4691,-3.3905,-3.3596,0.0,0.0,-3.2648,-3.2484,-3.3234,-3.3685,-3.3973,-3.4505,-3.4854,-3.5052,-3.5052,-3.5246,-3.5504,-3.5504,-3.5504,-3.5504,-3.5504,-3.5504,-3.5504,-3.5504,-3.5504,-3.5504,-3.5504,-3.5504,-3.5504,-3.5504,-3.5504,-3.5504,-3.5504,-3.5504,-3.5504,-3.5504,-3.5504,-3.5504,-3.5504,-3.5504,-3.5504,0.0,-3.5554,-3.5589,-3.5688,-3.5943,-3.6148,-3.6211,-3.6383,-3.6492,-3.6492,-3.6492,-3.6492,-3.6492,-3.6492,-3.6492,-3.6492,-3.6492,-3.6492,-3.6492,-3.6492,-3.6492,-3.6492,-3.6492,-3.6492,-3.6492,-3.6492,-3.6492,-3.6492,-3.6492,-3.6492,-3.6492,-3.6492,-3.6492,-3.6492,-3.6492,-3.6492,-3.6492,-3.6492,-3.6492,-3.6492,-3.5615,0.0,0.0,0.0,-3.6108,0.0,0.0,-3.632,-3.6858,0.0,-3.7606,-3.791,-3.733,-3.7817,-3.797,-3.7404,-3.7883,-3.7955,-3.7389,-3.8046,0.0,0.0,-3.8451,-3.898,-3.8819,0.0,0.0,0.0,0.0,0.0,0.0,0.0,0.0,0.0,-3.5504,0.0,-3.5392,-3.461,-3.4279,-3.4061,-3.267,-3.1676,-3.1099,-3.1773,-3.247,-3.3108,-3.3178,-3.3665,-3.4245,-3.4279,-3.4791,-3.5439,-3.5504,-3.5504,-3.5504,-3.5504,-3.5504,-3.5504,-3.5504,-3.5504,-3.5504,-3.5504,-3.5504,-3.5504,-3.5504,-3.5504,-3.5504,-3.5504,-3.5504,-3.5504,-3.5504,-3.5504,-3.5504,-3.5504,-3.5504,-3.5504,-3.5504,-3.5621,-3.5688,-3.572,-3.5863,-3.6053,0.0,-3.6383,-3.6492,-3.6492,-3.6492,-3.6492,-3.6492,-3.6492,-3.6492,-3.6492,-3.6492,-3.6492,-3.6492,-3.6492,-3.6492,-3.6492,-3.6492,-3.6492,-3.6492,-3.6492,-3.6492,-3.6492,-3.6492,-3.6492,-3.6492,-3.6492,-3.6492,-3.6492,-3.6492,-3.6492,-3.6492,-3.6492,-3.6492,-3.6492,-3.5615,-3.5128,-3.4786,0.0,-3.5359,-3.5615,-3.5615,-3.5775,-3.5949,0.0,-3.6674,-3.719,-3.7009,-3.7724,-3.8144,-3.7984,-3.8115,0.0,0.0,0.0,0.0,-3.817,-3.8635,-3.8907,-3.9017,-3.9265,-3.9388,-3.9388,0.0,0.0,-3.7375,0.0,0.0,0.0,0.0,0.0,-3.461,-3.438,-3.3685,-3.2635,-3.2254,-3.1676,-3.1024,-3.1222,-3.1394,-3.1726,-3.2804,-3.3318,-3.3561,-3.4109,-3.4461,-3.471,-3.5311,-3.5504,-3.5504,-3.5504,-3.5504,-3.5504,-3.5504,-3.5504,-3.5504,-3.5504,-3.5504,-3.5504,-3.5504,-3.5504,-3.5504,-3.5504,-3.5504,-3.5504,-3.5504,-3.5504,-3.5504,-3.5504,-3.5504,0.0,-3.5504,-3.5522,-3.5636,-3.591,-3.5973,-3.6053,-3.6179,-3.6383,-3.6492,-3.6492,-3.6492,-3.6492,-3.6492,-3.6492,-3.6492,-3.6492,-3.6492,-3.6492,-3.6492,-3.6492,-3.6492,-3.6492,-3.6492,-3.6492,-3.6492,-3.6492,-3.6492,-3.6492,-3.6492,-3.6492,-3.6492,-3.6492,-3.6492,-3.6492,-3.6492,-3.6492,-3.6492,-3.6492,-3.6492,-3.6492,-3.4511,-3.4121,0.0,-3.3823,-3.4204,-3.4511,-3.4511,-3.4841,-3.4981,-3.4714,-3.5996,-3.6799,-3.6557,-3.7524,-3.8202,-3.8202,-3.8202,0.0,-3.7825,0.0,0.0,-3.8106,-3.8649,-3.898,-3.9104,-3.9301,0.0,-3.9388,0.0,0.0,-3.7375,0.0,0.0,0.0,0.0,-3.5052,-3.4279,-3.3973,-3.2967,-3.164,-3.1978,-3.1676,0.0,-3.0986,-3.0986,-3.1099,-3.1932,-3.2448,-3.2791,-3.3199,-3.3754,-3.438,-3.4824,-3.5213,-3.5504,-3.5504,-3.5504,-3.5504,-3.5504,-3.5504,-3.5504,-3.5504,-3.5504,-3.5504,-3.5504,-3.5504,-3.5504,-3.5504,-3.5504,-3.5504,-3.5504,-3.5504,-3.5504,-3.5504,-3.5504,-3.5504,-3.5504,-3.5554,0.0,-3.5973,-3.6053,-3.6148,-3.632,-3.6414,-3.6492,-3.6492,-3.6492,-3.6492,-3.6492,-3.6492,-3.6492,-3.6492,-3.6492,-3.6492,-3.6492,-3.6492,-3.6492,-3.6492,-3.6492,-3.6492,-3.6492,-3.6492,-3.6492,-3.6492,-3.6492,-3.6492,-3.6492,-3.6492,-3.6492,-3.6492,-3.6492,-3.6492,-3.6492,-3.6492,-3.6492,-3.6492,-3.3056,0.0,0.0,0.0,0.0,-3.3124,-3.3124,-3.3738,-3.4048,-3.3528,-3.529,-3.6376,-3.5924,-3.7073,-3.7886,-3.7924,-3.7924,-3.7745,-3.7374,-3.7986,-3.8193,-3.782,-3.8626,-3.9104,-3.9141,-3.9301,-3.9388,0.0,0.0,0.0,0.0,0.0,0.0,0.0,0.0,0.0,0.0,-3.3665,-3.2591,-3.1468,-3.2015,-3.1809,-3.1123,-3.1061,-3.0986,-3.0986,-3.0986,-3.1394,-3.1978,-3.2087,-3.2953,-3.4027,-3.4143,-3.4691,-3.5344,-3.5344,-3.5439,-3.5504,-3.5504,-3.5504,-3.5504,-3.5504,-3.5504,-3.5504,-3.5504,-3.5504,-3.5504,-3.5504,-3.5504,-3.5504,-3.5504,-3.5504,-3.5504,-3.5504,-3.5504,-3.5504,-3.5504,0.0,0.0,0.0,-3.6085,0.0,-3.6445,-3.6492,-3.6492,-3.6492,-3.6492,-3.6492,-3.6492,-3.6492,-3.6492,-3.6492,-3.6492,-3.6492,-3.6492,-3.6492,-3.6492,-3.6492,-3.6492,-3.6492,-3.6492,-3.6492,-3.6492,-3.6492,-3.6492,-3.6492,-3.6492,-3.6492,-3.6492,-3.6492,-3.6492,-3.6492,-3.6492,-3.6492,-3.6492,-3.6492,-3.298,0.0,0.0,0.0,0.0,-3.3124,-3.3124,-3.324,-3.3288,-3.3186,-3.4152,-3.48,-3.4694,-3.5494,-3.6148,-3.6373,-3.6373,-3.6738,-3.7501,-3.7663,0.0,-3.8796,-3.9009,-3.9177,-3.9337,-3.9388,-3.9388,0.0,0.0,0.0,0.0,0.0,0.0,0.0,0.0,0.0,-3.5246,-3.4428,-3.3973,-3.3685,-3.3213,-3.2577,-3.1846,-3.1222,-3.0986,-3.0986,-3.0986,-3.1086,-3.1296,-3.1905,-3.2254,-3.2599,-3.3213,-3.3905,-3.4495,-3.4495,-3.4986,-3.5504,-3.5504,-3.5504,-3.5504,-3.5504,-3.5504,-3.5504,-3.5504,-3.5504,-3.5504,-3.5504,-3.5504,-3.5504,-3.5504,-3.5504,-3.5504,-3.5504,-3.5504,-3.5504,-3.5504,-3.5537,0.0,0.0,-3.5926,-3.6085,-3.6242,-3.6383,-3.6492,-3.6492,-3.6492,-3.6492,-3.6492,-3.6492,-3.6492,-3.6492,-3.6492,-3.6492,-3.6492,-3.6492,-3.6492,-3.6492,-3.6492,-3.6492,-3.6492,-3.6492,-3.6492,-3.6492,-3.6492,-3.6492,-3.6492,-3.6492,-3.6492,-3.6492,-3.6492,-3.6492,-3.6492,-3.6492,-3.6492,-3.6492,-3.2968,0.0,0.0,0.0,-3.3124,-3.3124,-3.3124,-3.3124,-3.2968,-3.2667,-3.3672,-3.428,-3.3966,-3.4928,-3.5709,-3.599,-3.636,-3.6908,-3.7567,-3.8113,-3.8598,-3.9068,-3.9177,-3.9301,-3.9388,-3.9388,-3.9388,-3.9388,-3.8736,-3.8227,0.0,0.0,0.0,0.0,0.0,-3.4872,0.0,-3.4056,-3.3512,-3.3129,-3.2777,-3.2196,-3.1492,-3.1123,-3.0986,-3.0986,-3.0986,-3.0986,-3.1048,-3.1394,-3.2028,-3.272,-3.3073,-3.3988,-3.4905,-3.4905,-3.5213,-3.5504,-3.5504,-3.5504,-3.5504,-3.5504,-3.5504,-3.5504,-3.5504,-3.5504,-3.5504,-3.5504,-3.5504,-3.5504,-3.5504,-3.5504,-3.5504,-3.5504,-3.5504,-3.5504,-3.5504,-3.5504,-3.5554,0.0,0.0,0.0,-3.6179,-3.6383,-3.6492,-3.6492,-3.6492,-3.6492,-3.6492,-3.6492,-3.6492,-3.6492,-3.6492,-3.6492,-3.6492,-3.6492,-3.6492,-3.6492,-3.6492,-3.6492,-3.6492,-3.6492,-3.6492,-3.6492,-3.6492,-3.6492,-3.6492,-3.6492,-3.6492,-3.6492,-3.6492,-3.6492,-3.6492,-3.6492,-3.6492,-3.6492,0.0,-3.3124,0.0,0.0,-3.3124,-3.3124,-3.3124,-3.3154,-3.2991,-3.2453,-3.3402,-3.3978,-3.3539,-3.4631,-3.5548,-3.5816,-3.6582,-3.7256,-3.7682,-3.8449,-3.8995,-3.9141,-3.9301,-3.9388,-3.9388,-3.9388,-3.9388,-3.9388,-3.8871,-3.8467,-3.8167,0.0,0.0,0.0,-3.5307,-3.4821,-3.4889,-3.4025,-3.341,-3.2971,-3.2525,-3.1992,-3.1445,-3.1123,-3.0986,-3.0986,-3.0986,-3.0986,-3.0986,-3.0986,-3.1896,-3.3003,-3.3143,-3.4138,-3.5246,-3.5246,-3.5359,-3.5504,-3.5504,-3.5504,-3.5504,-3.5504,-3.5504,-3.5504,-3.5504,-3.5504,-3.5504,-3.5504,-3.5504,-3.5504,-3.5504,-3.5504,-3.5504,-3.5504,-3.5504,-3.5504,-3.5554,-3.5537,-3.5587,0.0,0.0,0.0,-3.6179,-3.6383,-3.6492,-3.6492,-3.6492,-3.6492,-3.6492,-3.6492,-3.6492,-3.6492,-3.6492,-3.6492,-3.6492,-3.6492,-3.6492,-3.6492,-3.6492,-3.6492,-3.6492,-3.6492,-3.6492,-3.6492,-3.6492,-3.6492,-3.6492,-3.6492,-3.6492,-3.6492,-3.6492,-3.6492,-3.6492,-3.6492,-3.6492,-3.6492,0.0,0.0,-3.3124,-3.3124,-3.3124,-3.3124,-3.3124,-3.324,-3.33,-3.3048,-3.3129,-3.3258,-3.3407,-3.4236,-3.4938,-3.5346,-3.6174,-3.7102,-3.8089,-3.824,-3.8612,-3.9337,-3.9388,-3.9388,-3.9388,-3.9388,-3.9388,-3.9388,-3.9349,-3.8691,-3.7509,-3.8048,-3.7943,-3.728,-3.6465,-3.647,-3.7029,-3.5672,-3.5473,-3.5895,-3.3907,-3.3052,-3.284,-3.1519,-3.0986,-3.0986,-3.0986,-3.0986,-3.0986,-3.0986,-3.1542,-3.2326,-3.3003,-3.3768,-3.4413,-3.4413,-3.4938,-3.5504,-3.5504,-3.5504,-3.5504,-3.5504,-3.5504,-3.5504,-3.5504,-3.5504,-3.5504,-3.5504,-3.5504,-3.5504,-3.5504,-3.5504,-3.5504,-3.5504,-3.5504,-3.5554,-3.5671,-3.5572,-3.5619,-3.5941,0.0,0.0,-3.6179,-3.6383,-3.6492,-3.6492,-3.6492,-3.6492,-3.6492,-3.6492,-3.6492,-3.6492,-3.6492,-3.6492,-3.6492,-3.6492,-3.6492,-3.6492,-3.6492,-3.6492,-3.6492,-3.6492,-3.6492,-3.6492,-3.6492,-3.6492,-3.6492,-3.6492,-3.6492,-3.6492,-3.6492,-3.6492,-3.6492,-3.6492,-3.6492,-3.6492,-3.3048,-3.3124,-3.3124,-3.3124,-3.3124,-3.3124,-3.3124,-3.3154,-3.3197,-3.3124,-3.3313,-3.3471,-3.3556,-3.4345,-3.4979,-3.5264,-3.6529,-3.7577,-3.8165,-3.8664,-3.9068,-3.9388,-3.9388,-3.9388,-3.9388,-3.9388,-3.9388,-3.9388,-3.9388,-3.9155,-3.8631,-3.8886,-3.8646,-3.7973,-3.7258,-3.7114,-3.7321,-3.6333,-3.6091,-3.623,-3.4385,-3.3615,-3.3477,-3.202,-3.1496,-3.1457,-3.1104,-3.0986,-3.1123,-3.2028,-3.2519,-3.2791,-3.3108,-3.4036,-3.5019,-3.5019,-3.5246,-3.5504,-3.5504,-3.5504,-3.5504,-3.5504,-3.5504,-3.5504,-3.5504,-3.5504,-3.5504,-3.5504,-3.5504,-3.5504,-3.5504,-3.5504,-3.5504,-3.5504,-3.5504,-3.5537,-3.5572,-3.5589,-3.5686,-3.5799,0.0,-3.6148,-3.6196,-3.6383,-3.6492,-3.6492,-3.6492,-3.6492,-3.6492,-3.6492,-3.6492,-3.6492,-3.6492,-3.6492,-3.6492,-3.6492,-3.6492,-3.6492,-3.6492,-3.6492,-3.6492,-3.6492,-3.6492,-3.6492,-3.6492,-3.6492,-3.6492,-3.6492,-3.6492,-3.6492,-3.6492,-3.6492,-3.6492,-3.6492,-3.6492,-3.6492,-3.3006,-3.3124,-3.3124,-3.3124,-3.3124,-3.3124,-3.3197,-3.324,-3.3313,-3.3368,-3.3683,-3.3839,-3.3725,-3.4553,-3.5183,-3.54,-3.6933,-3.8023,-3.8202,-3.8958,-3.9388,-3.9388,-3.9388,-3.9388,-3.9388,-3.9388,-3.9388,-3.9388,-3.9388,-3.932,-3.9125,-3.9125,-3.896,-3.8676,-3.8212,-3.8003,-3.7953,-3.7205,-3.694,-3.6769,-3.5235,-3.4594,-3.4477,-3.3265,-3.2814,-3.276,-3.2383,-3.2235,-3.2371,-3.3439,-3.3938,-3.4093,-3.3945,-3.4606,-3.5504,-3.5504,-3.5504,-3.5504,-3.5504,-3.5504,-3.5504,-3.5504,-3.5504,-3.5504,-3.5504,-3.5504,-3.5504,-3.5504,-3.5504,-3.5504,-3.5504,-3.5504,-3.5504,-3.5504,-3.5504,-3.5504,-3.5539,-3.5638,-3.5752,-3.5847,-3.607,-3.6211,-3.6274,-3.6414,-3.6492,-3.6492,-3.6492,-3.6492,-3.6492,-3.6492,-3.6492,-3.6492,-3.6492,-3.6492,-3.6492,-3.6492,-3.6492,-3.6492,-3.6492,-3.6492,-3.6492,-3.6492,-3.6492,-3.6492,-3.6492,-3.6492,-3.6492,-3.6492,-3.6492,-3.6492,-3.6492,-3.6492,-3.6492,-3.6492,-3.6492,-3.6492,-3.3124,-3.3124,-3.3124,-3.3124,-3.3124,-3.3154,-3.3356,-3.3556,-3.381,-3.4034,-3.4285,-3.423,-3.3755,-3.4664,-3.5386,-3.5655,-3.7208,-3.8202,-3.8202,-3.8958,-3.9388,-3.9388,-3.9388,-3.9388,-3.9388,-3.9388,-3.9388,-3.9388,-3.9388,-3.9065,-3.8407,-3.8407,-3.8766,-3.9373,-3.9394,-3.9394,-3.9313,-3.8661,-3.8377,-3.8247,-3.684,-3.6257,-3.6186,-3.5457,-3.515,-3.515,-3.515,-3.515,-3.515,-3.5187,-3.5675,-3.6166,-3.5629,-3.5472,-3.5504,-3.5504,-3.5504,-3.5504,-3.5504,-3.5504,-3.5504,-3.5504,-3.5504,-3.5504,-3.5504,-3.5504,-3.5504,-3.5504,-3.5504,-3.5504,-3.5504,-3.5504,-3.5504,-3.5504,-3.5504,-3.5554,-3.5688,-3.5688,-3.5816,-3.6164,-3.6196,-3.6274,-3.6492,-3.6492,-3.6492,-3.6492,-3.6492,-3.6492,-3.6492,-3.6492,-3.6492,-3.6492,-3.6492,-3.6492,-3.6492,-3.6492,-3.6492,-3.6492,-3.6492,-3.6492,-3.6492,-3.6492,-3.6492,-3.6492,-3.6492,-3.6492,-3.6492,-3.6492,-3.6492,-3.6492,-3.6492,-3.6492,-3.6492,-3.6492,-3.6492,-3.6492,-3.4787,-3.491,-3.502,-3.502,-3.4664,-3.4428,-3.447,-3.4037,-3.3725,-3.381,-3.4021,-3.416,-3.3992,-3.4937,-3.5615,-3.5709,-3.6674,-3.7591,-3.8165,-3.8427,-3.8811,-3.9388,-3.9388,-3.9388,-3.9388,-3.9388,-3.9388,-3.9388,-3.9388,-3.9305,-3.9095,-3.9095,-3.9215,-3.9388,-3.9388,-3.9388,-3.9373,-3.9185,-3.9095,-3.8994,-3.7996,-3.7593,-3.7461,-3.6258,-3.5827,-3.577,-3.5356,-3.5201,-3.5274,-3.5762,-3.61,-3.6376,-3.6688,-3.6806,-3.6716,-3.6297,-3.6178,-3.6073,-3.5624,-3.5504,-3.5504,-3.5504,-3.5504,-3.5504,-3.5504,-3.5504,-3.5504,-3.5504,-3.5504,-3.5504,-3.5504,-3.5504,-3.5504,-3.5504,-3.5504,-3.5504,-3.5554,-3.5638,-3.5784,-3.6022,-3.6148,-3.6274,-3.6492,-3.6492,-3.6492,-3.6492,-3.6492,-3.6492,-3.6492,-3.6492,-3.6492,-3.6492,-3.6492,-3.6492,-3.6492,-3.6492,-3.6492,-3.6492,-3.6492,-3.6492,-3.6492,-3.6492,-3.6492,-3.6492,-3.6492,-3.6492,-3.6492,-3.6492,-3.6492,-3.6492,-3.6492,-3.6492,-3.6492,-3.6492,-3.6492,-3.6492,-3.5615,-3.5695,-3.5815,-3.5895,-3.5574,-3.5427,-3.5574,-3.4869,-3.4358,-3.4454,-3.4592,-3.4716,-3.4716,-3.5575,-3.6042,-3.5749,-3.6713,-3.763,-3.8165,-3.8464,-3.8885,-3.9388,-3.9388,-3.9388,-3.9388,-3.9388,-3.9388,-3.9388,-3.9388,-3.9388,-3.9388,-3.9388,-3.9388,-3.9388,-3.9388,-3.9388,-3.9388,-3.9388,-3.9388,-3.9352,-3.8848,-3.8664,-3.8531,-3.7664,-3.7356,-3.7298,-3.6916,-3.6772,-3.6845,-3.7308,-3.7466,-3.7538,-3.8027,-3.8167,-3.7988,-3.709,-3.6836,-3.6746,-3.6327,-3.6222,-3.6222,-3.6222,-3.6222,-3.6163,-3.5923,-3.5878,-3.5804,-3.5549,-3.5504,-3.5504,-3.5504,-3.5554,-3.5572,-3.5572,-3.5651,-3.5683,-3.5683,-3.5814,-3.5911,-3.6053,-3.6226,-3.6352,-3.6492,-3.6492,-3.6492,-3.6492,-3.6492,-3.6492,-3.6492,-3.6492,-3.6492,-3.6492,-3.6492,-3.6492,-3.6492,-3.6492,-3.6492,-3.6492,-3.6492,-3.6492,-3.6492,-3.6492,-3.6492,-3.6492,-3.6492,-3.6492,-3.6492,-3.6492,-3.6492,-3.6492,-3.6492,-3.6492,-3.6492,-3.6492,-3.6492,-3.6492,-3.5775,-3.5815,-3.5895,-3.6094,-3.6094,-3.6213,-3.6646,-3.5935,-3.544,-3.5655,-3.5669,-3.5629,-3.5709,-3.6425,-3.6621,-3.5936,-3.7246,-3.8127,-3.8202,-3.8885,-3.9337,-3.9388,-3.9388,-3.9388,-3.9388,-3.9388,-3.9388,-3.9388,-3.9388,-3.9388,-3.9388,-3.9388,-3.9388,-3.9388,-3.9388,-3.9388,-3.9388,-3.9388,-3.9388,-3.9388,-3.9388,-3.9388,-3.9388,-3.9388,-3.9388,-3.9388,-3.9388,-3.9388,-3.9388,-3.9388,-3.9388,-3.9388,-3.9388,-3.9388,-3.917,-3.7853,-3.7479,-3.7464,-3.7419,-3.7404,-3.7404,-3.7404,-3.7404,-3.7255,-3.6686,-3.6552,-3.6372,-3.5759,-3.5639,-3.5639,-3.5639,-3.5724,-3.5823,-3.5823,-3.5999,-3.611,-3.6142,-3.6223,-3.6272,-3.6272,-3.6382,-3.6492,-3.6492,-3.6492,-3.6492,-3.6492,-3.6492,-3.6492,-3.6492,-3.6492,-3.6492,-3.6492,-3.6492,-3.6492,-3.6492,-3.6492,-3.6492,-3.6492,-3.6492,-3.6492,-3.6492,-3.6492,-3.6492,-3.6492,-3.6492,-3.6492,-3.6492,-3.6492,-3.6492,-3.6492,-3.6492,-3.6492,-3.6492,-3.6492,-3.6492,-3.6492,-3.7834,-3.8046,-3.8308,-3.8345,-3.7971,-3.7668,-3.7796,-3.657,-3.5615,-3.5709,-3.5114,-3.495,-3.5629,-3.6425,-3.7102,-3.7567,-3.7347,-3.7501,-3.8165,-3.8389,-3.8775,-3.9373,-3.9388,-3.9388,-3.9388,-3.9388,-3.9388,-3.9388,-3.9388,-3.9388,-3.9388,-3.9388,-3.9388,-3.9388,-3.9388,-3.9388,-3.9388,-3.9388,-3.9388,-3.9388,-3.9388,-3.9388,-3.9388,-3.9388,-3.9388,-3.9388,-3.9388,-3.9388,-3.9388,-3.9388,-3.9388,-3.9388,-3.9388,-3.9388,-3.926,-3.8407,-3.8153,-3.8048,-3.7539,-3.7404,-3.7404,-3.7404,-3.7404,-3.7375,-3.7225,-3.7195,-3.715,-3.6985,-3.6956,-3.6956,-3.6956,-3.6989,-3.7042,-3.7191,-3.7273,-3.734,-3.7491,-3.7116,-3.6846,-3.6943,-3.6548,-3.6352,-3.6492,-3.6492,-3.6492,-3.6492,-3.6492,-3.6492,-3.6492,-3.6492,-3.6492,-3.6492,-3.6492,-3.6492,-3.6492,-3.6492,-3.6492,-3.6492,-3.6492,-3.6492,-3.6492,-3.6492,-3.6492,-3.6492,-3.6492,-3.6492,-3.6492,-3.6492,-3.6492,-3.6492,-3.6492,-3.6492,-3.6492,-3.6492,-3.6492,-3.6492,-3.8664,-3.8797,-3.898,-3.9068,-3.8833,-3.8649,-3.8738,-3.7682,-3.6858,-3.6858,-3.6413,-3.6334,-3.678,-3.7577,-3.8234,-3.8701,-3.8323,-3.8234,-3.8738,-3.8738,-3.8922,-3.9388,-3.9388,-3.9388,-3.9388,-3.9388,-3.9388,-3.9388,-3.9388,-3.9388,-3.9388,-3.9388,-3.9388,-3.9388,-3.9388,-3.9388,-3.9388,-3.9388,-3.9388,-3.9388,-3.9388,-3.9388,-3.9388,-3.9388,-3.9388,-3.9388,-3.9388,-3.9388,-3.9388,-3.9388,-3.9388,-3.9388,-3.9388,-3.9388,-3.9313,-3.8975,-3.8856,-3.8781,-3.8422,-3.8332,-3.8332,-3.8332,-3.8387,-3.8347,-3.7963,-3.7992,-3.8019,-3.7616,-3.7624,-3.7677,-3.7677,-3.776,-3.7842,-3.7958,-3.801,-3.8111,-3.8211,-3.7923,-3.7726,-3.7776,-3.7487,-3.7304,-3.7415,-3.7138,-3.6953,-3.6953,-3.6661,-3.6492,-3.6492,-3.6492,-3.6492,-3.6492,-3.6492,-3.6492,-3.6492,-3.6492,-3.6492,-3.6492,-3.6492,-3.6492,-3.6492,-3.6492,-3.6492,-3.6492,-3.6492,-3.6492,-3.6492,-3.6492,-3.6492,-3.6492,-3.6492,-3.6492,-3.6492,-3.6492,-3.6492,-3.6492,-3.887,-3.887,-3.8943,-3.9104,-3.9141,-3.9177,-3.9373,-3.8738,-3.8202,-3.8202,-3.8089,-3.8037,-3.8202,-3.8811,-3.9265,-3.9388,-3.9388,-3.9388,-3.9388,-3.9388,-3.9388,-3.9388,-3.9388,-3.9388,-3.9388,-3.9388,-3.9388,-3.9388,-3.9388,-3.9388,-3.9388,-3.9388,-3.9388,-3.9388,-3.9388,-3.9388,-3.9388,-3.9388,-3.9388,-3.9388,-3.9388,-3.9388,-3.9388,-3.9388,-3.9388,-3.9388,-3.9388,-3.9388,-3.9388,-3.9388,-3.9388,-3.9388,-3.9388,-3.9388,-3.9388,-3.9388,-3.9388,-3.9388,-3.9388,-3.9388,-3.9388,-3.9388,-3.9517,-3.9474,-3.8712,-3.8837,-3.8895,-3.8148,-3.8179,-3.8314,-3.8314,-3.8431,-3.858,-3.8613,-3.8698,-3.8782,-3.8782,-3.8723,-3.8662,-3.8662,-3.8569,-3.8508,-3.8508,-3.8,-3.7646,-3.7646,-3.703,-3.6645,-3.6645,-3.6538,-3.6492,-3.6492,-3.6492,-3.6492,-3.6492,-3.6492,-3.6492,-3.6492,-3.6492,-3.6492,-3.6492,-3.6492,-3.6492,-3.6492,-3.6492,-3.6492,-3.6492,-3.6492,-3.6492,-3.6492,-3.6492,-3.6492,-3.6492,-3.6492,-3.6492,-3.6492,-3.9068,-3.9177,-3.9301,-3.9337,-3.9337,-3.9337,-3.9388,-3.8738,-3.8202,-3.8202,-3.7539,-3.7372,-3.8113,-3.8315,-3.8664,-3.9337,-3.9388,-3.9388,-3.9388,-3.9388,-3.9388,-3.9388,-3.9388,-3.9388,-3.9388,-3.9388,-3.9388,-3.9388,-3.9388,-3.9388,-3.9388,-3.9388,-3.9388,-3.9388,-3.9388,-3.9388,-3.9388,-3.9388,-3.9388,-3.9388,-3.9388,-3.9388,-3.9388,-3.9388,-3.9388,-3.9388,-3.9388,-3.9388,-3.9388,-3.9388,-3.9388,-3.9388,-3.9388,-3.9388,-3.9388,-3.9388,-3.9388,-3.9388,-3.9388,-3.9388,-3.9388,-3.9388,-3.9409,-3.9415,-3.929,-3.9424,-3.9536,-3.941,-3.9536,-3.9692,-3.9692,-3.9727,-3.9797,-3.9956,-4.0006,-4.006,-4.0182,-3.969,-3.9321,-3.9321,-3.8829,-3.8508,-3.8508,-3.8415,-3.8354,-3.8354,-3.7723,-3.7338,-3.7338,-3.6799,-3.6492,-3.6492,-3.6492,-3.6492,-3.6492,-3.6492,-3.6492,-3.6492,-3.6492,-3.6492,-3.6492,-3.6492,-3.6492,-3.6492,-3.6492,-3.6492,-3.6492,-3.6492,-3.6492,-3.6492,-3.6492,-3.6492,-3.6492,-3.6492,-3.6492,-3.6492,-3.9265,-3.9337,-3.9388,-3.9388,-3.9388,-3.9388,-3.9388,-3.9068,-3.8848,-3.8848,-3.8523,-3.8397,-3.8811,-3.8848,-3.901,-3.9388,-3.9388,-3.9388,-3.9388,-3.9388,-3.9388,-3.9388,-3.9388,-3.9388,-3.9388,-3.9388,-3.9388,-3.9388,-3.9388,-3.9388,-3.9388,-3.9388,-3.9388,-3.9388,-3.9388,-3.9388,-3.9388,-3.9388,-3.9388,-3.9388,-3.9388,-3.9388,-3.9388,-3.9388,-3.9388,-3.9388,-3.9388,-3.9388,-3.9388,-3.9388,-3.9388,-3.9388,-3.9388,-3.9388,-3.9388,-3.9388,-3.9388,-3.9388,-3.9388,-3.9388,-3.9388,-3.9388,-3.9481,-3.9553,-3.9553,-3.9803,-4.0016,-4.0016,-4.0156,-4.0261,-4.0261,-4.0261,-4.0296,-4.0401,-4.0401,-4.0436,-4.0489,-4.0228,-4.0028,-4.0028,-3.9751,-3.9567,-3.9567,-3.9228,-3.9046,-3.9046,-3.8431,-3.8046,-3.8046,-3.7754,-3.7584,-3.7584,-3.723,-3.7215,-3.7569,-3.7584,-3.7584,-3.7584,-3.7584,-3.7584,-3.7584,-3.7584,-3.7584,-3.7569,-3.72,-3.703,-3.7015,-3.6645,-3.6492,-3.6492,-3.6492,-3.6492,-3.6492,-3.6492,-3.6492,-3.6492,-3.9388,-3.9388,-3.9388,-3.9388,-3.9388,-3.9388,-3.9388,-3.9388,-3.9388,-3.9388,-3.9388,-3.9388,-3.9388,-3.9388,-3.9388,-3.9388,-3.9388,-3.9388,-3.9388,-3.9388,-3.9388,-3.9388,-3.9388,-3.9388,-3.9388,-3.9388,-3.9388,-3.9388,-3.9388,-3.9388,-3.9388,-3.9388,-3.9388,-3.9388,-3.9388,-3.9388,-3.9388,-3.9388,-3.9388,-3.9388,-3.9388,-3.9388,-3.9388,-3.9388,-3.9388,-3.9388,-3.9388,-3.9388,-3.9388,-3.9388,-3.9388,-3.9388,-3.9388,-3.9388,-3.9388,-3.9388,-3.9388,-3.9388,-3.9388,-3.9388,-3.9388,-3.9388,-3.9553,-3.9681,-3.9681,-4.0016,-4.0312,-4.0312,-4.0401,-4.0489,-4.0489,-4.0489,-4.0489,-4.0489,-4.0489,-4.0489,-4.0489,-4.0489,-4.0489,-4.0489,-4.0489,-4.0489,-4.0489,-4.0028,-3.9721,-3.9721,-3.9123,-3.8739,-3.8739,-3.86,-3.8585,-3.8739,-3.8092,-3.7984,-3.8508,-3.8508,-3.8508,-3.8508,-3.8508,-3.8508,-3.8508,-3.8508,-3.8508,-3.8477,-3.7954,-3.7738,-3.7692,-3.7169,-3.6953,-3.6953,-3.6953,-3.6953,-3.6953,-3.6953,-3.6953,-3.6953,-3.9388,-3.9388,-3.9388,-3.9388,-3.9388,-3.9388,-3.9388,-3.9388,-3.9388,-3.9388,-3.9388,-3.9388,-3.9388,-3.9388,-3.9388,-3.9388,-3.9388,-3.9388,-3.9388,-3.9388,-3.9388,-3.9388,-3.9388,-3.9388,-3.9388,-3.9388,-3.9388,-3.9388,-3.9388,-3.9388,-3.9388,-3.9388,-3.9388,-3.9388,-3.9388,-3.9388,-3.9388,-3.9388,-3.9388,-3.9388,-3.9388,-3.9388,-3.9388,-3.9388,-3.9388,-3.9388,-3.9388,-3.9388,-3.9388,-3.9388,-3.9388,-3.9388,-3.9388,-3.9388,-3.9388,-3.9388,-3.9388,-3.9388,-3.9388,-3.9388,-3.9388,-3.9388,-3.9553,-3.9681,-3.9681,-4.0016,-4.0312,-4.0312,-4.0401,-4.0489,-4.0489,-4.0489,-4.0489,-4.0489,-4.0489,-4.0489,-4.0489,-4.0489,-4.0489,-4.0489,-4.0489,-4.0489,-4.0489,-4.0443,-4.0428,-4.0428,-3.9797,-3.9447,-3.9447,-3.8846,-3.88,-3.9398,-3.8785,-3.8462,-3.8508,-3.8508,-3.8508,-3.8508,-3.8508,-3.8508,-3.8508,-3.8508,-3.8508,-3.8508,-3.8462,-3.8431,-3.8431,-3.8385,-3.8354,-3.8354,-3.8354,-3.8354,-3.8354,-3.8354,-3.8354,-3.8354,-3.9388,-3.9388,-3.9388,-3.9388,-3.9388,-3.9388,-3.9388,-3.9388,-3.9388,-3.9388,-3.9388,-3.9388,-3.9388,-3.9388,-3.9388,-3.9388,-3.9388,-3.9388,-3.9388,-3.9388,-3.9388,-3.9388,-3.9388,-3.9388,-3.9388,-3.9388,-3.9388,-3.9388,-3.9388,-3.9388,-3.9388,-3.9388,-3.9388,-3.9388,-3.9388,-3.9388,-3.9388,-3.9388,-3.9388,-3.9388,-3.9388,-3.9388,-3.9388,-3.9388,-3.9388,-3.9388,-3.9388,-3.9388,-3.9388,-3.9388,-3.9481,-3.9589,-3.9589,-3.9661,-3.9783,-3.9783,-3.9783,-3.9783,-3.9783,-3.9604,-3.9388,-3.9388,-3.9553,-3.9732,-3.9854,-4.0101,-4.0331,-4.0401,-4.0455,-4.0489,-4.0489,-4.0489,-4.0489,-4.0489,-4.0489,-4.0489,-4.0489,-4.0489,-4.0489,-4.0489,-4.0489,-4.0489,-4.0489,-4.0489,-4.0489,-4.0489,-4.0259,-4.0105,-4.0105,-3.9859,-3.9844,-4.0105,-3.9859,-3.9721,-3.9721,-3.9721,-3.9721,-3.9721,-3.9721,-3.9721,-3.9721,-3.9721,-3.9721,-3.9705,-3.929,-3.9105,-3.9108,-3.8677,-3.8508,-3.8508,-3.8508,-3.8508,-3.8508,-3.8508,-3.8508,-3.8508,-3.9388,-3.9388,-3.9388,-3.9388,-3.9388,-3.9388,-3.9388,-3.9388,-3.9388,-3.9388,-3.9388,-3.9388,-3.9388,-3.9388,-3.9388,-3.9388,-3.9388,-3.9388,-3.9388,-3.9388,-3.9388,-3.9388,-3.9388,-3.9388,-3.9388,-3.9388,-3.9388,-3.9388,-3.9388,-3.9388,-3.9388,-3.9388,-3.9388,-3.9388,-3.9388,-3.9388,-3.9388,-3.9388,-3.9388,-3.9388,-3.9388,-3.9388,-3.9388,-3.9388,-3.9388,-3.9388,-3.9388,-3.9388,-3.9388,-3.9388,-3.9517,-3.9681,-3.9625,-3.9732,-3.9925,-3.996,-4.0011,-4.0011,-4.0011,-3.9783,-3.9604,-3.9604,-3.9732,-3.991,-4.0066,-4.0226,-4.0401,-4.0489,-4.0489,-4.0489,-4.0489,-4.0489,-4.0489,-4.0489,-4.0489,-4.0489,-4.0489,-4.0489,-4.0489,-4.0489,-4.0489,-4.0489,-4.0489,-4.0489,-4.0489,-4.0489,-4.0489,-4.0489,-4.0489,-4.0489,-4.0489,-4.0489,-4.0489,-4.0489,-4.0489,-4.0489,-4.0489,-4.0489,-4.0489,-4.0489,-4.0489,-4.0489,-4.0489,-4.0459,-3.9997,-3.9797,-3.9767,-3.9339,-3.9139,-3.9139,-3.9139,-3.9139,-3.9139,-3.9139,-3.9139,-3.9139,-3.9388,-3.9388,-3.9388,-3.9388,-3.9388,-3.9388,-3.9388,-3.9388,-3.9388,-3.9388,-3.9388,-3.9388,-3.9388,-3.9388,-3.9388,-3.9388,-3.9388,-3.9388,-3.9439,-3.9439,-3.9439,-3.9439,-3.9388,-3.9388,-3.9439,-3.9439,-3.9439,-3.9439,-3.9439,-3.9439,-3.9439,-3.9439,-3.9439,-3.9439,-3.9439,-3.9388,-3.9388,-3.9388,-3.9388,-3.9388,-3.9388,-3.9388,-3.9388,-3.9388,-3.9388,-3.9388,-3.9388,-3.9388,-3.9388,-3.9388,-3.9553,-3.9661,-3.9445,-3.9553,-3.9768,-3.996,-3.9996,-3.9996,-3.9996,-3.9996,-4.0011,-4.0011,-4.0137,-4.0312,-4.0312,-4.0401,-4.0489,-4.0489,-4.0489,-4.0489,-4.0489,-4.0489,-4.0489,-4.0489,-4.0489,-4.0489,-4.0489,-4.0489,-4.0489,-4.0489,-4.0489,-4.0489,-4.0489,-4.0489,-4.0489,-4.0489,-4.0489,-4.0489,-4.0489,-4.0489,-4.0489,-4.0489,-4.0489,-4.0489,-4.0489,-4.0489,-4.0489,-4.0489,-4.0489,-4.0489,-4.0489,-4.0489,-4.0489,-4.0489,-4.0489,-4.0489,-4.0489,-4.0489,-4.0489,-4.0489,-4.0489,-4.0489,-4.0489,-4.0489,-4.0489,-4.0489,-3.9388,-3.9388,-3.9388,-3.9388,-3.9388,-3.9388,-3.9388,-3.9388,-3.9388,-3.9388,-3.9388,-3.9388,-3.9388,-3.9388,-3.9388,-3.9388,-3.9843,-4.0307,-4.0771,-4.0786,-4.0786,-4.0786,-4.0352,-4.0322,-4.0786,-4.0786,-4.0786,-4.0786,-4.0786,-4.0786,-4.0786,-4.0786,-4.0786,-4.0786,-4.0786,-4.0531,-4.0113,-4.0113,-3.9843,-3.9388,-3.9388,-3.9388,-3.9388,-3.9388,-3.9388,-3.9388,-3.9388,-3.9388,-3.9409,-3.9553,-3.9732,-3.996,-4.0121,-4.0211,-4.0281,-4.0331,-4.0366,-4.0366,-4.0366,-4.0366,-4.0296,-4.0066,-4.0137,-4.0312,-4.0312,-4.0401,-4.0489,-4.0489,-4.0489,-4.0489,-4.0489,-4.0489,-4.0489,-4.0489,-4.0489,-4.0489,-4.0489,-4.0489,-4.0489,-4.0489,-4.0489,-4.0489,-4.0489,-4.0489,-4.0489,-4.0489,-4.0489,-4.0489,-4.0489,-4.0489,-4.0489,-4.0489,-4.0489,-4.0489,-4.0489,-4.0489,-4.0489,-4.0489,-4.0489,-4.0489,-4.0489,-4.0489,-4.0489,-4.0489,-4.0489,-4.0489,-4.0489,-4.0489,-4.0489,-4.0489,-4.0489,-4.0489,-4.0489,-4.0489,-4.0489,-4.0489,-3.9388,-3.9388,-3.9388,-3.9388,-3.9388,-3.9388,-3.9388,-3.9388,-3.9514,-3.9768,-3.9813,-3.9903,-4.0172,-4.0187,-4.0187,-4.0187,-4.0561,-4.095,-4.1354,-4.1422,-4.1527,-4.1796,-4.1384,-4.125,-4.1422,-4.1422,-4.1422,-4.1422,-4.1422,-4.1422,-4.1422,-4.1422,-4.1422,-4.1422,-4.1422,-4.116,-4.0786,-4.0786,-4.0412,-3.9813,-3.9813,-3.9649,-3.9388,-3.9388,-3.9445,-3.9517,-3.9517,-3.9553,-3.9676,-3.9783,-3.9889,-4.0066,-4.0401,-4.0455,-4.0436,-4.0489,-4.0489,-4.0489,-4.0489,-4.0489,-4.0455,-4.0261,-4.0296,-4.0366,-4.0366,-4.0436,-4.0489,-4.0489,-4.0489,-4.0489,-4.0489,-4.0489,-4.0489,-4.0489,-4.0489,-4.0489,-4.0489,-4.0489,-4.0489,-4.0489,-4.0489,-4.0489,-4.0489,-4.0489,-4.0489,-4.0489,-4.0489,-4.0489,-4.0489,-4.0489,-4.0489,-4.0489,-4.0489,-4.0489,-4.0489,-4.0489,-4.0489,-4.0489,-4.0489,-4.0489,-4.0489,-4.0489,-4.0489,-4.0489,-4.0489,-4.0489,-4.0489,-4.0489,-4.0489,-4.0489,-4.0489,-4.0489,-4.0489,-4.0489,-4.0489,-4.0489,-3.9388,-3.9388,-3.9403,-3.9499,-3.9514,-3.9493,-3.9553,-3.9589,-3.9813,-4.0412,-4.0487,-4.0711,-4.1309,-4.1422,-4.1422,-4.1422,-4.1467,-4.1527,-4.1549,-4.1549,-4.1818,-4.2455,-4.2485,-4.2201,-4.1564,-4.1549,-4.1549,-4.1549,-4.1549,-4.1549,-4.1549,-4.1549,-4.1549,-4.1549,-4.1549,-4.1519,-4.1512,-4.1512,-4.1123,-4.0524,-4.0524,-4.0134,-3.9535,-3.9535,-3.9613,-3.9732,-3.9732,-3.9839,-4.0011,-4.0031,-4.0031,-4.0101,-4.0385,-4.0401,-4.0331,-4.0455,-4.0489,-4.0505,-4.0566,-4.0597,-4.0597,-4.0659,-4.0674,-4.0643,-4.052,-4.0489,-4.0489,-4.0489,-4.0489,-4.0489,-4.0489,-4.0489,-4.0489,-4.0489,-4.0489,-4.0489,-4.0489,-4.0489,-4.0489,-4.0489,-4.0489,-4.0489,-4.0489,-4.0489,-4.0489,-4.0489,-4.0489,-4.0489,-4.0489,-4.0489,-4.0489,-4.0489,-4.0489,-4.0489,-4.0489,-4.0489,-4.0489,-4.0489,-4.0489,-4.0489,-4.0489,-4.0489,-4.0489,-4.0489,-4.0489,-4.0489,-4.0489,-4.0489,-4.0489,-4.0489,-4.0489,-4.0489,-4.0489,-4.0489,-4.0489,-4.0489,-3.9388,-3.9388,-3.9589,-4.0098,-4.0187,-4.0367,-4.0876,-4.095,-4.101,-4.1145,-4.1175,-4.122,-4.1369,-4.1422,-4.1422,-4.1422,-4.1886,-4.2372,-4.288,-4.2871,-4.2931,-4.312,-4.312,-4.306,-4.2871,-4.2871,-4.2871,-4.2871,-4.2871,-4.2871,-4.2871,-4.2871,-4.2871,-4.2871,-4.2871,-4.2626,-4.2186,-4.2186,-4.1888,-4.1422,-4.1422,-4.1105,-4.064,-4.064,-4.0344,-3.9925,-3.9925,-3.996,-4.0031,-4.0172,-4.0296,-4.0385,-4.0489,-4.0489,-4.047,-4.0489,-4.0489,-4.0612,-4.1217,-4.137,-4.1494,-4.2017,-4.2155,-4.1878,-4.0735,-4.0489,-4.0489,-4.0489,-4.0489,-4.0489,-4.0489,-4.0489,-4.0489,-4.0489,-4.0489,-4.0489,-4.0489,-4.0489,-4.0489,-4.0489,-4.0489,-4.0489,-4.0489,-4.0489,-4.0489,-4.0489,-4.0489,-4.0489,-4.0489,-4.0489,-4.0489,-4.0489,-4.0489,-4.0489,-4.0489,-4.0489,-4.0489,-4.0489,-4.0489,-4.0489,-4.0489,-4.0489,-4.0489,-4.0489,-4.0489,-4.0489,-4.0489,-4.0489,-4.0489,-4.0489,-4.0489,-4.0489,-4.0489,-4.0489,-4.0489,-4.0489,-3.9388,-3.9679,-3.9993,-4.0337,-4.0651,-4.0995,-4.1324,-4.1422,-4.1527,-4.1856,-4.1886,-4.2006,-4.2282,-4.2312,-4.2312,-4.2312,-4.2626,-4.297,-4.3275,-4.329,-4.329,-4.329,-4.329,-4.329,-4.329,-4.329,-4.329,-4.329,-4.329,-4.329,-4.329,-4.329,-4.329,-4.329,-4.329,-4.3135,-4.2821,-4.2821,-4.2524,-4.2024,-4.2153,-4.1836,-4.1343,-4.1431,-4.1328,-4.1096,-4.1096,-4.1168,-4.1255,-4.1362,-4.1454,-4.1489,-4.1489,-4.1489,-4.1489,-4.1489,-4.1489,-4.1601,-4.1986,-4.2078,-4.2171,-4.2525,-4.2602,-4.2417,-4.1694,-4.1489,-4.1489,-4.1489,-4.1489,-4.1489,-4.1489,-4.1489,-4.1489,-4.1489,-4.1489,-4.1489,-4.1489,-4.1489,-4.1489,-4.1489,-4.1489,-4.1489,-4.1489,-4.1489,-4.1489,-4.1489,-4.1489,-4.1489,-4.1489,-4.1489,-4.1489,-4.1489,-4.1489,-4.137,-4.1047,-4.1032,-4.0863,-4.0489,-4.0489,-4.0489,-4.0489,-4.0489,-4.0489,-4.0489,-4.0489,-4.0489,-4.0489,-4.0489,-4.0489,-4.0489,-4.0489,-4.0489,-4.0489,-4.0489,-4.0489,-4.0489,-3.9574,-4.0023,-4.0472,-4.0696,-4.119,-4.1632,-4.1698,-4.1713,-4.1908,-4.25,-4.256,-4.2731,-4.3245,-4.329,-4.329,-4.329,-4.329,-4.329,-4.329,-4.329,-4.329,-4.329,-4.329,-4.329,-4.329,-4.329,-4.329,-4.329,-4.329,-4.329,-4.329,-4.329,-4.329,-4.329,-4.329,-4.329,-4.329,-4.329,-4.303,-4.2653,-4.2784,-4.2492,-4.1949,-4.2151,-4.226,-4.2316,-4.2352,-4.2441,-4.2602,-4.2602,-4.2602,-4.2602,-4.2602,-4.2602,-4.2602,-4.2602,-4.2602,-4.2633,-4.274,-4.2771,-4.2802,-4.291,-4.294,-4.294,-4.294,-4.2771,-4.2602,-4.2602,-4.2602,-4.2602,-4.2602,-4.2602,-4.2602,-4.2602,-4.2602,-4.2602,-4.2602,-4.2602,-4.2602,-4.2602,-4.2602,-4.2602,-4.2602,-4.2602,-4.2602,-4.2602,-4.2602,-4.2602,-4.2602,-4.2602,-4.2602,-4.2602,-4.2602,-4.234,-4.1786,-4.1771,-4.1463,-4.0843,-4.0843,-4.072,-4.0489,-4.0489,-4.0489,-4.0489,-4.0489,-4.0489,-4.0489,-4.0489,-4.0489,-4.0489,-4.0489,-4.0489,-4.0489,-4.0489,-4.0489,-4.0489,-4.0157,-4.0337,-4.0756,-4.1931,-4.2201,-4.2455,-4.2946,-4.3021,-4.3065,-4.3155,-4.317,-4.32,-4.329,-4.329,-4.329,-4.329,-4.329,-4.329,-4.329,-4.329,-4.329,-4.329,-4.329,-4.329,-4.329,-4.329,-4.329,-4.329,-4.329,-4.329,-4.329,-4.329,-4.329,-4.329,-4.329,-4.329,-4.329,-4.329,-4.3379,-4.3515,-4.3554,-4.3264,-4.2849,-4.3038,-4.2784,-4.2316,-4.2493,-4.2565,-4.2602,-4.2602,-4.2602,-4.2602,-4.2602,-4.2602,-4.2602,-4.2602,-4.2602,-4.274,-4.3294,-4.347,-4.3608,-4.4156,-4.431,-4.431,-4.431,-4.3417,-4.2602,-4.2602,-4.2602,-4.2602,-4.2602,-4.2602,-4.2602,-4.2602,-4.2602,-4.2602,-4.2602,-4.2602,-4.2602,-4.2602,-4.2602,-4.2602,-4.2602,-4.2602,-4.2602,-4.2602,-4.2602,-4.2602,-4.2602,-4.2602,-4.2602,-4.2602,-4.2602,-4.2571,-4.2479,-4.2463,-4.2417,-4.2325,-4.2325,-4.1694,-4.0489,-4.0489,-4.0489,-4.0489,-4.0489,-4.0489,-4.0489,-4.0489,-4.0489,-4.0489,-4.0489,-4.0489,-4.0489,-4.0489,-4.0489,-4.0489,-4.0891,-4.125,-4.1707,-4.2306,-4.2671,-4.3,-4.3245,-4.329,-4.329,-4.329,-4.329,-4.329,-4.329,-4.329,-4.329,-4.329,-4.329,-4.329,-4.329,-4.329,-4.329,-4.329,-4.329,-4.329,-4.329,-4.329,-4.329,-4.329,-4.329,-4.329,-4.329,-4.329,-4.3384,-4.3518,-4.3518,-4.3581,-4.3699,-4.3699,-4.3738,-4.3871,-4.3988,-4.3921,-4.3762,-4.3952,-4.3844,-4.3583,-4.371,-4.371,-4.371,-4.371,-4.371,-4.371,-4.371,-4.371,-4.371,-4.371,-4.371,-4.3771,-4.4086,-4.4178,-4.424,-4.4548,-4.461,-4.461,-4.461,-4.4125,-4.371,-4.371,-4.371,-4.371,-4.371,-4.371,-4.371,-4.371,-4.371,-4.371,-4.371,-4.371,-4.371,-4.371,-4.371,-4.371,-4.371,-4.371,-4.371,-4.371,-4.371,-4.371,-4.371,-4.371,-4.371,-4.371,-4.371,-4.3525,-4.314,-4.314,-4.2971,-4.2602,-4.2602,-4.2279,-4.1678,-4.1294,-4.1124,-4.1109,-4.0674,-4.0489,-4.0489,-4.0489,-4.0489,-4.0489,-4.0489,-4.0489,-4.0489,-4.0489,-4.0489,-4.0489]},{"header":{"parameterUnit":"m.s-1","parameterCategory":1,"la1":30.6,"la2":28.766,"lo1":-90.7593,"lo2":-88.6598,"dy":0.0162,"dx":0.0183,"nx":116,"ny":114,"refTime":"2023-03-22T06:00:00:Z","depth":0,"parameterNumber":3,"parameterNumberName":"V-component_of_WINDS"},"data":[0.0,0.0,0.0,0.0,0.0,0.0,0.0,0.0,0.0,0.0,0.0,0.0,0.0,0.0,0.0,0.0,0.0,0.0,0.0,0.0,0.0,0.0,0.0,0.0,0.0,0.0,0.0,0.0,0.0,0.0,0.0,0.0,0.0,0.0,0.0,0.0,0.0,0.0,0.0,0.0,0.0,0.0,0.0,0.0,0.0,0.0,0.0,0.0,0.0,0.0,0.0,0.0,0.0,0.0,0.0,0.0,0.0,0.0,0.0,0.0,0.0,0.0,0.0,0.0,0.0,0.0,0.0,0.0,0.0,0.0,0.0,0.0,0.0,0.0,0.0,0.0,0.0,0.0,0.0,0.0,0.0,0.0,0.0,0.0,0.0,0.0,0.0,0.0,0.0,0.0,0.0,0.0,0.0,0.0,0.0,0.0,0.0,0.0,0.0,0.0,0.0,0.0,0.0,0.0,0.0,0.0,0.0,0.0,0.0,0.0,0.0,0.0,0.0,0.0,0.0,0.0,0.0,0.0,0.0,0.0,0.0,0.0,0.0,0.0,0.0,0.0,0.0,0.0,0.0,0.0,0.0,0.0,0.0,0.0,0.0,0.0,0.0,0.0,0.0,0.0,0.0,0.0,0.0,0.0,0.0,0.0,0.0,0.0,0.0,0.0,0.0,0.0,0.0,0.0,0.0,0.0,0.0,0.0,0.0,0.0,0.0,0.0,0.0,0.0,0.0,0.0,0.0,0.0,0.0,0.0,0.0,0.0,0.0,0.0,0.0,0.0,0.0,0.0,0.0,0.0,0.0,0.0,0.0,0.0,0.0,0.0,0.0,0.0,0.0,0.0,0.0,0.0,0.0,0.0,0.0,0.0,0.0,0.0,0.0,0.0,0.0,0.0,0.0,0.0,0.0,0.0,0.0,0.0,0.0,0.0,0.0,0.0,0.0,0.0,0.0,0.0,0.0,0.0,0.0,0.0,0.0,0.0,0.0,0.0,0.0,0.0,0.0,0.0,0.0,0.0,0.0,0.0,0.0,0.0,0.0,0.0,0.0,0.0,0.0,0.0,0.0,0.0,0.0,0.0,0.0,0.0,0.0,0.0,0.0,0.0,0.0,0.0,0.0,0.0,0.0,0.0,0.0,0.0,0.0,0.0,0.0,0.0,0.0,0.0,0.0,0.0,0.0,0.0,0.0,0.0,0.0,0.0,0.0,0.0,0.0,0.0,0.0,0.0,0.0,0.0,0.0,0.0,0.0,0.0,0.0,0.0,0.0,0.0,0.0,0.0,0.0,0.0,0.0,0.0,0.0,0.0,0.0,0.0,0.0,0.0,0.0,0.0,0.0,0.0,0.0,0.0,0.0,0.0,0.0,0.0,0.0,0.0,0.0,0.0,0.0,0.0,0.0,0.0,0.0,0.0,0.0,0.0,0.0,0.0,0.0,0.0,0.0,0.0,0.0,0.0,0.0,0.0,0.0,0.0,0.0,0.0,0.0,0.0,0.0,0.0,0.0,0.0,0.0,0.0,0.0,0.0,0.0,0.0,0.0,0.0,0.0,0.0,0.0,0.0,0.0,0.0,0.0,0.0,0.0,0.0,0.0,0.0,0.0,0.0,0.0,0.0,0.0,0.0,0.0,0.0,0.0,0.0,0.0,0.0,0.0,0.0,0.0,0.0,0.0,0.0,0.0,0.0,0.0,0.0,0.0,0.0,0.0,0.0,0.0,0.0,0.0,0.0,0.0,0.0,0.0,0.0,0.0,0.0,0.0,0.0,0.0,0.0,0.0,0.0,0.0,0.0,0.0,0.0,0.0,0.0,0.0,0.0,0.0,0.0,0.0,0.0,0.0,0.0,0.0,0.0,0.0,0.0,0.0,0.0,0.0,0.0,0.0,0.0,0.0,0.0,0.0,0.0,0.0,0.0,0.0,0.0,0.0,0.0,0.0,0.0,0.0,0.0,0.0,0.0,0.0,0.0,0.0,0.0,0.0,0.0,0.0,0.0,0.0,0.0,0.0,0.0,0.0,0.0,0.0,0.0,0.0,0.0,0.0,0.0,0.0,0.0,0.0,0.0,0.0,0.0,0.0,0.0,0.0,0.0,0.0,0.0,0.0,0.0,0.0,0.0,0.0,0.0,0.0,0.0,0.0,0.0,0.0,0.0,0.0,0.0,0.0,0.0,0.0,0.0,0.0,0.0,0.0,0.0,0.0,0.0,0.0,0.0,0.0,0.0,0.0,0.0,0.0,0.0,0.0,0.0,0.0,0.0,0.0,0.0,0.0,0.0,0.0,0.0,0.0,0.0,0.0,0.0,0.0,0.0,0.0,0.0,0.0,0.0,0.0,0.0,0.0,0.0,0.0,0.0,0.0,0.0,0.0,0.0,0.0,0.0,0.0,0.0,0.0,0.0,0.0,0.0,0.0,0.0,0.0,0.0,0.0,0.0,0.0,0.0,0.0,0.0,0.0,0.0,0.0,0.0,0.0,0.0,0.0,0.0,0.0,0.0,0.0,0.0,0.0,0.0,0.0,0.0,0.0,0.0,0.0,0.0,0.0,0.0,0.0,0.0,0.0,0.0,0.0,0.0,0.0,0.0,0.0,0.0,0.0,0.0,0.0,0.0,0.0,0.0,0.0,0.0,0.0,0.0,0.0,0.0,0.0,0.0,0.0,0.0,0.0,0.0,0.0,0.0,0.0,0.0,0.0,0.0,0.0,0.0,0.0,0.0,0.0,0.0,0.0,0.0,0.0,0.0,0.0,0.0,0.0,0.0,0.0,0.0,0.0,0.0,0.0,0.0,0.0,0.0,0.0,0.0,0.0,0.0,0.0,0.0,0.0,0.0,0.0,0.0,0.0,0.0,0.0,0.0,0.0,0.0,0.0,0.0,0.0,0.0,0.0,0.0,0.0,0.0,0.0,0.0,0.0,0.0,0.0,0.0,0.0,0.0,0.0,0.0,0.0,0.0,0.0,0.0,0.0,0.0,0.0,0.0,0.0,0.0,0.0,0.0,0.0,0.0,0.0,0.0,0.0,0.0,0.0,0.0,0.0,0.0,0.0,0.0,0.0,0.0,0.0,0.0,0.0,0.0,0.0,0.0,0.0,0.0,0.0,0.0,0.0,0.0,0.0,0.0,0.0,0.0,0.0,0.0,0.0,0.0,0.0,0.0,0.0,0.0,0.0,0.0,0.0,0.0,0.0,0.0,0.0,0.0,0.0,0.0,0.0,0.0,0.0,0.0,0.0,0.0,0.0,0.0,0.0,0.0,0.0,0.0,0.0,0.0,0.0,0.0,0.0,0.0,0.0,0.0,0.0,0.0,0.0,0.0,0.0,0.0,0.0,0.0,0.0,0.0,0.0,0.0,0.0,0.0,0.0,0.0,0.0,0.0,0.0,0.0,0.0,0.0,0.0,0.0,0.0,0.0,0.0,0.0,0.0,0.0,0.0,0.0,0.0,0.0,0.0,0.0,0.0,0.0,0.0,0.0,0.0,0.0,0.0,0.0,0.0,0.0,0.0,0.0,0.0,0.0,0.0,0.0,0.0,0.0,0.0,0.0,0.0,0.0,0.0,0.0,0.0,0.0,0.0,0.0,0.0,0.0,0.0,0.0,0.0,0.0,0.0,0.0,0.0,0.0,0.0,0.0,0.0,0.0,0.0,0.0,0.0,0.0,0.0,0.0,0.0,0.0,0.0,0.0,0.0,0.0,0.0,0.0,0.0,0.0,0.0,0.0,0.0,0.0,0.0,0.0,0.0,0.0,0.0,0.0,0.0,0.0,0.0,0.0,0.0,0.0,0.0,0.0,0.0,0.0,0.0,0.0,0.0,0.0,0.0,0.0,0.0,0.0,0.0,0.0,0.0,0.0,0.0,0.0,0.0,0.0,0.0,0.0,0.0,0.0,0.0,0.0,0.0,0.0,0.0,0.0,0.0,0.0,0.0,0.0,0.0,0.0,0.0,0.0,0.0,0.0,0.0,0.0,0.0,0.0,0.0,0.0,0.0,0.0,0.0,0.0,0.0,0.0,0.0,0.0,0.0,0.0,0.0,0.0,0.0,0.0,0.0,0.0,0.0,0.0,0.0,0.0,0.0,0.0,0.0,0.0,0.0,0.0,0.0,0.0,0.0,0.0,0.0,0.0,0.0,0.0,0.0,0.0,0.0,0.0,0.0,0.0,0.0,0.0,0.0,0.0,0.0,0.0,0.0,0.0,0.0,0.0,0.0,0.0,0.0,0.0,0.0,0.0,0.0,0.0,0.0,0.0,0.0,0.0,0.0,0.0,0.0,0.0,0.0,0.0,0.0,0.0,0.0,0.0,0.0,0.0,0.0,0.0,0.0,0.0,0.0,0.0,0.0,0.0,0.0,0.0,0.0,0.0,0.0,0.0,0.0,0.0,0.0,0.0,0.0,0.0,0.0,0.0,0.0,0.0,0.0,0.0,0.0,0.0,0.0,0.0,0.0,0.0,0.0,0.0,0.0,0.0,0.0,0.0,0.0,0.0,0.0,0.0,0.0,0.0,0.0,0.0,0.0,0.0,0.0,0.0,0.0,0.0,0.0,0.0,0.0,0.0,0.0,0.0,0.0,0.0,0.0,0.0,0.0,0.0,0.0,0.0,0.0,0.0,0.0,0.0,0.0,0.0,0.0,0.0,0.0,0.0,0.0,0.0,0.0,0.0,0.0,0.0,0.0,0.0,0.0,0.0,0.0,0.0,0.0,0.0,0.0,0.0,0.0,0.0,0.0,0.0,0.0,0.0,0.0,0.0,0.0,0.0,0.0,0.0,0.0,0.0,0.0,0.0,0.0,0.0,0.0,0.0,0.0,0.0,0.0,0.0,0.0,0.0,0.0,0.0,0.0,0.0,0.0,0.0,0.0,0.0,0.0,0.0,0.0,0.0,0.0,0.0,0.0,0.0,0.0,0.0,0.0,0.0,0.0,0.0,0.0,0.0,0.0,0.0,0.0,0.0,0.0,0.0,0.0,0.0,0.0,0.0,0.0,0.0,0.0,0.0,0.0,0.0,0.0,0.0,0.0,0.0,0.0,0.0,0.0,0.0,0.0,0.0,0.0,0.0,0.0,0.0,0.0,0.0,0.0,0.0,0.0,0.0,0.0,0.0,0.0,0.0,0.0,0.0,0.0,0.0,0.0,0.0,0.0,0.0,0.0,0.0,0.0,0.0,0.0,0.0,0.0,0.0,0.0,0.0,0.0,0.0,0.0,0.0,0.0,0.0,0.0,0.0,0.0,0.0,0.0,0.0,0.0,0.0,0.0,0.0,0.0,0.0,0.0,0.0,0.0,0.0,0.0,0.0,0.0,0.0,0.0,0.0,0.0,0.0,0.0,0.0,0.0,0.0,0.0,0.0,0.0,0.0,0.0,0.0,0.0,0.0,0.0,0.0,0.0,0.0,0.0,0.0,0.0,0.0,0.0,0.0,0.0,0.0,0.0,0.0,0.0,0.0,0.0,0.0,0.0,0.0,0.0,0.0,0.0,0.0,0.0,0.0,0.0,0.0,0.0,0.0,0.0,0.0,0.0,0.0,0.0,0.0,0.0,0.0,0.0,0.0,0.0,0.0,0.0,0.0,0.0,0.0,0.0,0.0,0.0,0.0,0.0,0.0,0.0,0.0,0.0,0.0,0.0,0.0,0.0,0.0,0.0,0.0,0.0,0.0,0.0,0.0,0.0,0.0,0.0,0.0,0.0,0.0,0.0,0.0,0.0,0.0,0.0,0.0,0.0,0.0,0.0,0.0,0.0,0.0,0.0,0.0,0.0,0.0,0.0,0.0,0.0,0.0,0.0,0.0,0.0,0.0,0.0,0.0,0.0,0.0,0.0,0.0,0.0,0.0,0.0,0.0,0.0,0.0,0.0,0.0,0.0,0.0,0.0,0.0,0.0,0.0,0.0,0.0,0.0,0.0,0.0,0.0,0.0,0.0,0.0,0.0,0.0,0.0,0.0,0.0,0.0,0.0,0.0,0.0,0.0,0.0,0.0,0.0,0.0,0.0,0.0,0.0,0.0,0.0,0.0,0.0,0.0,0.0,0.0,0.0,0.0,0.0,0.0,0.0,0.0,0.0,0.0,0.0,0.0,0.0,4.0824,4.0715,0.0,0.0,0.0,0.0,0.0,0.0,0.0,0.0,0.0,0.0,0.0,0.0,0.0,0.0,0.0,0.0,0.0,0.0,0.0,0.0,0.0,0.0,0.0,0.0,0.0,0.0,0.0,0.0,0.0,0.0,0.0,0.0,0.0,0.0,0.0,0.0,0.0,0.0,0.0,0.0,0.0,0.0,0.0,0.0,0.0,0.0,0.0,0.0,0.0,0.0,0.0,0.0,0.0,0.0,0.0,0.0,0.0,0.0,0.0,0.0,0.0,0.0,0.0,0.0,0.0,0.0,0.0,0.0,0.0,0.0,0.0,0.0,0.0,0.0,0.0,0.0,0.0,0.0,0.0,0.0,0.0,0.0,0.0,0.0,0.0,0.0,0.0,0.0,0.0,0.0,0.0,0.0,0.0,0.0,0.0,0.0,0.0,0.0,0.0,0.0,0.0,0.0,0.0,0.0,0.0,0.0,0.0,0.0,0.0,0.0,0.0,0.0,0.0,0.0,4.0871,4.0825,0.0,0.0,0.0,0.0,0.0,0.0,0.0,0.0,0.0,0.0,0.0,0.0,0.0,0.0,0.0,0.0,0.0,0.0,0.0,0.0,0.0,0.0,0.0,0.0,0.0,0.0,0.0,0.0,0.0,0.0,0.0,0.0,0.0,0.0,0.0,0.0,0.0,0.0,0.0,0.0,0.0,0.0,0.0,0.0,0.0,0.0,0.0,0.0,0.0,0.0,0.0,0.0,0.0,0.0,0.0,0.0,0.0,0.0,0.0,0.0,0.0,0.0,0.0,0.0,0.0,0.0,0.0,0.0,0.0,0.0,0.0,0.0,0.0,0.0,0.0,0.0,0.0,0.0,0.0,0.0,0.0,0.0,0.0,0.0,0.0,0.0,0.0,0.0,0.0,0.0,0.0,0.0,0.0,0.0,0.0,0.0,0.0,0.0,0.0,0.0,0.0,0.0,0.0,0.0,0.0,0.0,0.0,0.0,4.0837,4.085,4.0863,4.0964,4.1028,4.1006,4.091,4.091,4.0987,4.0882,0.0,0.0,0.0,0.0,0.0,0.0,0.0,0.0,0.0,0.0,0.0,0.0,0.0,0.0,0.0,0.0,0.0,0.0,0.0,0.0,0.0,0.0,3.6301,3.6301,3.6301,3.6451,0.0,0.0,0.0,0.0,0.0,0.0,0.0,0.0,0.0,0.0,0.0,0.0,3.8707,3.8707,3.8707,3.8707,3.8673,0.0,0.0,0.0,0.0,0.0,0.0,0.0,0.0,0.0,0.0,0.0,0.0,0.0,0.0,0.0,0.0,0.0,0.0,0.0,0.0,0.0,0.0,0.0,0.0,0.0,0.0,0.0,0.0,0.0,0.0,0.0,0.0,0.0,0.0,0.0,0.0,0.0,0.0,0.0,0.0,0.0,0.0,0.0,4.0301,4.0301,0.0,0.0,0.0,0.0,0.0,0.0,0.0,0.0,0.0,0.0,0.0,0.0,0.0,4.07,4.0705,4.0819,4.0887,4.089,4.0994,4.1052,4.1055,4.108,4.1081,4.1081,4.1076,0.0,4.099,4.0981,0.0,0.0,0.0,0.0,0.0,0.0,0.0,0.0,0.0,0.0,0.0,0.0,0.0,0.0,0.0,0.0,0.0,0.0,0.0,0.0,0.0,3.6512,3.6638,3.6638,3.6841,3.7055,3.7227,0.0,0.0,0.0,0.0,0.0,0.0,0.0,0.0,0.0,3.8609,3.8643,3.8707,3.8707,3.8707,3.8707,3.8624,3.8544,3.8446,3.8368,0.0,0.0,0.0,0.0,0.0,0.0,0.0,0.0,0.0,0.0,0.0,0.0,0.0,0.0,0.0,0.0,0.0,0.0,0.0,0.0,0.0,0.0,0.0,0.0,0.0,0.0,0.0,0.0,0.0,0.0,0.0,0.0,0.0,0.0,0.0,0.0,0.0,0.0,0.0,4.0281,4.0344,4.0291,4.0317,4.0351,0.0,0.0,0.0,0.0,0.0,0.0,0.0,0.0,0.0,4.0815,4.0812,4.0829,4.0867,4.0925,4.0953,4.0967,4.1019,4.1067,4.1092,4.1092,4.1097,4.1109,4.1109,4.108,4.1061,4.1061,4.1009,4.0929,0.0,0.0,0.0,0.0,4.0972,4.0978,0.0,0.0,0.0,0.0,0.0,0.0,0.0,0.0,0.0,0.0,0.0,0.0,3.6451,3.6801,3.7055,3.7055,3.7339,3.7505,3.7505,0.0,0.0,0.0,0.0,0.0,0.0,0.0,0.0,3.8707,3.8707,3.8707,3.8707,3.8707,3.8707,3.8692,3.8559,3.8478,3.8415,3.8338,3.8274,0.0,0.0,0.0,0.0,0.0,0.0,0.0,0.0,0.0,0.0,0.0,0.0,0.0,0.0,0.0,0.0,0.0,0.0,0.0,0.0,0.0,0.0,0.0,0.0,0.0,0.0,0.0,0.0,0.0,0.0,0.0,0.0,0.0,0.0,0.0,0.0,0.0,0.0,4.0243,4.0314,4.0327,4.0377,4.0414,0.0,0.0,0.0,0.0,0.0,0.0,4.0769,4.0788,4.0815,4.0903,4.0907,4.092,4.0963,4.0963,4.099,4.0997,4.0997,4.1036,4.1064,4.1091,4.1105,4.1101,4.1106,4.1109,4.1109,4.1109,4.1072,4.1022,4.1078,4.1072,4.1022,4.108,4.1093,4.1097,0.0,0.0,0.0,0.0,0.0,0.0,0.0,0.0,0.0,0.0,0.0,3.686,3.686,3.7227,3.7469,3.7469,3.7487,3.7505,3.7505,3.7827,3.8001,0.0,0.0,0.0,0.0,0.0,0.0,3.8707,3.8707,3.8707,3.8707,3.8707,3.8707,3.8692,3.8559,3.851,3.8494,3.8354,3.8307,3.829,0.0,0.0,0.0,0.0,0.0,0.0,0.0,0.0,0.0,0.0,0.0,0.0,0.0,0.0,0.0,0.0,0.0,0.0,0.0,0.0,0.0,0.0,0.0,0.0,0.0,0.0,0.0,0.0,0.0,0.0,0.0,0.0,0.0,0.0,0.0,0.0,0.0,0.0,0.0,4.0372,4.0397,0.0,0.0,0.0,0.0,4.0786,4.091,4.0983,4.0984,4.0984,4.0967,4.0907,4.0907,4.0888,4.0897,4.0917,4.0939,4.0996,4.0996,4.0999,4.1013,4.1061,4.1093,4.1098,4.1101,4.1109,4.1109,4.1109,4.1108,4.1106,4.1108,4.1108,4.1106,4.1108,4.1109,4.1109,0.0,0.0,0.0,0.0,0.0,0.0,0.0,0.0,0.0,3.706,3.6972,3.69,3.69,3.7487,3.7896,3.7896,3.8118,3.8269,3.8269,3.8385,3.8385,0.0,0.0,0.0,0.0,0.0,3.8707,3.8707,3.8707,3.8707,3.8707,3.8707,3.8658,3.8575,3.8478,3.8417,3.837,3.8323,3.8274,3.8224,3.8209,3.809,0.0,0.0,0.0,0.0,0.0,0.0,0.0,0.0,0.0,0.0,0.0,0.0,0.0,0.0,0.0,0.0,0.0,0.0,0.0,0.0,0.0,0.0,0.0,0.0,0.0,0.0,0.0,0.0,0.0,0.0,0.0,0.0,0.0,0.0,0.0,0.0,0.0,4.026,4.0342,0.0,4.0649,4.075,4.0818,4.0854,4.0915,4.0932,4.0935,4.0935,4.0926,4.0907,4.0907,4.0907,4.0907,4.0907,4.0917,4.0935,4.0935,4.0956,4.0999,4.1013,4.1059,4.1093,4.1103,4.1107,4.1107,4.1052,4.1066,4.1109,4.1109,4.1109,4.1109,4.1109,4.1109,4.1109,0.0,0.0,0.0,0.0,0.0,0.0,0.0,0.0,0.0,3.7723,3.7559,3.7434,3.732,3.7896,3.8302,3.8302,3.8564,3.8707,3.8707,3.8643,3.8546,0.0,0.0,0.0,0.0,3.8673,3.8707,3.8707,3.8707,3.8673,3.8624,3.8624,3.8559,3.8462,3.8401,3.8354,3.8307,3.8274,3.8241,3.8209,3.8209,3.8038,3.7811,0.0,0.0,0.0,0.0,0.0,0.0,0.0,0.0,0.0,0.0,0.0,0.0,0.0,0.0,0.0,0.0,0.0,0.0,0.0,0.0,0.0,0.0,0.0,0.0,0.0,0.0,0.0,0.0,0.0,0.0,0.0,0.0,0.0,0.0,0.0,4.012,4.0241,4.0411,4.0568,4.0718,4.0767,4.0821,4.0859,4.0888,4.0893,4.0893,4.0903,4.0907,4.0907,4.0907,4.0907,4.0907,4.0907,4.0907,4.0907,4.0907,4.0926,4.0975,4.0995,4.1026,4.1067,4.1075,4.1061,4.1059,4.1019,4.1037,4.1068,4.1068,4.1068,4.1068,4.1068,4.1068,4.1068,0.0,0.0,0.0,0.0,0.0,0.0,0.0,0.0,3.849,3.8131,3.8376,3.8454,3.8106,3.8433,3.8692,3.8707,3.8707,3.8707,3.8692,3.8512,3.843,0.0,0.0,0.0,3.851,3.8624,3.8707,3.8692,3.8692,3.8624,3.851,3.851,3.8462,3.8382,3.8322,3.8307,3.829,3.8207,3.8192,3.8192,3.8192,3.7933,3.7595,0.0,0.0,0.0,0.0,0.0,0.0,0.0,0.0,0.0,0.0,0.0,0.0,0.0,0.0,0.0,0.0,0.0,0.0,0.0,0.0,0.0,0.0,0.0,0.0,0.0,0.0,0.0,0.0,0.0,0.0,0.0,0.0,0.0,3.9582,3.9824,4.0101,4.0353,4.0564,4.072,4.0796,4.0807,4.0807,4.0807,4.0867,4.0902,4.0902,4.0908,4.0903,4.0903,4.0903,4.0907,4.0907,4.0907,4.0907,4.0907,4.0907,4.0907,4.0907,4.0975,4.0996,4.0996,4.0993,4.101,4.101,4.1007,4.1007,4.1007,4.099,4.099,4.099,4.099,4.099,4.099,0.0,0.0,0.0,0.0,0.0,0.0,0.0,3.9504,3.8963,3.8392,3.8196,3.7978,3.7703,3.8016,3.8385,3.8658,3.8707,3.8658,3.8559,3.8494,0.0,0.0,0.0,0.0,3.8643,3.8673,3.8658,3.8559,3.8559,3.851,3.843,3.843,3.8401,3.8322,3.8307,3.8274,3.8225,3.8038,3.7969,3.7969,3.7969,3.7828,3.7577,0.0,0.0,0.0,0.0,0.0,0.0,0.0,0.0,0.0,0.0,0.0,0.0,0.0,0.0,0.0,0.0,0.0,0.0,0.0,0.0,0.0,0.0,0.0,0.0,0.0,0.0,0.0,0.0,0.0,0.0,0.0,0.0,3.9328,3.9514,3.9758,4.002,4.0242,4.0427,4.0615,4.0781,4.0796,4.0807,4.0807,4.0812,4.0837,4.0837,4.0828,4.0833,4.0833,4.0833,4.0858,4.0898,4.0898,4.0908,4.0907,4.0907,4.0907,4.0907,4.0975,4.0996,4.0996,4.1007,4.0991,4.1007,4.096,4.0928,4.0932,4.097,4.099,4.099,4.099,4.099,4.099,0.0,0.0,0.0,0.0,0.0,0.0,0.0,4.0085,3.9682,3.9174,3.8677,3.8251,3.7984,3.8041,3.8203,3.8417,3.8546,3.8575,3.851,3.851,0.0,0.0,0.0,3.859,3.8609,3.8609,3.8559,3.8462,3.8462,3.8415,3.8352,3.8352,3.8322,3.8257,3.8257,3.8191,3.8073,3.7951,3.7846,3.7775,3.7685,3.7576,3.7466,3.7334,3.7182,3.6989,3.6948,3.6928,3.6888,3.6684,0.0,0.0,0.0,0.0,0.0,0.0,0.0,0.0,0.0,0.0,0.0,0.0,0.0,0.0,0.0,0.0,0.0,0.0,0.0,0.0,0.0,0.0,0.0,0.0,3.9087,3.9215,3.9354,3.9611,3.9857,4.0101,4.0328,4.0537,4.0745,4.0788,4.0792,4.0792,4.0798,4.0804,4.0804,4.0801,4.0807,4.0807,4.0807,4.0818,4.0867,4.0867,4.0858,4.0854,4.0854,4.0854,4.0859,4.0936,4.0945,4.0921,4.0958,4.0963,4.095,4.0912,4.0903,4.0898,0.0,0.0,0.0,0.0,4.0949,4.0949,0.0,0.0,0.0,0.0,0.0,0.0,0.0,4.0387,4.0364,4.004,3.9434,3.8898,3.8527,3.8223,3.8073,3.8068,3.8283,3.8428,3.8478,0.0,0.0,3.8478,3.8593,3.8609,3.8494,3.8494,3.8462,3.8401,3.8401,3.8352,3.829,3.829,3.8257,3.8209,3.8175,3.8073,3.7917,3.7846,3.7721,3.7558,3.7353,3.7278,3.7297,3.7278,3.7163,3.6987,3.6849,3.6809,3.6768,3.6585,0.0,0.0,0.0,0.0,0.0,0.0,0.0,0.0,0.0,0.0,0.0,0.0,0.0,0.0,0.0,0.0,0.0,0.0,0.0,0.0,0.0,0.0,0.0,0.0,3.9007,3.9101,3.9156,3.9371,3.9634,3.9963,4.0221,4.0462,4.068,4.0746,4.0784,4.0784,4.077,4.0782,4.0782,4.0798,0.0,0.0,0.0,4.0801,4.0801,4.0801,4.0807,4.0807,4.0807,4.0801,4.0801,4.0842,4.0837,4.0782,4.0849,4.0873,4.0872,4.0878,4.0873,4.0872,4.0888,4.0898,4.0893,4.0883,4.0872,4.0867,0.0,0.0,0.0,0.0,0.0,0.0,0.0,4.0163,3.9991,3.9436,3.9255,3.8837,3.7969,3.7816,3.7803,3.7862,3.7912,3.805,0.0,0.0,3.8338,3.8338,3.8435,3.8449,3.8415,3.8415,3.8385,3.8322,3.8322,3.829,3.8225,3.8225,3.8225,3.8192,3.8021,3.7952,3.7881,3.7539,3.7391,3.7334,3.7143,3.7163,3.7278,3.7124,3.7029,3.6987,3.6849,3.6809,3.6768,3.6585,3.6502,3.6527,3.6719,0.0,0.0,0.0,0.0,0.0,0.0,0.0,0.0,0.0,0.0,0.0,0.0,0.0,0.0,0.0,0.0,0.0,0.0,0.0,0.0,3.8896,3.8921,3.8935,3.895,3.9003,3.9274,3.9922,4.0194,4.0411,4.0607,4.0628,4.0635,4.0635,4.0681,4.0707,4.0641,4.0739,4.0777,4.0713,4.0777,4.0802,4.0806,4.0806,4.0798,4.0807,4.0798,0.0,4.0806,4.075,4.0718,4.0718,4.073,4.075,4.0744,4.073,4.075,4.075,4.0801,4.0826,4.0823,4.0818,4.0781,4.0744,0.0,0.0,0.0,0.0,0.0,0.0,0.0,3.9679,3.9851,3.9671,3.9306,3.8908,3.8596,3.8374,3.8119,3.7787,3.7755,0.0,0.0,3.8189,3.8305,3.8354,3.8385,3.8366,3.8354,3.8354,3.8322,3.8241,3.8241,3.8224,3.8209,3.8209,3.8158,3.8056,3.7934,3.7793,3.7594,3.739,3.7201,3.7046,3.6948,3.6948,3.7005,3.6928,3.6908,3.6888,3.6708,3.6647,3.6609,3.6464,3.6402,3.6406,3.6553,3.6471,3.6364,0.0,0.0,0.0,0.0,0.0,0.0,0.0,0.0,0.0,0.0,0.0,0.0,0.0,0.0,3.8723,0.0,0.0,3.8762,3.8837,3.8851,3.8848,3.891,3.891,3.9096,3.9644,3.9797,3.9986,4.0356,4.0423,4.0488,4.0588,4.0628,4.0647,4.0595,4.0668,4.0674,4.0654,4.0674,4.0694,4.0707,4.0707,4.07,4.0694,4.0694,4.0707,4.0707,4.0629,4.0615,4.0654,4.0655,4.0636,4.0596,4.0596,4.0629,4.0649,4.0649,4.0694,4.0757,4.0758,4.0739,4.0707,0.0,0.0,0.0,0.0,0.0,0.0,0.0,0.0,3.9618,3.9969,3.9454,3.9106,3.9224,3.8963,3.8437,3.7667,0.0,0.0,0.0,3.7915,3.8171,3.8218,3.8302,3.8338,3.829,3.8274,3.8241,3.8209,3.8175,3.8141,3.8141,3.8089,3.8003,3.7846,3.7811,3.7594,3.7314,3.7259,3.7066,3.6809,3.6809,3.6748,3.6702,3.6728,3.6768,3.6748,3.6564,3.6502,3.6482,3.636,3.6301,3.6301,3.628,3.628,3.6255,3.6144,3.6118,0.0,0.0,0.0,0.0,0.0,0.0,0.0,0.0,0.0,3.756,3.8481,3.8673,3.8707,3.8707,3.8707,3.8723,3.8762,3.8777,3.8792,3.8851,3.8866,3.8964,3.9245,3.9332,3.9576,4.0034,4.0184,4.0317,4.0473,4.0537,4.0552,4.0564,4.0559,4.0566,4.0559,4.0566,4.0574,4.0574,4.0574,4.0574,4.0574,4.0569,4.0561,4.0559,4.0515,4.0512,4.055,4.0569,4.0523,4.0473,4.0473,4.0515,4.0557,4.0496,4.0523,4.0615,4.0621,4.0633,4.0639,0.0,0.0,0.0,0.0,0.0,0.0,0.0,0.0,0.0,3.9661,3.9671,3.9386,3.8749,3.8648,3.8237,0.0,0.0,0.0,3.6978,3.7358,3.7596,3.7596,3.8002,3.8225,3.8209,3.8209,3.8209,3.8209,3.8021,3.7934,3.7916,3.7739,3.7667,3.7631,3.7447,3.7334,3.7278,3.7105,3.693,3.6809,3.6809,3.6748,3.6681,3.6564,3.6623,3.6684,3.6544,3.6502,3.6482,3.636,3.6301,3.628,3.6229,3.6208,3.6165,3.5927,0.0,3.5817,3.5689,3.5667,3.5783,3.6312,3.6135,3.6178,0.0,0.0,3.7524,3.8346,3.8624,3.8707,3.8707,3.8707,3.8707,3.8723,3.8723,3.8704,3.8719,3.8719,3.8765,3.8866,3.9124,3.9396,3.9645,3.9893,4.0033,4.0081,4.0294,4.0425,4.0422,4.0484,4.0469,4.043,4.0489,4.0512,4.0512,4.0512,4.0512,4.0512,4.0438,4.0422,4.0422,4.0411,4.0413,4.0413,4.0413,4.0413,4.0413,4.0413,4.0413,4.0422,4.0405,4.0351,4.0267,4.0397,4.0425,4.0413,0.0,0.0,0.0,0.0,0.0,0.0,0.0,0.0,0.0,0.0,3.9001,3.9063,3.9233,3.8857,3.827,0.0,0.0,0.0,3.6471,3.6823,3.7076,3.7151,3.7412,3.7577,3.7631,3.7775,3.7846,3.7846,3.7757,3.7721,3.7721,3.7649,3.7539,3.7428,3.7334,3.7239,3.7124,3.6948,3.6829,3.6728,3.6667,3.6547,3.6461,3.6356,3.6374,3.6395,3.6353,3.6272,0.0,0.0,3.6127,3.6127,3.6084,3.6062,3.6036,3.5756,3.5689,0.0,3.5622,3.56,3.5689,0.0,3.5975,3.6023,3.6902,3.6923,3.7039,3.7911,3.8133,3.8252,3.8481,3.853,3.853,0.0,3.853,3.8546,3.8575,3.8562,3.8544,3.8621,3.8707,3.8947,3.9371,3.9463,3.9564,3.9746,3.9983,4.012,4.0167,4.0332,4.0419,4.0402,4.0419,4.0427,4.0427,4.0427,4.0411,4.0321,4.0307,4.0233,4.0167,4.0129,4.0109,4.0109,4.0109,4.0128,4.0158,4.0118,4.0109,4.0099,4.0109,4.0029,3.9939,4.0186,4.0223,4.0167,0.0,0.0,0.0,0.0,0.0,0.0,0.0,0.0,0.0,0.0,0.0,0.0,0.0,0.0,0.0,0.0,0.0,0.0,0.0,3.6211,3.6525,3.6623,3.6821,3.6958,3.6999,3.7207,3.7301,3.7301,3.7226,3.7225,3.7225,3.7167,3.7052,3.6913,3.6913,3.6796,3.6577,3.6492,3.6346,3.6216,3.6131,3.5968,3.582,3.5788,3.5722,3.5677,3.5849,3.5849,0.0,0.0,3.5655,3.5766,3.5739,3.5783,3.5844,3.5622,3.5571,3.5571,3.5571,0.0,0.0,3.5844,3.5822,3.5932,3.6412,3.6495,3.6664,3.7415,3.7614,3.7773,3.815,3.8234,3.8267,3.8382,3.8399,3.8415,3.8478,3.843,3.8415,3.8478,3.843,3.8569,3.9008,3.9027,3.9125,3.9352,3.9576,3.9731,3.9786,3.9953,4.0071,4.0071,4.0148,4.0168,4.0168,4.0234,4.0215,4.012,4.0109,4.0068,3.997,3.9903,3.9848,3.9837,3.9751,3.9785,3.9903,3.9762,3.9751,3.9796,3.9709,3.9555,3.9451,3.9701,3.9851,3.991,0.0,0.0,0.0,0.0,0.0,0.0,0.0,0.0,0.0,0.0,0.0,0.0,0.0,0.0,0.0,0.0,0.0,0.0,0.0,3.5571,3.5929,3.5912,3.6302,3.6531,3.6513,3.6531,3.6513,3.6513,3.634,3.6236,3.6253,3.6041,3.595,3.5933,3.5933,3.5786,3.5548,3.5548,3.5346,3.5041,3.5041,3.4901,3.4648,3.4648,3.4479,3.4358,3.4995,0.0,0.0,0.0,3.4807,3.5197,3.5068,3.5293,0.0,3.552,3.5492,0.0,0.0,0.0,3.56,3.5622,3.5706,3.5905,3.6237,3.6454,3.6681,3.6962,3.7116,3.7341,3.7738,3.7826,3.7947,3.8334,3.8399,3.8399,3.8399,3.8399,3.8399,3.8399,3.8399,3.8399,0.0,3.8658,3.8799,3.8814,3.9058,3.9231,3.9231,3.9231,3.9231,3.9231,3.9489,3.9623,3.9623,3.9815,3.9911,3.9911,3.9911,3.9911,3.99,3.9826,3.9781,3.9693,3.9364,3.9408,3.9675,3.9352,3.9371,3.9556,3.9193,3.8915,3.8732,3.8746,3.9141,3.9693,0.0,0.0,0.0,0.0,0.0,0.0,0.0,0.0,0.0,0.0,0.0,0.0,0.0,0.0,0.0,0.0,0.0,0.0,0.0,3.4661,3.483,3.5224,3.5577,3.582,3.5885,3.6041,3.6109,3.6109,3.6041,3.5998,3.5998,3.5912,3.5907,3.589,3.5698,3.557,3.5481,3.5255,3.5111,3.4971,3.4807,3.4671,3.4576,3.4406,3.4284,3.4186,0.0,0.0,0.0,0.0,0.0,0.0,3.4227,0.0,0.0,3.4569,0.0,0.0,0.0,0.0,3.5435,3.5554,3.5594,3.5656,3.58,3.5893,3.6049,3.6454,3.6577,3.6721,3.7114,3.719,3.7322,3.7738,3.7791,3.793,3.8271,3.8289,3.8272,3.8322,3.8289,0.0,0.0,0.0,0.0,3.8538,3.8726,3.8839,3.8726,3.8906,3.8943,3.8809,3.8897,3.8938,3.8938,3.9005,3.8992,3.8915,3.8873,3.8802,3.8707,3.8678,3.8615,3.8504,3.8383,3.8398,3.8504,3.8383,3.837,3.8404,3.8321,3.818,3.8038,3.8087,3.8232,3.842,0.0,0.0,0.0,0.0,0.0,0.0,0.0,0.0,0.0,0.0,0.0,0.0,0.0,0.0,0.0,0.0,0.0,0.0,0.0,0.0,3.3686,3.3754,3.4079,3.4349,3.4576,3.4693,3.4898,3.5197,3.5197,3.5197,3.526,3.526,3.526,3.5243,3.5081,3.4948,3.483,3.4585,3.4407,3.4292,3.407,3.3944,3.3878,3.37,3.3598,0.0,0.0,0.0,0.0,0.0,0.0,0.0,0.0,0.0,0.0,0.0,0.0,0.0,0.0,3.5268,3.5337,3.5458,3.5475,3.5429,3.5481,3.5487,3.5594,3.5871,3.5937,3.6088,3.6478,3.658,3.6761,3.7152,3.7377,3.7614,3.7966,3.8122,3.8225,3.8257,3.8242,3.8175,0.0,0.0,0.0,3.8322,3.8446,3.8457,3.8293,3.8444,3.8453,3.8245,3.8306,3.8352,3.8352,3.8429,3.8432,3.8293,3.8186,3.8107,3.799,3.799,3.7922,3.7819,3.77,3.7717,3.7819,3.77,3.7683,3.7718,3.7613,3.7506,3.7416,3.7452,3.7361,3.7288,0.0,0.0,0.0,0.0,0.0,0.0,0.0,0.0,0.0,0.0,0.0,0.0,0.0,0.0,0.0,0.0,0.0,0.0,0.0,0.0,0.0,3.1771,3.202,3.2338,3.2652,3.2652,3.3019,3.3781,3.3781,3.3857,3.3984,3.3984,3.3984,3.3984,3.3958,3.3806,3.3575,3.3435,3.3224,3.2989,3.2897,3.2718,3.2551,3.2578,0.0,0.0,0.0,0.0,0.0,0.0,0.0,0.0,0.0,0.0,0.0,0.0,0.0,3.5065,3.5088,3.5198,3.5291,3.5291,3.5291,3.5291,3.5291,3.5291,3.5291,3.5291,3.5291,3.5412,0.0,0.0,3.6186,3.6586,3.7078,3.7414,3.7469,3.7862,3.814,0.0,0.0,0.0,0.0,0.0,0.0,3.814,3.8175,3.8072,3.7881,3.7864,3.7793,3.7594,3.7738,3.7842,3.7842,3.8096,3.816,3.8041,3.7904,3.7802,3.7735,3.7735,3.7683,3.7613,3.7284,3.7323,3.7596,3.7266,3.7284,3.7488,3.7097,3.6902,3.6841,3.6841,3.6618,3.6392,0.0,0.0,0.0,0.0,0.0,0.0,0.0,0.0,0.0,0.0,0.0,0.0,0.0,0.0,0.0,0.0,0.0,0.0,0.0,0.0,0.0,0.0,0.0,0.0,0.0,0.0,0.0,3.2252,3.2252,3.228,3.2307,3.2307,3.2307,3.2307,3.2103,3.1995,3.1911,3.166,3.1504,3.1491,0.0,3.1992,3.1977,0.0,0.0,0.0,0.0,0.0,0.0,0.0,0.0,0.0,0.0,0.0,3.3082,0.0,0.0,3.4521,3.4994,3.5111,3.5175,3.5268,3.5222,3.5175,3.5268,3.5291,3.5291,3.5291,3.5291,3.5337,0.0,0.0,0.0,3.6041,3.6215,0.0,3.7111,3.7318,0.0,3.7721,0.0,3.7739,3.7685,3.7685,0.0,0.0,3.7757,3.7667,3.7466,3.7447,3.7353,3.7163,3.7108,3.7091,3.7091,3.7091,3.7091,3.7052,3.7015,3.6937,3.6821,3.6821,3.6739,3.6577,3.6489,3.6451,3.6437,3.6329,3.6346,3.6392,3.6305,3.6241,3.6237,3.6237,3.6152,3.611,0.0,0.0,0.0,0.0,0.0,0.0,0.0,0.0,0.0,0.0,0.0,0.0,0.0,0.0,0.0,0.0,0.0,0.0,0.0,0.0,0.0,0.0,0.0,0.0,0.0,0.0,0.0,0.0,0.0,0.0,3.1271,3.1271,3.1271,3.1243,3.1157,3.1114,3.1114,3.0822,0.0,0.0,0.0,0.0,0.0,0.0,0.0,0.0,0.0,0.0,0.0,0.0,0.0,3.1996,3.194,3.2219,3.2656,3.2884,0.0,3.4243,3.457,3.4828,3.5018,3.5105,3.5065,3.5018,3.5105,3.5111,3.5111,3.5111,3.5111,0.0,3.5111,3.5175,0.0,0.0,0.0,0.0,3.6498,3.6721,3.6958,0.0,3.7374,0.0,3.7466,3.7466,3.7447,0.0,3.7485,3.7503,3.7316,3.7297,3.7201,3.7007,3.6869,3.6788,3.6766,3.6664,3.6623,3.6623,3.6544,3.6461,3.6377,3.6377,3.6272,3.6122,3.6122,3.6079,3.5997,3.5997,3.5997,3.5997,3.5997,3.5997,3.5997,3.5997,3.5997,3.5997,0.0,0.0,0.0,0.0,0.0,0.0,0.0,0.0,0.0,0.0,0.0,0.0,0.0,0.0,0.0,0.0,0.0,0.0,0.0,0.0,0.0,0.0,0.0,0.0,0.0,0.0,0.0,0.0,0.0,0.0,0.0,0.0,0.0,0.0,0.0,0.0,0.0,0.0,0.0,0.0,0.0,0.0,0.0,0.0,0.0,0.0,0.0,0.0,0.0,0.0,3.1826,3.1968,3.187,3.2163,3.2574,3.2465,3.3166,3.3984,3.3984,3.4308,3.4675,3.4763,3.4787,3.4811,3.4899,3.4899,3.4899,3.4899,0.0,3.4899,3.4899,3.4994,3.5065,3.5065,0.0,3.5776,3.5842,3.6092,3.6467,3.6935,3.6954,3.6993,3.7201,3.722,3.7143,3.6968,3.7279,3.741,3.7239,3.7238,3.7124,3.6948,3.6829,3.6728,3.6643,3.6523,3.6464,3.6464,3.636,3.6255,3.6204,3.6182,3.6101,3.5975,3.5975,3.5954,3.5954,3.5954,3.5954,3.5954,3.5954,3.5954,3.5954,3.5954,3.5954,3.5954,0.0,0.0,0.0,0.0,0.0,0.0,0.0,0.0,0.0,0.0,3.2386,3.2386,0.0,0.0,0.0,0.0,0.0,0.0,0.0,0.0,0.0,0.0,0.0,0.0,0.0,0.0,0.0,0.0,0.0,0.0,0.0,0.0,0.0,0.0,0.0,0.0,0.0,0.0,0.0,0.0,0.0,0.0,0.0,0.0,0.0,0.0,0.0,0.0,0.0,0.0,3.1423,3.1996,3.1968,3.2274,3.2602,3.2559,3.2949,3.3355,3.3355,3.3433,3.3614,3.4109,3.425,3.4349,3.4804,3.4899,0.0,0.0,3.4899,3.4899,3.4899,3.4923,3.4923,3.4923,0.0,0.0,0.0,0.0,3.5537,0.0,3.6245,3.6287,3.6766,3.6806,0.0,0.0,3.6806,3.6866,3.6888,3.6829,3.6745,3.6585,3.6547,3.6485,3.6364,3.636,3.6322,3.6322,3.6255,3.6208,3.6204,3.6101,3.5971,3.5839,3.5839,3.5756,3.5667,3.5667,3.5667,3.5667,3.5667,3.5667,3.5667,3.5667,3.5667,3.5667,0.0,0.0,0.0,0.0,0.0,0.0,0.0,3.1619,3.189,3.189,3.1963,3.2073,3.2182,3.2218,3.2218,0.0,0.0,0.0,0.0,0.0,0.0,0.0,0.0,0.0,0.0,0.0,0.0,0.0,0.0,0.0,0.0,0.0,0.0,0.0,0.0,0.0,0.0,0.0,0.0,0.0,0.0,0.0,0.0,0.0,0.0,0.0,0.0,0.0,0.0,0.0,3.0984,3.1452,3.1798,3.2025,3.2163,3.2064,3.2382,3.2788,3.2788,3.2986,3.3277,3.3553,3.3646,3.3697,3.396,0.0,0.0,0.0,3.4267,3.4472,3.4472,3.4715,0.0,3.4899,0.0,0.0,0.0,0.0,0.0,0.0,0.0,3.571,0.0,3.6364,3.6564,3.6301,3.6482,3.6643,3.6745,3.6722,3.6643,3.6502,3.6502,3.6423,3.6301,3.6301,3.6301,3.6301,3.6276,3.6191,3.6101,3.6019,3.5888,3.5706,3.5706,3.5667,3.56,3.56,3.56,3.56,3.56,3.56,3.56,3.56,3.56,3.56,0.0,0.0,0.0,0.0,0.0,0.0,0.0,3.0595,3.111,3.1286,3.1471,3.1693,3.2036,3.2146,3.2182,0.0,0.0,0.0,0.0,0.0,0.0,0.0,0.0,0.0,0.0,0.0,0.0,0.0,0.0,0.0,0.0,0.0,0.0,0.0,0.0,0.0,0.0,0.0,0.0,0.0,0.0,0.0,0.0,0.0,0.0,0.0,0.0,0.0,0.0,0.0,3.0374,3.0837,3.1351,3.1626,3.1698,3.1539,3.1824,3.2203,3.2203,3.2504,3.2879,3.2986,3.3013,3.3066,3.3156,3.3182,0.0,0.0,3.3594,3.3958,3.4075,0.0,3.478,0.0,3.4899,3.4899,0.0,0.0,0.0,0.0,0.0,0.0,3.5054,3.5798,0.0,3.571,3.5963,3.6276,3.6602,3.6623,3.6582,3.6444,3.6444,3.6402,3.6301,3.6301,3.6301,3.6301,3.6259,3.6152,3.5997,3.5932,3.58,3.56,3.56,3.56,3.56,3.56,3.56,3.56,3.56,3.56,3.56,3.56,3.56,3.56,0.0,0.0,0.0,0.0,0.0,0.0,0.0,2.919,2.9525,3.0317,3.0444,3.0759,3.1559,3.1963,3.2146,0.0,0.0,0.0,0.0,0.0,0.0,0.0,0.0,0.0,0.0,0.0,0.0,0.0,0.0,0.0,0.0,0.0,0.0,0.0,0.0,0.0,0.0,0.0,0.0,0.0,0.0,0.0,0.0,0.0,0.0,0.0,0.0,0.0,0.0,0.0,0.0,3.0554,3.0614,3.1029,3.1511,3.1511,0.0,0.0,3.1582,3.1611,3.1796,3.2342,3.2465,3.2586,3.3093,0.0,0.0,3.3182,3.3251,3.3449,3.4009,3.4151,3.4325,3.4828,0.0,3.4899,0.0,0.0,0.0,0.0,0.0,0.0,3.4816,3.4911,3.4934,3.4911,3.4934,3.5351,3.628,3.6343,3.6322,3.6322,3.6322,3.6322,3.6301,3.6301,3.6301,3.6301,3.611,3.6019,3.5997,3.5756,3.5622,3.56,3.56,3.56,3.56,3.56,3.56,3.56,3.56,3.56,3.56,3.56,3.56,3.56,0.0,0.0,0.0,0.0,0.0,0.0,2.7907,2.8323,2.8758,2.9096,2.924,2.9473,2.9833,3.0126,3.067,3.1633,0.0,0.0,0.0,0.0,0.0,0.0,0.0,0.0,0.0,0.0,0.0,2.9797,2.9444,0.0,0.0,0.0,0.0,0.0,0.0,0.0,0.0,0.0,0.0,0.0,0.0,0.0,0.0,0.0,0.0,0.0,0.0,0.0,0.0,0.0,0.0,0.0,2.9735,3.0238,0.0,0.0,3.1511,3.1511,3.1511,3.1511,3.1553,3.1796,3.1853,3.191,3.2132,0.0,3.2173,3.2173,3.2477,3.2895,3.3449,3.3841,3.4275,3.4811,0.0,0.0,3.4899,0.0,0.0,0.0,3.4472,0.0,0.0,0.0,3.4793,3.4793,3.4793,3.4958,3.5374,3.5705,3.6006,3.6301,3.6301,3.6301,3.6301,3.6301,3.6301,3.6301,3.5854,3.5611,3.5504,3.4988,3.4704,3.4649,3.4649,3.4649,3.4649,3.4649,3.4649,3.4649,3.4649,3.4649,3.4649,3.4649,3.4649,3.4649,0.0,0.0,0.0,0.0,0.0,2.6828,2.6828,2.7284,2.7758,2.7999,2.8176,2.8335,2.86,2.8745,2.9305,3.057,3.096,0.0,0.0,0.0,0.0,0.0,0.0,0.0,0.0,0.0,3.0348,3.0348,2.998,2.9784,0.0,0.0,0.0,0.0,0.0,0.0,0.0,0.0,0.0,0.0,0.0,0.0,0.0,0.0,0.0,0.0,0.0,0.0,0.0,0.0,0.0,0.0,0.0,0.0,0.0,0.0,3.1322,3.1438,3.1511,3.1511,3.1511,3.1511,3.1511,3.1511,0.0,0.0,3.1511,3.1511,3.1824,3.2299,3.2868,3.3439,3.4034,3.457,0.0,3.4899,3.4899,3.4739,0.0,0.0,0.0,3.4226,0.0,3.3993,3.435,3.435,3.435,3.4423,3.4569,3.4951,3.5368,3.5837,3.5859,3.5837,3.5798,3.5798,3.5776,3.5715,3.5266,3.5012,3.4878,3.4358,3.4078,3.4011,3.4011,3.4011,3.4011,3.4011,3.4011,3.4011,3.4011,3.4011,3.4011,3.4011,3.4011,3.4011,0.0,0.0,0.0,0.0,0.0,0.0,2.5895,2.5937,2.6218,2.7103,2.7226,2.7528,2.8307,2.8386,2.8426,2.8426,2.9408,0.0,0.0,0.0,0.0,0.0,0.0,0.0,0.0,0.0,3.0973,3.0973,3.1011,3.096,3.096,3.096,3.096,0.0,0.0,0.0,0.0,0.0,0.0,0.0,0.0,0.0,0.0,0.0,0.0,0.0,0.0,0.0,0.0,0.0,0.0,0.0,0.0,0.0,0.0,0.0,3.0896,3.1322,3.1467,3.1511,3.1511,3.1511,3.1511,3.1511,0.0,0.0,3.1511,3.1511,3.1496,3.1697,3.2287,3.2841,3.3423,3.4009,3.4546,0.0,3.4899,3.4899,0.0,0.0,0.0,3.43,3.3761,3.3477,3.3335,3.3335,3.3335,3.3555,3.4075,3.4126,3.4333,3.4793,3.4833,3.4752,3.4624,3.4624,3.4552,3.4431,3.4284,3.4211,3.4211,3.407,3.4011,3.4011,3.4011,3.4011,3.4011,3.4011,3.4011,3.4011,3.4011,3.4011,3.4011,3.4011,3.4011,3.4011,0.0,0.0,0.0,0.0,0.0,0.0,0.0,2.5895,2.6021,2.626,2.6302,2.6415,2.6652,2.6693,2.6693,2.6693,2.8028,0.0,0.0,0.0,0.0,0.0,0.0,0.0,0.0,0.0,3.0986,3.0986,3.0254,3.0228,3.0773,3.0037,3.0037,3.0583,3.0453,0.0,0.0,0.0,0.0,0.0,0.0,0.0,0.0,0.0,0.0,0.0,0.0,0.0,0.0,0.0,0.0,0.0,0.0,0.0,0.0,0.0,0.0,0.0,3.122,3.122,3.122,3.122,3.122,3.122,3.122,0.0,3.1249,3.1351,3.1351,3.1567,3.2259,3.2422,3.2799,3.3933,3.4127,0.0,0.0,0.0,0.0,3.425,3.3899,3.3607,0.0,0.0,3.3309,3.3309,3.3309,3.3372,3.3555,3.3555,3.3933,3.4769,3.4793,3.4745,3.46,3.46,3.4528,3.4382,3.3887,3.3659,3.3649,3.3119,3.2911,3.2911,3.2911,3.2911,3.2911,3.2911,3.2911,3.2911,3.2911,3.2911,3.2911,3.2911,3.2911,3.2911,0.0,0.0,0.0,0.0,0.0,0.0,0.0,2.5895,2.5895,2.5895,2.5895,2.5895,2.5895,2.5895,2.5895,2.5895,2.6846,0.0,0.0,0.0,0.0,0.0,0.0,0.0,3.0024,2.9935,2.9896,2.9896,2.9162,2.9252,3.0088,2.9406,2.9561,3.0406,3.0533,3.0622,0.0,0.0,0.0,0.0,0.0,0.0,3.0986,0.0,0.0,0.0,0.0,0.0,0.0,0.0,0.0,0.0,0.0,0.0,0.0,0.0,0.0,0.0,0.0,3.1117,3.1117,3.1117,3.1117,0.0,0.0,0.0,3.1132,3.122,3.1263,3.1452,3.1894,3.2104,3.2544,3.3594,3.385,0.0,0.0,0.0,0.0,3.4126,0.0,0.0,0.0,3.3346,3.3309,3.3309,3.3309,3.3309,3.3309,3.3309,3.3591,3.4202,3.4226,3.4177,3.4036,3.3969,3.3869,3.3726,3.3251,3.3013,3.3013,3.2586,3.2398,3.2398,3.2398,3.2398,0.0,3.2398,3.2398,3.2398,3.2398,3.2398,3.2398,3.2398,3.2398,3.2398,0.0,0.0,0.0,0.0,0.0,0.0,0.0,2.5895,2.5895,2.5895,2.5895,2.5895,2.5895,2.5895,2.5895,2.5895,0.0,0.0,0.0,0.0,0.0,0.0,0.0,0.0,2.8347,2.8176,2.8084,2.8084,2.7804,2.8136,2.8964,2.8912,2.9355,3.0203,3.0203,3.033,0.0,0.0,0.0,0.0,0.0,0.0,0.0,0.0,0.0,0.0,0.0,0.0,0.0,0.0,0.0,0.0,0.0,0.0,0.0,0.0,0.0,0.0,0.0,0.0,0.0,0.0,0.0,0.0,0.0,0.0,0.0,3.1087,3.1176,3.1263,3.1278,3.1838,3.2492,3.3066,3.3646,0.0,0.0,3.4448,0.0,0.0,3.3822,0.0,3.3668,3.345,3.3309,3.3309,3.3309,3.3309,3.3309,3.3309,3.3309,3.3282,3.3282,3.3229,3.3085,3.2951,3.2773,3.2578,3.2453,3.2398,3.2398,3.2398,3.2398,3.2398,3.2398,3.2398,3.2398,3.2398,3.2398,3.2398,3.2398,3.2398,3.2398,3.2398,3.2398,3.2398,0.0,0.0,0.0,0.0,0.0,0.0,0.0,0.0,0.0,0.0,2.5895,2.5895,2.5895,2.5895,2.5895,0.0,0.0,0.0,0.0,0.0,0.0,0.0,0.0,0.0,2.7964,2.7884,2.7872,2.7872,2.6953,2.6964,2.7867,2.6964,2.7168,2.8187,2.8187,2.8676,0.0,0.0,0.0,0.0,0.0,0.0,0.0,0.0,0.0,0.0,3.0773,3.0683,0.0,0.0,0.0,0.0,0.0,0.0,0.0,0.0,2.862,0.0,3.0342,0.0,3.0732,3.0732,3.0732,3.0732,0.0,0.0,0.0,0.0,0.0,0.0,0.0,0.0,0.0,0.0,0.0,0.0,3.4126,0.0,0.0,3.3529,3.3424,3.3398,3.3398,3.3319,3.3309,3.3309,3.3309,3.3309,3.3309,3.3309,3.3256,3.315,3.315,3.3085,3.2951,3.2773,3.2594,3.2453,3.2425,3.2398,3.2398,3.2398,3.2398,3.2398,3.2398,3.2398,3.2398,3.2398,3.2398,3.2398,3.2398,3.2398,3.2398,3.2398,3.2398,3.2398,0.0,0.0,0.0,0.0,0.0,0.0,0.0,0.0,0.0,0.0,0.0,0.0,0.0,0.0,0.0,0.0,0.0,0.0,0.0,0.0,0.0,0.0,0.0,2.6719,2.6595,2.6513,2.6472,2.6472,2.5746,2.5841,2.673,2.6069,2.6359,2.7354,2.7839,2.849,0.0,0.0,0.0,0.0,3.0672,0.0,0.0,0.0,0.0,0.0,3.066,3.0698,0.0,3.0098,2.974,2.9346,0.0,0.0,0.0,0.0,2.8448,2.8748,2.9839,3.0387,3.0598,3.0598,3.0598,3.0598,0.0,0.0,0.0,0.0,0.0,0.0,0.0,0.0,0.0,0.0,3.2788,0.0,0.0,0.0,3.3745,3.3361,3.3398,3.3424,3.3293,3.3309,3.3309,3.3309,3.3309,3.3309,3.3309,3.3309,3.3282,3.3203,3.3069,3.2978,3.2897,3.2703,3.2551,3.2496,3.2425,3.2398,3.2398,3.2398,3.2398,3.2398,3.2398,3.2398,3.2398,3.2398,3.2398,3.2398,3.2398,3.2398,3.2398,3.2398,3.2398,3.2398,0.0,0.0,0.0,0.0,0.0,0.0,0.0,0.0,0.0,0.0,0.0,0.0,0.0,0.0,0.0,0.0,0.0,0.0,0.0,0.0,0.0,0.0,2.4945,2.52,2.5158,2.4946,2.4828,2.4828,2.4625,2.4861,2.5579,2.5579,2.608,2.6946,2.7971,2.8661,0.0,0.0,3.0241,0.0,3.0406,0.0,0.0,0.0,0.0,0.0,0.0,0.0,0.0,3.0228,2.991,2.9539,2.9063,0.0,0.0,0.0,0.0,0.0,2.9359,3.0007,3.0477,3.0568,3.0598,3.0598,0.0,0.0,0.0,0.0,0.0,0.0,0.0,0.0,0.0,0.0,0.0,0.0,3.3617,3.3848,3.3797,3.3346,3.3503,3.3555,3.3335,3.3309,3.3309,3.3309,3.3309,3.3309,3.3309,3.3309,3.3309,3.3282,3.3058,3.2924,3.2897,3.2676,3.2578,3.2578,3.2453,3.2398,3.2398,3.2398,3.2398,3.2398,3.2398,3.2398,3.2398,3.2398,3.2398,3.2398,3.2398,3.2398,3.2398,3.2398,3.2398,3.2398,0.0,0.0,0.0,0.0,0.0,0.0,0.0,0.0,0.0,0.0,0.0,0.0,0.0,0.0,0.0,0.0,0.0,0.0,0.0,0.0,0.0,2.4314,2.4872,2.5115,2.4946,2.47,2.4583,2.4583,2.454,2.4583,2.47,2.47,2.5137,2.6027,2.6599,2.7499,2.8621,2.9081,2.9613,3.0152,3.033,0.0,0.0,0.0,0.0,0.0,0.0,0.0,0.0,3.0343,3.0203,2.9897,2.9327,0.0,0.0,0.0,0.0,0.0,2.9233,2.9685,2.9901,3.0447,3.0598,3.0598,0.0,0.0,0.0,0.0,0.0,0.0,0.0,3.0895,3.1409,0.0,0.0,3.3565,0.0,0.0,3.3398,3.3309,3.3335,3.3361,3.3293,3.3309,3.3309,3.3309,3.3309,3.3309,3.3309,3.3309,3.3256,3.3123,3.3096,3.3005,3.2897,3.2578,3.2425,3.2425,3.2425,3.2398,3.2398,3.2398,3.2398,3.2398,3.2398,3.2398,3.2398,3.2398,3.2398,3.2398,3.2398,3.2398,3.2398,3.2398,3.2398,3.2398,0.0,0.0,0.0,0.0,0.0,0.0,0.0,0.0,0.0,0.0,0.0,0.0,0.0,0.0,0.0,0.0,0.0,0.0,0.0,0.0,2.5742,2.5007,2.5094,2.5031,2.47,2.4583,2.4497,2.4497,2.4497,2.4733,2.5221,2.5673,2.6133,2.6524,2.7244,2.7931,2.8542,2.9197,2.965,2.9934,0.0,0.0,0.0,0.0,0.0,0.0,0.0,0.0,0.0,0.0,3.0075,3.0037,2.9656,0.0,0.0,0.0,0.0,0.0,2.8922,2.9608,3.0312,3.0538,3.0598,3.0598,0.0,0.0,0.0,0.0,0.0,0.0,0.0,0.0,3.119,3.1977,0.0,3.3797,3.3529,3.3633,3.3617,3.3319,3.3424,3.345,3.3293,3.3309,3.3309,3.3309,3.3309,3.3309,3.3309,3.3309,3.3282,3.3203,3.3123,3.3032,3.2897,3.2315,3.2188,3.2523,3.2425,3.2398,3.2398,3.2398,3.2398,3.2398,3.2398,3.2398,3.2398,3.2398,3.2398,3.2398,3.2398,3.2398,3.237,3.202,3.2104,3.2342,0.0,0.0,0.0,0.0,0.0,0.0,0.0,0.0,0.0,0.0,0.0,0.0,0.0,0.0,0.0,0.0,0.0,0.0,0.0,2.6312,2.6141,2.5765,2.5466,2.5061,2.4583,2.454,2.4615,2.4775,2.4775,2.5263,2.611,2.6782,2.7232,2.7476,2.8171,2.8621,2.8831,2.9507,2.9792,2.9792,0.0,0.0,0.0,0.0,0.0,0.0,0.0,0.0,0.0,0.0,0.0,0.0,0.0,0.0,0.0,2.8423,2.865,2.9026,2.8766,2.9568,3.0538,3.0598,0.0,0.0,0.0,0.0,0.0,0.0,0.0,0.0,0.0,3.0925,0.0,3.1908,3.3044,3.3704,3.3346,3.3642,3.3745,3.3361,3.3477,3.3529,3.3335,3.3309,3.324,3.3145,3.3134,3.3107,3.2985,3.2958,3.2958,3.2958,3.2796,3.266,3.2566,3.1836,3.1836,3.2551,3.216,3.2048,3.2188,3.202,3.2048,3.2203,3.2203,3.2287,3.2398,3.2398,3.2398,3.2398,3.2398,3.2315,3.212,3.1644,3.1791,3.2122,0.0,0.0,0.0,0.0,0.0,0.0,0.0,0.0,0.0,0.0,0.0,0.0,0.0,0.0,0.0,0.0,0.0,0.0,0.0,2.7577,2.7136,2.6196,2.5776,2.5355,2.4871,2.4615,2.4903,2.5704,2.5704,2.6152,2.7028,2.7069,2.7557,2.8422,2.8462,2.8961,2.9702,2.9753,2.9792,2.9792,2.9792,0.0,0.0,0.0,0.0,0.0,0.0,0.0,0.0,0.0,0.0,0.0,0.0,0.0,2.8888,2.8838,2.8628,2.8491,2.91,2.9444,2.9839,3.0447,3.0821,0.0,3.0672,3.0702,0.0,3.0642,0.0,0.0,0.0,3.1349,3.1934,3.2299,3.2776,3.3124,3.3266,3.3319,3.3319,3.3293,3.3335,3.3335,3.3309,3.3309,3.3134,3.2683,3.2656,3.2465,3.202,3.1992,3.1992,3.1992,3.1707,3.1521,3.1521,3.1013,3.1319,3.2398,3.1218,3.097,3.1537,3.0911,3.097,3.1566,3.1566,3.1879,3.2398,3.2398,3.2398,3.2398,3.2398,3.2048,3.1554,3.1451,3.1426,3.1544,0.0,0.0,0.0,0.0,0.0,0.0,0.0,0.0,0.0,0.0,0.0,0.0,0.0,0.0,0.0,0.0,0.0,0.0,0.0,2.8074,2.7677,2.7142,2.7272,2.6953,2.6151,2.5583,2.5463,2.5777,2.6935,2.7637,2.7971,2.8554,2.8961,2.93,2.93,2.9495,2.9792,2.9792,2.9792,2.9792,2.9792,2.9792,0.0,0.0,0.0,0.0,0.0,0.0,0.0,0.0,2.9792,2.9792,2.9792,2.9641,2.9402,2.9001,2.9186,2.9434,2.9315,2.9901,3.0538,3.0598,3.0896,0.0,0.0,3.0762,3.0851,3.0984,3.1043,0.0,0.0,0.0,3.168,3.2176,3.2547,3.2873,3.324,3.3309,3.3309,3.3309,3.3309,3.3187,3.2888,3.2861,3.2656,3.2216,3.2145,3.2104,3.1908,3.1908,3.1908,3.1908,3.1549,3.1377,3.1276,3.0539,3.051,3.1218,3.0718,3.0629,3.0881,3.0614,3.0644,3.0881,3.0881,3.0999,3.1218,3.1218,3.1218,3.1263,3.1634,3.1869,3.1946,3.1486,3.1604,3.1934,0.0,0.0,0.0,0.0,0.0,0.0,0.0,0.0,0.0,0.0,0.0,0.0,0.0,0.0,0.0,0.0,0.0,0.0,2.8664,2.8313,2.8174,2.8233,2.8076,2.792,2.7845,2.6886,2.6515,2.6648,2.8171,2.8922,2.8922,2.9534,2.9792,2.9792,2.9792,2.9792,2.9792,2.9792,2.9792,2.9792,2.9792,2.9792,0.0,0.0,0.0,0.0,0.0,0.0,0.0,0.0,2.9792,2.9792,2.9792,2.9792,2.9716,2.9315,2.9665,3.0112,2.9693,3.0277,3.0955,0.0,0.0,0.0,3.0999,3.0881,3.0881,3.1087,3.1205,0.0,3.1146,0.0,0.0,0.0,3.2104,3.2355,3.278,3.285,3.285,3.285,3.285,3.2726,3.241,3.2367,3.2188,3.1737,3.1709,3.1667,3.1508,3.148,3.148,3.148,3.1072,3.0778,3.0703,2.9839,2.9591,2.9886,2.9886,2.9995,3.0178,2.9979,2.9995,3.0178,3.0178,3.0414,3.0784,3.0784,3.0915,3.1101,3.1286,3.1607,3.1925,3.1492,3.1596,3.1943,0.0,0.0,0.0,0.0,0.0,0.0,0.0,0.0,0.0,0.0,0.0,0.0,0.0,0.0,0.0,0.0,0.0,0.0,2.8441,2.8395,2.8689,2.9361,2.7863,2.7924,2.9762,2.8499,2.804,2.8502,2.9378,2.9792,2.9792,2.9792,2.9792,2.9792,2.9792,2.9792,2.9792,2.9792,2.9792,2.9792,2.9792,2.9792,2.9792,0.0,0.0,0.0,0.0,0.0,0.0,0.0,2.9792,2.9792,2.9792,2.9792,2.9792,2.9792,2.9991,3.022,3.0207,3.0502,3.0806,0.0,0.0,0.0,3.1263,3.1058,3.0791,3.0791,0.0,3.1043,3.0821,3.0955,0.0,3.1466,3.1394,3.1452,3.1851,3.1908,3.1908,3.1908,3.1908,3.1908,3.1908,3.1908,3.1724,3.1307,3.1278,3.1073,3.0628,3.0598,3.0598,3.0612,2.9943,2.9602,2.9602,2.894,2.8587,2.8587,2.86,2.8912,2.9473,2.8881,2.8944,2.9487,2.9501,3.0213,3.1375,3.1375,3.1751,3.2219,3.1552,3.1301,3.1319,3.1301,3.13,3.1382,0.0,0.0,0.0,0.0,0.0,0.0,0.0,0.0,0.0,0.0,0.0,0.0,0.0,0.0,0.0,0.0,0.0,0.0,2.8664,2.8664,2.871,2.8689,2.9545,2.9913,2.972,2.9755,2.9631,2.9417,2.9663,2.9792,2.9792,2.9792,2.9792,2.9792,2.9792,2.9792,2.9792,2.9792,2.9792,2.9792,2.9792,2.9792,2.9792,0.0,0.0,0.0,0.0,0.0,0.0,0.0,0.0,0.0,2.9792,2.9792,2.9792,2.9792,3.0375,3.0943,3.046,3.0977,0.0,3.0938,0.0,0.0,0.0,3.1058,0.0,0.0,3.0999,3.0925,3.0984,3.0866,0.0,3.1422,3.1394,3.1452,3.1851,3.1908,3.1908,3.1908,3.1908,3.1794,3.1509,3.1481,3.1307,3.0836,3.0807,3.0747,3.0598,3.0598,3.0492,3.0264,2.982,2.9477,2.9257,2.8812,2.8587,2.86,2.9021,2.9111,2.8862,2.9105,2.9329,2.9525,2.9945,3.0347,3.0713,3.0713,3.1059,3.1578,3.1371,3.1576,3.1924,3.1915,3.1911,3.1938,0.0,0.0,0.0,0.0,0.0,0.0,0.0,0.0,0.0,0.0,0.0,0.0,0.0,0.0,0.0,0.0,0.0,0.0,0.0,2.9152,2.9463,2.9681,3.0633,3.0832,3.0138,3.065,3.0658,3.0118,2.9892,2.9792,2.9792,2.9792,2.9792,2.9792,2.9792,2.9792,2.9792,2.9792,2.9792,2.9792,2.9792,2.9792,2.9792,0.0,0.0,0.0,0.0,0.0,0.0,0.0,0.0,0.0,2.9792,0.0,2.9869,3.0139,3.0737,3.1251,3.1179,3.1529,0.0,3.1334,3.1056,3.0925,3.0925,0.0,0.0,0.0,3.091,3.0821,3.0895,3.0791,3.0777,3.1087,3.1073,3.1102,3.1335,3.1364,3.1364,3.1364,3.1364,3.1292,3.1043,3.1014,3.0896,3.0612,3.0598,3.0598,3.0598,3.0598,3.0462,3.0111,2.9772,2.9572,2.9458,2.9135,2.9062,2.9319,2.9672,2.9659,2.9333,2.9686,2.9849,2.9876,3.05,3.0758,3.0785,3.1015,3.1327,3.1653,3.1653,3.187,3.2218,3.2218,3.2218,3.2182,0.0,0.0,0.0,0.0,0.0,0.0,0.0,0.0,0.0,0.0,0.0,0.0,0.0,0.0,0.0,0.0,0.0,0.0,0.0,2.9818,3.0699,3.1533,3.1247,3.1032,3.1045,3.1365,3.1251,3.0683,3.0093,2.9792,2.9792,2.9792,2.9792,2.9792,2.9792,2.9792,2.9792,2.9792,2.9792,2.9792,2.9792,2.9792,2.9792,2.9792,0.0,0.0,0.0,0.0,0.0,0.0,0.0,0.0,2.9792,2.9792,2.9934,3.062,3.1007,3.1365,3.204,0.0,0.0,3.1832,3.1424,0.0,3.1117,3.0955,3.0762,3.0642,0.0,3.0732,3.0612,3.0702,3.0732,3.0612,3.0598,3.0598,3.0598,3.0598,3.0598,3.0598,3.0598,3.0598,3.0598,3.0598,3.0598,3.0598,3.0598,3.0582,3.0552,3.061,3.0457,3.0105,2.9837,2.9816,3.0014,2.973,2.9849,3.0405,3.0473,3.0486,3.0486,3.0486,3.0513,3.0595,3.1137,3.1368,3.1409,3.1951,3.2218,3.2218,3.2218,3.2182,3.2182,3.2182,3.2146,3.2109,0.0,0.0,0.0,0.0,0.0,0.0,0.0,0.0,0.0,0.0,0.0,0.0,0.0,0.0,0.0,0.0,0.0,0.0,0.0,3.0789,3.1311,3.1311,3.1721,3.2265,3.2825,3.265,3.2133,3.1223,3.0269,2.9792,2.9792,2.9792,2.9792,2.9792,2.9792,2.9792,2.9792,2.9792,2.9792,2.9792,2.9792,2.9792,2.9792,2.9792,2.9792,0.0,0.0,0.0,0.0,0.0,0.0,0.0,2.9792,2.9792,2.983,2.9998,3.0966,3.1962,0.0,3.208,0.0,0.0,3.1334,3.0925,3.1043,3.0955,3.0791,3.0762,3.0702,3.0642,3.0598,3.0612,3.0642,3.0598,3.0598,3.0598,3.0598,3.0598,3.0598,3.0598,3.0598,3.0598,3.0598,3.0598,3.0598,3.0598,3.0598,3.0492,3.0233,3.0661,3.0651,3.003,3.0391,3.0524,3.0303,3.0235,3.0283,3.0418,3.088,3.111,3.111,3.111,3.1355,3.1802,3.1938,3.2028,3.2042,3.2164,3.2218,3.2218,3.2218,3.2109,3.1963,3.1963,3.1853,3.172,0.0,0.0,0.0,0.0,0.0,0.0,0.0,0.0,0.0,0.0,0.0,0.0,0.0,0.0,0.0,0.0,0.0,0.0,0.0,0.0,3.2333,3.2376,3.2791,3.3074,3.324,3.2798,3.2326,3.1788,3.0708,3.0043,2.9792,2.9792,2.9792,2.9792,2.9792,2.9792,2.9792,2.9792,2.9792,2.9792,2.9792,2.9792,2.9792,2.9792,2.9792,2.9792,2.9792,0.0,0.0,0.0,0.0,0.0,0.0,0.0,2.9856,3.0203,3.0945,3.1725,0.0,0.0,0.0,0.0,0.0,0.0,3.0821,3.0791,3.0702,3.0702,3.0642,3.0598,3.0598,3.0598,3.0598,3.0598,3.0598,3.0598,3.0598,3.0598,3.0598,3.0598,3.0598,3.0598,3.0598,3.0598,3.0598,3.0598,3.0858,3.0879,3.0554,3.1108,3.1114,3.0458,3.0742,3.089,3.0825,3.0839,3.0975,3.126,3.1572,3.1721,3.1721,3.1721,3.1884,3.2218,3.2218,3.2218,3.2218,3.2218,3.2218,3.2218,3.2218,3.2146,3.2036,3.2036,3.1927,3.172,0.0,0.0,0.0,0.0,0.0,0.0,0.0,0.0,0.0,0.0,0.0,0.0,0.0,0.0,0.0,0.0,0.0,0.0,0.0,0.0,0.0,3.3755,3.3797,3.3598,3.3154,3.2731,3.2428,3.2215,3.1364,3.061,2.993,2.9829,2.9792,2.9792,2.9792,2.9792,2.9792,2.9792,2.9792,2.9792,2.9792,2.9792,2.9792,2.9792,2.9792,2.9792,2.9792,2.9792,2.9792,2.9792,0.0,0.0,0.0,0.0,2.9934,3.0507,3.0782,3.118,0.0,0.0,0.0,0.0,0.0,0.0,3.0672,3.0672,3.0642,3.0642,3.0612,3.0598,3.0598,3.0598,3.0598,3.0598,3.0598,3.0598,3.0598,3.0598,3.0598,3.0598,3.0699,3.0772,3.0772,3.0874,3.0946,3.0946,3.1395,3.1544,3.1179,3.1671,3.1669,3.108,3.1089,3.1233,3.1436,3.145,3.1694,3.2218,3.2218,3.2218,3.2218,3.2218,3.2218,3.2218,3.2218,3.2218,3.2218,3.2218,3.2218,3.2218,3.2218,3.2182,3.2146,3.2146,3.2036,3.1817,0.0,0.0,0.0,0.0,0.0,0.0,0.0,0.0,0.0,0.0,0.0,0.0,0.0,0.0,0.0,0.0,0.0,0.0,0.0,0.0,0.0,3.4034,3.423,3.4021,3.3356,3.3661,3.3296,3.2215,3.2285,3.1703,3.0495,3.0018,2.9792,2.9792,2.9792,2.9792,2.9792,2.9792,2.9792,2.9792,2.9792,2.9792,2.9792,2.9792,2.9792,2.9792,2.9792,2.9792,2.9792,2.9792,2.9792,0.0,0.0,0.0,2.983,2.9934,3.0419,3.0932,0.0,0.0,0.0,0.0,0.0,3.0821,0.0,0.0,3.0762,0.0,3.0672,3.0598,3.0598,3.0598,3.0598,3.0598,3.0598,3.0598,3.0598,3.0598,3.0598,3.0598,3.1061,3.1395,3.1395,3.1917,3.2266,3.2266,3.2338,3.2222,3.1886,3.2108,3.2059,3.1682,3.1902,3.2037,3.2096,3.2096,3.2137,3.2218,3.2218,3.2218,3.2218,3.2218,3.2218,3.2218,3.2218,3.2218,3.2218,3.2218,3.2218,3.2218,3.2218,3.2109,3.1927,3.1927,3.1817,3.1646,0.0,0.0,0.0,0.0,0.0,0.0,0.0,0.0,0.0,0.0,0.0,0.0,0.0,0.0,0.0,0.0,0.0,0.0,0.0,0.0,0.0,3.4076,3.4202,3.4021,3.3598,3.3768,3.3568,3.2849,3.2672,3.2073,0.0,3.0507,3.0093,2.9792,2.9792,2.9792,2.9792,2.9792,2.9792,2.9792,2.9792,2.9869,2.9972,2.983,2.9869,2.9934,2.983,2.9792,2.9792,2.9792,2.9792,2.9792,2.9792,0.0,0.0,0.0,3.0037,0.0,3.1355,0.0,0.0,0.0,0.0,0.0,3.1857,0.0,3.1764,3.1764,3.1702,3.1438,3.0728,3.0598,3.0598,3.0598,3.0872,3.1105,3.1105,3.1424,3.1656,3.1656,3.1903,3.2046,3.2046,3.2338,3.2481,3.2481,3.2846,3.2919,3.253,3.2744,3.2688,3.2303,3.2236,3.2218,3.2218,3.2218,3.2218,3.2218,3.2218,3.2218,3.2218,3.2218,3.2218,3.2218,3.2218,3.2218,3.2218,3.2218,3.2218,3.2218,3.2218,3.2146,3.2073,3.2073,3.1927,3.1743,0.0,0.0,0.0,0.0,0.0,0.0,0.0,0.0,0.0,0.0,0.0,0.0,0.0,0.0,0.0,0.0,0.0,0.0,0.0,0.0,0.0,3.3992,3.4076,3.3949,3.3556,3.3598,3.3513,3.3313,3.2908,3.2256,3.1386,3.0997,3.0444,0.0,2.9792,2.9792,2.9792,2.9792,0.0,2.9792,2.9792,2.9934,3.0075,2.9869,2.9972,3.0152,2.9908,2.983,2.9869,2.983,2.9792,2.9792,2.9792,2.9792,0.0,0.0,0.0,0.0,0.0,0.0,0.0,0.0,0.0,0.0,0.0,0.0,3.2481,0.0,3.2481,3.2222,3.125,3.1061,3.1061,3.1061,3.1467,3.1741,3.1741,3.2176,3.2481,3.2481,3.2658,3.2759,3.2759,3.2904,3.2959,3.2959,3.3441,3.3556,3.3154,3.3239,3.3059,3.2469,3.229,3.2151,3.1951,3.2137,3.2218,3.2218,3.2218,3.2218,3.2218,3.2218,3.2218,3.2218,3.2218,3.2218,3.2218,3.2218,3.2182,3.2109,3.2109,3.2109,3.2036,3.2036,3.1963,3.178,0.0,0.0,0.0,0.0,0.0,0.0,0.0,0.0,0.0,0.0,0.0,0.0,3.0215,3.1797,3.2506,3.1665,3.325,3.4272,3.4314,3.356,3.3262,3.3713,3.3937,0.0,3.3167,3.3313,3.3313,3.3124,3.3086,0.0,3.1386,3.1361,3.0796,2.9792,2.9792,2.9792,2.9792,0.0,0.0,0.0,2.9792,2.9934,3.0075,2.9869,3.0049,3.033,2.9934,2.9934,3.0049,2.9869,2.9792,2.9792,2.9792,2.9792,2.9792,0.0,0.0,0.0,0.0,0.0,0.0,0.0,0.0,0.0,0.0,0.0,3.2481,3.2481,3.2481,3.2466,3.2394,3.2394,3.2394,3.2394,3.244,3.2469,3.2469,3.2466,3.2481,3.2481,3.305,3.346,3.346,3.3964,3.4312,3.4312,3.4341,3.4187,3.3762,3.3465,3.2863,3.1861,3.2085,3.1911,3.1341,3.1897,3.2218,3.2218,3.2218,3.2218,3.2218,3.2218,3.2218,3.2218,3.2218,3.2218,3.2218,3.2218,3.2109,3.1927,3.1927,3.178,3.1646,3.1646,3.1609,3.1609,0.0,0.0,0.0,0.0,0.0,0.0,0.0,0.0,0.0,0.0,0.0,0.0,0.0,3.2059,3.219,3.2463,3.3122,3.3518,3.3518,3.3729,3.3953,3.4147,3.423,3.4189,3.3949,3.3979,3.3852,3.3471,3.3471,3.2963,3.1913,3.1549,3.1009,3.0306,2.9942,2.9792,2.9792,2.9792,0.0,0.0,0.0,0.0,0.0,0.0,3.0228,3.0571,3.0267,0.0,3.0075,3.0011,2.9895,2.9792,0.0,0.0,0.0,0.0,0.0,0.0,0.0,0.0,0.0,0.0,0.0,3.2718,3.3551,3.3732,3.3732,3.3732,3.3732,3.3732,3.3732,3.3064,3.2481,3.2481,3.2861,3.3122,3.3122,3.3485,3.3732,3.3732,3.3935,3.408,3.408,3.4283,3.4312,3.4025,3.4025,3.3874,3.3479,3.3129,3.2555,3.182,3.2072,3.211,3.187,3.211,3.2218,3.2218,3.2218,3.2218,3.2218,3.2218,3.2218,3.2218,3.2218,3.2218,3.2218,3.2218,3.2146,3.2109,3.2109,3.2036,3.1963,3.1853,3.178,3.1743,0.0,0.0,0.0,0.0,0.0,0.0,0.0,0.0,0.0,3.2895,0.0,0.0,0.0,0.0,3.2451,3.339,3.339,3.3348,3.3348,3.3882,3.4147,3.4063,3.4063,3.4021,3.3992,3.3785,3.3617,3.3513,3.328,3.2862,3.2202,3.165,3.111,3.0595,3.0043,2.9792,0.0,0.0,0.0,2.9792,0.0,0.0,3.0292,0.0,3.0241,3.0571,0.0,0.0,3.019,3.019,3.0113,2.9972,0.0,0.0,0.0,0.0,0.0,0.0,3.0419,0.0,0.0,0.0,0.0,3.3052,3.3825,3.4196,3.4414,3.4414,3.4414,3.4414,3.4414,3.3717,3.3151,3.3151,3.3514,3.3823,3.3823,3.4153,3.4414,3.4414,3.4414,3.4414,3.4414,3.4414,3.4312,3.4025,3.3874,3.3667,3.3304,3.2722,3.215,3.1659,3.1605,3.1775,3.2218,3.2218,3.2218,3.2218,3.2218,3.2218,3.2218,3.2218,3.2218,3.2218,3.2218,3.2218,3.2218,3.2218,3.2146,3.2109,3.2109,3.2073,3.1963,3.1853,3.178,3.1743,0.0,0.0,0.0,0.0,0.0,0.0,0.0,0.0,3.2016,3.2938,0.0,0.0,0.0,0.0,0.0,3.4314,3.4243,3.4118,3.4118,3.3852,3.3641,3.3441,3.3441,3.3313,3.3111,3.2571,3.2558,3.3124,3.2516,3.224,3.2227,3.165,3.1122,3.062,3.0043,2.9792,2.9792,0.0,2.9792,2.9792,0.0,2.9934,3.0075,0.0,0.0,0.0,3.019,3.0228,0.0,3.0406,0.0,0.0,0.0,0.0,0.0,0.0,0.0,0.0,0.0,0.0,0.0,0.0,0.0,0.0,3.3003,0.0,3.4366,3.4366,3.438,3.4414,3.4414,3.4414,3.4414,3.4414,3.4414,3.4414,3.4414,3.4414,3.4414,3.4414,3.4414,3.4414,3.4414,3.4414,3.438,3.438,3.4025,3.3632,3.3269,3.2319,3.1618,3.126,3.0717,3.0975,3.2178,3.2205,3.2218,3.2218,3.2218,3.2218,3.2218,3.2218,3.2218,3.2218,3.2218,3.2218,3.2218,3.2218,3.2059,3.189,3.189,3.178,3.1596,3.1596,3.1609,3.1559,0.0,0.0,0.0,0.0,0.0,0.0,3.3953,3.3784,3.3742,0.0,0.0,0.0,3.3645,3.3869,3.4134,3.4397,3.4356,3.4314,3.4314,3.4105,3.4021,3.4105,3.3992,3.3865,3.3823,3.3669,3.35,3.3313,3.3161,3.3,3.2817,3.1851,3.1311,3.1135,3.0206,2.9792,2.9792,2.9792,0.0,2.9792,2.9792,2.9934,0.0,0.0,0.0,0.0,0.0,3.0254,3.019,0.0,3.0075,2.9972,0.0,0.0,0.0,0.0,0.0,0.0,2.9792,0.0,0.0,0.0,0.0,0.0,0.0,0.0,3.352,3.352,3.3997,3.4414,3.4414,3.4414,3.4414,3.4414,3.4414,3.4414,3.4414,3.4414,3.4414,3.4414,3.4414,3.4414,3.4414,3.4414,3.4162,3.3632,3.3479,3.3178,3.2552,3.1402,3.0739,3.0649,3.05,3.0771,3.1531,3.2001,3.2218,3.2218,3.2218,3.2218,3.2218,3.2218,3.2218,3.2218,3.2218,3.2218,3.2218,3.2218,3.1863,3.1431,3.195,3.179,3.1371,3.1693,3.1817,3.178,0.0,0.0,0.0,0.0,0.0,0.0,3.4397,3.4397,3.4397,0.0,0.0,0.0,3.4285,3.4285,3.4314,3.4397,3.4314,3.4285,3.4285,3.4063,3.3937,3.3979,3.3865,3.3781,3.3696,3.3423,3.3284,3.3283,3.303,3.2958,3.3099,3.1913,3.1386,3.1336,0.0,0.0,0.0,0.0,0.0,0.0,2.9792,0.0,0.0,2.9972,3.0049,0.0,0.0,0.0,3.0228,3.0305,3.0241,0.0,0.0,0.0,0.0,0.0,0.0,0.0,0.0,0.0,0.0,0.0,0.0,0.0,3.1928,3.2684,3.3297,3.3624,3.4079,3.4414,3.4414,3.4414,3.4414,3.4414,3.4414,3.4414,3.4414,3.4414,3.4414,3.4414,3.4414,3.4414,3.4414,3.423,3.3991,3.3563,3.3234,3.2567,3.1499,3.0785,3.0283,3.0025,3.0269,3.069,3.1287,3.1884,3.2218,3.2218,3.2218,3.2059,3.1776,3.2059,3.2059,3.1813,3.2096,3.2059,3.1813,3.2096,3.1813,3.1233,3.1629,3.1283,3.062,3.0872,3.111,3.1147,0.0,0.0,0.0,0.0,0.0,0.0,3.4397,3.4397,3.4397,0.0,3.4243,3.4118,3.4118,3.4118,3.4202,3.4397,3.4243,3.4118,3.4118,3.381,3.3598,3.3441,3.3398,3.3313,3.3154,3.2608,3.2608,3.3124,3.2554,3.2566,3.3099,3.1913,3.1386,3.1336,0.0,0.0,0.0,0.0,0.0,2.9792,2.9792,2.9792,0.0,0.0,2.9792,2.983,3.0011,3.019,3.0368,3.0546,3.0495,0.0,0.0,0.0,0.0,0.0,2.9792,0.0,0.0,0.0,0.0,0.0,3.0305,0.0,3.1673,3.2434,3.3157,3.3859,3.4079,3.4147,3.4147,3.4147,3.4147,3.4147,3.4196,3.4298,3.438,3.4414,3.4414,3.4414,3.4414,3.4414,3.4414,3.4059,3.377,3.3736,3.3003,3.1913,3.0473,3.0351,3.0025,2.9434,3.0052,3.0663,3.1192,3.1857,3.2218,3.2218,3.2132,3.1776,3.1233,3.174,3.1666,3.1108,3.174,3.1666,3.1158,3.174,3.1593,3.0996,3.1158,3.0582,2.9665,2.9704,2.9935,3.0088,0.0,0.0,0.0,0.0,0.0,0.0,3.4397,3.4397,3.4397,3.4397,3.4356,3.4356,3.4356,3.4356,3.4356,3.4397,3.4243,3.4118,3.4118,3.3696,3.3513,3.3641,3.3471,3.3398,3.3356,3.3254,3.3126,3.3124,3.2968,3.2968,3.3099,3.1913,3.1386,3.1336,0.0,0.0,0.0,0.0,0.0,2.9792,2.9792,2.9792,2.9792,2.9792,2.9792,2.9792,2.983,2.9869,2.9934,2.9985,2.9946,2.9934,0.0,0.0,0.0,2.9792,0.0,0.0,0.0,0.0,0.0,0.0,2.9895,0.0,3.0216,3.0809,3.1402,3.1549,3.211,3.2555,3.2555,3.2555,3.2555,3.2555,3.3052,3.3673,3.4298,3.4414,3.4414,3.4414,3.4414,3.4414,3.4414,3.4059,3.3701,3.3409,3.2275,3.1221,3.0446,2.993,2.942,2.8777,2.9835,3.0473,3.0581,3.1653,3.2218,3.2182,3.1666,3.1344,3.1182,3.0822,3.0582,3.0469,3.062,3.0595,3.0482,3.0633,3.033,2.9832,3.0809,3.0469,2.9484,2.9626,2.9742,2.9691,0.0,0.0,0.0,0.0,0.0,0.0,0.0,3.4397,3.4397,3.4397,3.4314,3.4243,3.4243,3.4243,3.4272,3.4397,3.4314,3.4202,3.4118,3.3865,3.3696,3.3556,3.3441,3.3356,3.324,3.324,3.3197,3.3124,3.3124,3.293,3.2629,3.1788,3.1248,3.0972,3.0156,0.0,0.0,0.0,2.9792,2.9792,2.9792,0.0,2.9792,2.9792,2.9792,2.9792,2.9792,2.9869,2.9972,3.0075,3.0049,0.0,2.9934,2.9869,2.9792,0.0,2.9792,2.9792,0.0,0.0,0.0,2.9792,2.9792,0.0,0.0,3.062,3.1007,3.1415,3.1819,3.211,3.211,3.211,3.211,3.211,3.2398,3.2791,3.3206,3.3569,3.3962,3.4332,3.4045,3.3894,3.4094,3.35,3.2729,3.1921,3.1507,3.0907,2.9998,2.9678,2.923,2.8614,2.9781,3.0405,3.0405,3.1585,3.2218,3.2218,3.1863,3.1357,3.0733,3.0733,3.0431,2.9871,3.0177,3.0126,2.9871,3.0177,2.9755,2.904,2.9947,2.9639,2.8657,2.8764,2.8937,2.9003,0.0,0.0,0.0,0.0,0.0,0.0,0.0,0.0,3.4397,3.4397,3.4285,3.416,3.416,3.416,3.4243,3.4397,3.4356,3.4285,3.4118,3.4034,3.3823,3.3441,3.3398,3.3313,3.3124,3.3124,3.3124,3.3124,3.3124,3.278,3.2202,3.165,3.111,3.0595,0.0,0.0,0.0,0.0,0.0,2.9792,0.0,2.9792,2.9792,2.9792,2.9792,2.9792,2.9792,2.9895,3.0075,3.0228,3.019,3.0049,3.0049,2.9934,0.0,0.0,0.0,0.0,0.0,0.0,0.0,2.9792,2.9792,2.9972,0.0,0.0,0.0,3.1502,3.1649,3.1649,3.1649,3.1649,3.1649,3.1649,3.1796,3.1856,3.1856,3.2384,3.3052,3.3859,3.3381,3.3087,3.3409,3.2627,3.1631,3.0453,3.0842,3.0691,2.974,2.9571,2.9219,2.8646,2.9653,3.0185,3.0046,3.1249,3.1827,3.1827,3.1716,3.1134,3.0126,3.0507,3.0126,2.9263,2.9755,2.9678,2.9263,2.9755,2.938,2.855,2.9145,2.8843,2.8002,2.7933,2.8111,2.8275,3.4397,3.4397,0.0,0.0,0.0,0.0,0.0,0.0,3.4397,3.4397,3.4397,3.4356,3.4356,3.4356,3.4397,0.0,3.4243,3.4118,3.4118,3.3894,3.3641,3.3398,3.3398,3.3313,3.3124,3.3124,3.3124,3.3124,3.3124,3.278,3.2202,3.165,3.111,0.0,3.0043,0.0,0.0,0.0,2.9792,0.0,2.9792,2.9792,2.9792,2.9792,2.9792,2.9792,2.9792,2.9792,2.983,2.9869,2.9869,2.983,2.983,2.983,2.9792,2.9792,0.0,0.0,0.0,0.0,2.9792,2.9792,2.9792,2.983,2.9895,0.0,2.9934,3.0049,0.0,3.0049,3.0049,0.0,0.0,3.0049,3.0595,3.1044,3.1044,3.1106,3.1439,3.2268,3.229,3.2182,3.2051,3.1452,3.0869,3.0354,3.0422,3.0434,3.0289,2.9779,2.9241,2.8724,2.9278,2.9328,2.8795,2.9952,3.052,3.0507,2.9986,2.9639,2.9496,2.9,2.8736,2.863,2.8657,2.8657,2.8618,2.8657,2.8618,2.855,2.9145,2.9,2.8391,2.8042,2.7921,2.7869,3.4397,3.4397,0.0,0.0,0.0,0.0,0.0,0.0,3.4397,3.4397,3.4397,3.4397,3.4397,0.0,0.0,0.0,0.0,3.4243,0.0,3.3852,3.367,3.3598,3.3356,3.324,3.3283,3.3154,3.3124,3.3124,3.3124,3.2616,3.1725,3.1499,3.0947,0.0,2.9892,0.0,2.983,0.0,3.0203,0.0,0.0,3.0165,2.9792,2.9792,2.9792,2.9792,2.9792,2.9792,2.9792,2.9792,2.9792,2.9792,2.9792,2.9792,0.0,2.9792,0.0,0.0,0.0,0.0,2.9792,2.9792,2.9792,2.9792,2.9792,2.9792,2.9792,2.9792,0.0,0.0,0.0,0.0,0.0,0.0,3.0075,3.0279,3.0279,3.0279,3.0671,3.1796,3.1526,3.1119,3.0782,3.0632,3.0176,2.9302,2.9601,2.9686,2.9336,2.9069,2.883,2.8585,2.9155,2.9321,2.9065,2.9895,3.0279,3.0279,3.0063,2.9755,2.938,2.9157,2.8816,2.851,2.851,2.851,2.851,2.851,2.851,2.851,2.8776,2.8736,2.8471,2.8323,2.8243,2.8243,3.4397,0.0,0.0,0.0,0.0,0.0,0.0,0.0,3.4397,3.4397,3.4397,3.4345,3.4188,3.4306,0.0,0.0,3.4306,3.4356,0.0,0.0,3.381,3.381,3.3398,0.0,3.3398,3.3197,3.3124,3.3124,3.2918,3.234,3.1386,3.1248,3.0683,2.9792,0.0,2.9792,2.983,0.0,3.0279,2.9856,3.062,3.0696,3.0368,2.9972,2.9792,2.9792,2.9792,2.9792,2.9792,2.9792,2.9792,2.9792,2.9792,2.9792,2.9792,0.0,0.0,0.0,2.9792,2.9792,2.9792,2.9792,2.9792,2.9792,2.9792,2.9792,2.9792,2.9792,2.9792,0.0,0.0,0.0,2.9792,2.9792,0.0,2.9792,2.9792,2.9792,3.0152,3.1158,3.062,3.0088,2.9768,2.9793,2.9438,2.8565,2.905,2.92,2.877,2.8751,2.8662,2.8516,2.8934,2.9088,2.8938,2.9517,2.9793,2.9793,2.9793,2.9561,2.9157,2.9157,2.8922,2.851,2.851,2.851,2.851,2.851,2.851,2.851,2.851,2.851,2.851,2.851,2.851,2.851,3.4397,3.4397,0.0,0.0,0.0,0.0,0.0,0.0,3.4397,3.4397,3.4397,0.0,0.0,0.0,0.0,0.0,0.0,3.4397,3.4397,0.0,3.4076,0.0,0.0,3.3398,0.0,3.3197,3.3124,3.3124,3.2516,3.1951,3.1386,3.0871,3.0331,2.9792,2.9792,2.9792,2.9792,2.983,2.983,2.9856,3.062,3.1341,3.1869,3.0368,2.9792,2.9792,2.9792,2.9792,2.9792,2.9792,2.9792,2.9792,2.9792,2.9792,2.9792,2.9792,2.9792,2.9792,2.9792,2.9792,2.9792,2.9792,2.9792,2.9792,2.9792,2.9792,2.9792,2.9792,2.9792,2.9792,2.9792,2.9792,2.9792,2.9792,2.9792,0.0,0.0,2.9792,2.983,2.9869,2.9456,2.9131,2.9131,2.8776,2.8538,2.8486,2.9055,2.9381,2.9356,2.9391,2.9124,2.8612,2.8561,2.8269,2.7755,2.8285,2.855,2.855,2.855,2.855,2.855,2.855,2.851,2.851,2.851,2.851,2.851,2.851,2.851,2.851,2.851,2.851,2.851,2.851,2.851,2.851,0.0,0.0,0.0,0.0,0.0,0.0,0.0,3.4397,0.0,0.0,3.4397,0.0,0.0,3.4293,3.4332,0.0,0.0,3.4397,3.4397,3.4202,0.0,0.0,0.0,3.3484,0.0,0.0,3.3124,3.3124,3.2503,3.1938,3.1386,3.0859,3.0319,0.0,0.0,3.0062,0.0,0.0,0.0,0.0,0.0,3.1856,3.1965,3.0908,3.052,3.0444,2.9972,2.9792,2.9792,2.9792,2.9792,2.9792,2.9792,2.9792,2.9792,2.9792,2.9792,2.9792,2.9792,2.9792,2.9792,2.9792,2.9792,2.9792,2.9792,2.9792,2.9792,2.9792,2.9792,2.9792,2.9792,2.9792,2.9792,2.9792,2.9792,2.9792,0.0,2.9792,2.974,2.956,2.9157,2.8882,2.8882,2.8657,2.851,2.851,2.8697,2.8816,2.8816,2.879,2.8731,2.8548,2.8509,2.8391,2.8246,2.8426,2.851,2.851,2.851,2.851,2.851,2.851,2.851,2.851,2.851,2.851,2.851,2.851,2.851,2.851,2.851,2.851,2.851,2.851,2.851,2.851,3.5291,0.0,0.0,0.0,0.0,0.0,0.0,0.0,0.0,0.0,3.4592,0.0,3.4136,0.0,3.4319,0.0,3.4293,3.4319,3.4123,3.4098,0.0,3.4123,3.3678,3.3471,0.0,0.0,0.0,0.0,0.0,3.1738,0.0,0.0,0.0,0.0,0.0,3.0062,3.0558,3.1341,3.1673,0.0,0.0,3.2648,3.284,3.2024,3.1549,3.1267,3.0797,3.0432,3.0203,3.0203,3.0037,2.9792,2.9792,2.9792,2.9792,2.9792,2.9792,2.9792,2.9792,2.9792,2.9792,2.9792,2.9792,2.9792,2.9792,2.9792,2.9792,2.9792,2.9792,2.9792,2.9792,2.9792,2.9792,2.9792,2.9792,2.9792,0.0,2.9702,2.9599,2.9419,2.9106,2.8882,2.8803,2.8618,2.851,2.851,2.851,2.851,2.851,2.851,2.851,2.851,2.851,2.851,2.851,2.851,2.851,2.851,2.851,2.851,2.851,2.851,2.851,2.851,2.851,2.851,2.851,2.851,2.851,2.851,2.851,2.851,2.851,2.851,2.851,2.851,3.688,0.0,0.0,0.0,3.6425,0.0,0.0,3.6241,3.5749,0.0,3.4991,3.4284,3.376,3.4125,3.4188,3.3679,3.411,3.4175,3.3666,3.3957,0.0,0.0,3.3498,3.3513,3.367,0.0,0.0,0.0,0.0,0.0,0.0,0.0,0.0,0.0,2.9792,0.0,2.9895,3.062,3.0932,3.1143,3.2599,3.3673,3.4312,3.3555,3.2826,3.2182,3.211,3.1599,3.097,3.0932,3.0444,2.9869,2.9792,2.9792,2.9792,2.9792,2.9792,2.9792,2.9792,2.9792,2.9792,2.9792,2.9792,2.9792,2.9792,2.9792,2.9792,2.9792,2.9792,2.9792,2.9792,2.9792,2.9792,2.9792,2.9792,2.9792,2.9792,2.956,2.9419,2.938,2.9236,2.9,0.0,2.8618,2.851,2.851,2.851,2.851,2.851,2.851,2.851,2.851,2.851,2.851,2.851,2.851,2.851,2.851,2.851,2.851,2.851,2.851,2.851,2.851,2.851,2.851,2.851,2.851,2.851,2.851,2.851,2.851,2.851,2.851,2.851,2.851,3.688,3.7424,3.7796,0.0,3.7179,3.688,3.688,3.6724,3.6582,0.0,3.5883,3.5292,3.5197,3.4719,3.4345,3.4201,3.4319,0.0,0.0,0.0,0.0,3.3994,3.3733,3.3598,3.3471,3.324,3.3124,3.3124,0.0,0.0,3.1361,0.0,0.0,0.0,0.0,0.0,3.062,3.082,3.1549,3.2635,3.3038,3.3673,3.438,3.4147,3.3962,3.3652,3.2519,3.1965,3.1709,3.1119,3.0758,3.0507,2.996,2.9792,2.9792,2.9792,2.9792,2.9792,2.9792,2.9792,2.9792,2.9792,2.9792,2.9792,2.9792,2.9792,2.9792,2.9792,2.9792,2.9792,2.9792,2.9792,2.9792,2.9792,2.9792,0.0,2.9792,2.974,2.9573,2.9209,2.9131,2.9,2.8843,2.8618,2.851,2.851,2.851,2.851,2.851,2.851,2.851,2.851,2.851,2.851,2.851,2.851,2.851,2.851,2.851,2.851,2.851,2.851,2.851,2.851,2.851,2.851,2.851,2.851,2.851,2.851,2.851,2.851,2.851,2.851,2.851,2.851,3.7994,3.8397,0.0,3.8738,3.8323,3.7994,3.7994,3.7691,3.7348,3.7063,3.6233,3.5614,3.5303,3.4763,3.4397,3.4397,3.4397,0.0,3.4058,0.0,0.0,3.3713,3.3597,3.3513,3.3398,3.3197,0.0,3.3124,0.0,0.0,3.1361,0.0,0.0,0.0,0.0,3.0203,3.0932,3.1267,3.2326,3.3707,3.3332,3.3673,0.0,3.4414,3.4414,3.4312,3.343,3.2875,3.2506,3.206,3.1476,3.082,3.0406,3.0075,2.9792,2.9792,2.9792,2.9792,2.9792,2.9792,2.9792,2.9792,2.9792,2.9792,2.9792,2.9792,2.9792,2.9792,2.9792,2.9792,2.9792,2.9792,2.9792,2.9792,2.9792,2.9792,2.9792,2.9702,0.0,2.9131,2.9,2.8882,2.8697,2.8578,2.851,2.851,2.851,2.851,2.851,2.851,2.851,2.851,2.851,2.851,2.851,2.851,2.851,2.851,2.851,2.851,2.851,2.851,2.851,2.851,2.851,2.851,2.851,2.851,2.851,2.851,2.851,2.851,2.851,2.851,2.851,2.851,3.9394,0.0,0.0,0.0,0.0,3.9388,3.9388,3.8811,3.8148,3.7565,3.6624,3.5824,3.5225,3.4875,3.4716,3.4675,3.4675,3.4436,3.3799,3.4053,3.3939,3.324,3.3356,3.3398,3.3356,3.3197,3.3124,0.0,0.0,0.0,0.0,0.0,0.0,0.0,0.0,0.0,0.0,3.1599,3.2733,3.3894,3.3297,3.352,3.4264,3.4346,3.4414,3.4414,3.4414,3.3962,3.3332,3.3227,3.2313,3.118,3.1082,3.0558,2.9921,2.9921,2.9869,2.9792,2.9792,2.9792,2.9792,2.9792,2.9792,2.9792,2.9792,2.9792,2.9792,2.9792,2.9792,2.9792,2.9792,2.9792,2.9792,2.9792,2.9792,2.9792,2.9792,0.0,0.0,0.0,2.8961,0.0,2.8538,2.851,2.851,2.851,2.851,2.851,2.851,2.851,2.851,2.851,2.851,2.851,2.851,2.851,2.851,2.851,2.851,2.851,2.851,2.851,2.851,2.851,2.851,2.851,2.851,2.851,2.851,2.851,2.851,2.851,2.851,2.851,2.851,2.851,3.9305,0.0,0.0,0.0,0.0,3.9388,3.9388,3.9265,3.9147,3.9028,3.8264,3.7729,3.7614,3.6916,3.6385,3.6215,3.6215,3.5789,3.4817,3.4815,0.0,3.3428,3.339,3.3313,3.3154,3.3124,3.3124,0.0,0.0,0.0,0.0,0.0,0.0,0.0,0.0,0.0,3.0037,3.0796,3.1267,3.1549,3.2074,3.272,3.3485,3.4147,3.4414,3.4414,3.4414,3.4298,3.4079,3.3402,3.3038,3.267,3.2074,3.1341,3.072,3.072,3.0279,2.9792,2.9792,2.9792,2.9792,2.9792,2.9792,2.9792,2.9792,2.9792,2.9792,2.9792,2.9792,2.9792,2.9792,2.9792,2.9792,2.9792,2.9792,2.9792,2.9792,2.9753,0.0,0.0,2.9157,2.8961,2.8764,2.8618,2.851,2.851,2.851,2.851,2.851,2.851,2.851,2.851,2.851,2.851,2.851,2.851,2.851,2.851,2.851,2.851,2.851,2.851,2.851,2.851,2.851,2.851,2.851,2.851,2.851,2.851,2.851,2.851,2.851,2.851,2.851,2.851,3.929,0.0,0.0,0.0,3.9388,3.9388,3.9388,3.9388,3.929,3.8931,3.848,3.8072,3.7723,3.7211,3.6816,3.6624,3.6201,3.5642,3.5032,3.4468,3.3924,3.3441,3.3313,3.3197,3.3124,3.3124,3.3124,3.3124,3.2503,3.2077,0.0,0.0,0.0,0.0,0.0,3.0381,0.0,3.1206,3.1733,3.2132,3.2492,3.3122,3.3845,3.4264,3.4414,3.4414,3.4414,3.4414,3.4332,3.3962,3.3311,3.2577,3.2218,3.1281,3.0343,3.0343,3.0075,2.9792,2.9792,2.9792,2.9792,2.9792,2.9792,2.9792,2.9792,2.9792,2.9792,2.9792,2.9792,2.9792,2.9792,2.9792,2.9792,2.9792,2.9792,2.9792,2.9792,2.9792,2.9702,0.0,0.0,0.0,2.8843,2.8618,2.851,2.851,2.851,2.851,2.851,2.851,2.851,2.851,2.851,2.851,2.851,2.851,2.851,2.851,2.851,2.851,2.851,2.851,2.851,2.851,2.851,2.851,2.851,2.851,2.851,2.851,2.851,2.851,2.851,2.851,2.851,2.851,0.0,3.9388,0.0,0.0,3.9388,3.9388,3.9388,3.9337,3.9143,3.8676,3.8509,3.8237,3.766,3.73,3.6972,3.6766,3.5949,3.5278,3.4909,3.4092,3.3526,3.3356,3.3197,3.3124,3.3124,3.3124,3.3124,3.3124,3.2616,3.2277,3.2026,0.0,0.0,0.0,3.11,3.1147,3.1071,3.1729,3.2264,3.2684,3.2881,3.3346,3.3942,3.4264,3.4414,3.4414,3.4414,3.4414,3.4414,3.4414,3.3465,3.229,3.2146,3.1145,3.0037,3.0037,2.9934,2.9792,2.9792,2.9792,2.9792,2.9792,2.9792,2.9792,2.9792,2.9792,2.9792,2.9792,2.9792,2.9792,2.9792,2.9792,2.9792,2.9792,2.9792,2.9792,2.9702,2.9753,2.9663,0.0,0.0,0.0,2.8843,2.8618,2.851,2.851,2.851,2.851,2.851,2.851,2.851,2.851,2.851,2.851,2.851,2.851,2.851,2.851,2.851,2.851,2.851,2.851,2.851,2.851,2.851,2.851,2.851,2.851,2.851,2.851,2.851,2.851,2.851,2.851,2.851,2.851,0.0,0.0,3.9388,3.9388,3.9388,3.9388,3.9388,3.9265,3.9162,3.9298,3.9307,3.9199,3.8942,3.819,3.7548,3.7165,3.6332,3.544,3.4522,3.4356,3.3937,3.3154,3.3124,3.3124,3.3124,3.3124,3.3124,3.3124,3.3018,3.2466,3.1474,3.1926,3.1838,3.1351,3.212,3.2054,3.1347,3.163,3.1384,3.093,3.1827,3.2268,3.2484,3.3874,3.4414,3.4414,3.4414,3.4414,3.4414,3.4414,3.3825,3.2967,3.229,3.1489,3.0782,3.0782,3.0305,2.9792,2.9792,2.9792,2.9792,2.9792,2.9792,2.9792,2.9792,2.9792,2.9792,2.9792,2.9792,2.9792,2.9792,2.9792,2.9792,2.9792,2.9792,2.9702,2.947,2.965,2.9624,2.917,0.0,0.0,2.8843,2.8618,2.851,2.851,2.851,2.851,2.851,2.851,2.851,2.851,2.851,2.851,2.851,2.851,2.851,2.851,2.851,2.851,2.851,2.851,2.851,2.851,2.851,2.851,2.851,2.851,2.851,2.851,2.851,2.851,2.851,2.851,2.851,2.851,3.9298,3.9388,3.9388,3.9388,3.9388,3.9388,3.9388,3.9337,3.9301,3.9388,3.9177,3.9017,3.8943,3.8144,3.751,3.7242,3.5975,3.4965,3.4439,3.3907,3.3441,3.3124,3.3124,3.3124,3.3124,3.3124,3.3124,3.3124,3.3124,3.2855,3.2416,3.2629,3.2428,3.1863,3.1891,3.1699,3.1455,3.2003,3.2071,3.1913,3.3278,3.3836,3.3918,3.4714,3.498,3.4936,3.4545,3.4414,3.4264,3.3311,3.2804,3.2506,3.2182,3.1257,3.0241,3.0241,3.0037,2.9792,2.9792,2.9792,2.9792,2.9792,2.9792,2.9792,2.9792,2.9792,2.9792,2.9792,2.9792,2.9792,2.9792,2.9792,2.9792,2.9792,2.9792,2.9753,2.965,2.9599,2.9482,2.9314,0.0,2.8882,2.8791,2.8618,2.851,2.851,2.851,2.851,2.851,2.851,2.851,2.851,2.851,2.851,2.851,2.851,2.851,2.851,2.851,2.851,2.851,2.851,2.851,2.851,2.851,2.851,2.851,2.851,2.851,2.851,2.851,2.851,2.851,2.851,2.851,2.851,3.9334,3.9388,3.9388,3.9388,3.9388,3.9388,3.9301,3.9265,3.9177,3.9156,3.8833,3.8671,3.8797,3.7956,3.7319,3.7141,3.5588,3.4538,3.4397,3.3569,3.3124,3.3124,3.3124,3.3124,3.3124,3.3124,3.3124,3.3124,3.3124,3.2993,3.283,3.283,3.2692,3.2453,3.2064,3.1888,3.1917,3.2342,3.2467,3.2602,3.3804,3.4293,3.4327,3.475,3.4882,3.4825,3.4349,3.4193,3.4037,3.2933,3.2418,3.2142,3.1585,3.0684,2.9792,2.9792,2.9792,2.9792,2.9792,2.9792,2.9792,2.9792,2.9792,2.9792,2.9792,2.9792,2.9792,2.9792,2.9792,2.9792,2.9792,2.9792,2.9792,2.9792,2.9792,2.9792,2.9689,2.9509,2.9341,2.9223,2.8949,2.8803,2.8724,2.8578,2.851,2.851,2.851,2.851,2.851,2.851,2.851,2.851,2.851,2.851,2.851,2.851,2.851,2.851,2.851,2.851,2.851,2.851,2.851,2.851,2.851,2.851,2.851,2.851,2.851,2.851,2.851,2.851,2.851,2.851,2.851,2.851,3.9388,3.9388,3.9388,3.9388,3.9388,3.9337,3.9141,3.8943,3.8723,3.8553,3.8329,3.8352,3.8745,3.7829,3.7127,3.6922,3.5386,3.4397,3.4397,3.3569,3.3124,3.3124,3.3124,3.3124,3.3124,3.3124,3.3124,3.3124,3.3124,3.278,3.2227,3.2227,3.2528,3.3111,3.3056,3.3056,3.3061,3.2441,3.2202,3.2235,3.2521,3.2646,3.2725,3.3428,3.3723,3.3723,3.3723,3.3723,3.3723,3.3684,3.3195,3.228,3.043,2.983,2.9792,2.9792,2.9792,2.9792,2.9792,2.9792,2.9792,2.9792,2.9792,2.9792,2.9792,2.9792,2.9792,2.9792,2.9792,2.9792,2.9792,2.9792,2.9792,2.9792,2.9792,2.9702,2.9419,2.9419,2.9263,2.8831,2.8791,2.8724,2.851,2.851,2.851,2.851,2.851,2.851,2.851,2.851,2.851,2.851,2.851,2.851,2.851,2.851,2.851,2.851,2.851,2.851,2.851,2.851,2.851,2.851,2.851,2.851,2.851,2.851,2.851,2.851,2.851,2.851,2.851,2.851,2.851,2.851,3.7715,3.7601,3.7472,3.7472,3.7829,3.8069,3.8032,3.8472,3.8797,3.8723,3.8538,3.8441,3.859,3.763,3.6961,3.6897,3.5883,3.4978,3.4439,3.4147,3.3738,3.3124,3.3124,3.3124,3.3124,3.3124,3.3124,3.3124,3.3124,3.298,3.2805,3.2805,3.2905,3.3124,3.3124,3.3124,3.3111,3.288,3.2805,3.2865,3.3542,3.3849,3.3878,3.4258,3.4372,3.4317,3.3846,3.3698,3.3621,3.313,3.2791,3.2396,3.1265,3.0884,3.0809,3.0457,3.0357,3.0269,2.9892,2.9792,2.9792,2.9792,2.9792,2.9792,2.9792,2.9792,2.9792,2.9792,2.9792,2.9792,2.9792,2.9792,2.9792,2.9792,2.9792,2.9792,2.9702,2.9509,2.9302,2.904,2.8882,2.8724,2.851,2.851,2.851,2.851,2.851,2.851,2.851,2.851,2.851,2.851,2.851,2.851,2.851,2.851,2.851,2.851,2.851,2.851,2.851,2.851,2.851,2.851,2.851,2.851,2.851,2.851,2.851,2.851,2.851,2.851,2.851,2.851,2.851,2.851,3.688,3.6802,3.6685,3.6607,3.6919,3.7088,3.6919,3.7639,3.8159,3.8098,3.8,3.7886,3.7886,3.7,3.6517,3.6858,3.5843,3.4937,3.4439,3.4105,3.3654,3.3124,3.3124,3.3124,3.3124,3.3124,3.3124,3.3124,3.3124,3.3124,3.3124,3.3124,3.3124,3.3124,3.3124,3.3124,3.3124,3.3124,3.3124,3.3167,3.3696,3.3907,3.394,3.4061,3.4081,3.4028,3.3606,3.3475,3.3394,3.2935,3.2785,3.2703,3.2193,3.2026,3.1876,3.1122,3.0909,3.0834,3.0482,3.0394,3.0394,3.0394,3.0394,3.0344,3.0143,3.0105,3.0043,2.9829,2.9792,2.9792,2.9792,2.9702,2.965,2.965,2.9585,2.9546,2.9546,2.9326,2.9145,2.9,2.8816,2.8657,2.851,2.851,2.851,2.851,2.851,2.851,2.851,2.851,2.851,2.851,2.851,2.851,2.851,2.851,2.851,2.851,2.851,2.851,2.851,2.851,2.851,2.851,2.851,2.851,2.851,2.851,2.851,2.851,2.851,2.851,2.851,2.851,2.851,2.851,3.6724,3.6685,3.6607,3.6411,3.6411,3.6292,3.5855,3.6568,3.7102,3.6922,3.6936,3.6975,3.6897,3.6108,3.5909,3.6649,3.5345,3.4481,3.4397,3.3654,3.3154,3.3124,3.3124,3.3124,3.3124,3.3124,3.3124,3.3124,3.3124,3.3124,3.3124,3.3124,3.3124,3.3124,3.3124,3.3124,3.3124,3.3124,3.3124,3.3124,3.3124,3.3124,3.3124,3.3124,3.3124,3.3124,3.3124,3.3124,3.3124,3.3124,3.3124,3.3124,3.3124,3.3124,3.2867,3.1763,3.1449,3.1436,3.1399,3.1386,3.1386,3.1386,3.1386,3.126,3.0783,3.067,3.052,3.0005,2.9905,2.9905,2.9905,2.9711,2.953,2.953,2.9347,2.9241,2.9202,2.9007,2.8852,2.8852,2.8681,2.851,2.851,2.851,2.851,2.851,2.851,2.851,2.851,2.851,2.851,2.851,2.851,2.851,2.851,2.851,2.851,2.851,2.851,2.851,2.851,2.851,2.851,2.851,2.851,2.851,2.851,2.851,2.851,2.851,2.851,2.851,2.851,2.851,2.851,2.851,3.4744,3.4483,3.4191,3.415,3.4566,3.4896,3.4786,3.6016,3.6961,3.6897,3.7491,3.7644,3.6975,3.6108,3.544,3.5032,3.521,3.5047,3.4439,3.4189,3.3781,3.3111,3.3124,3.3124,3.3124,3.3124,3.3124,3.3124,3.3124,3.3124,3.3124,3.3124,3.3124,3.3124,3.3124,3.3124,3.3124,3.3124,3.3124,3.3124,3.3124,3.3124,3.3124,3.3124,3.3124,3.3124,3.3124,3.3124,3.3124,3.3124,3.3124,3.3124,3.3124,3.3124,3.2943,3.2227,3.2014,3.1926,3.1499,3.1386,3.1386,3.1386,3.1386,3.1361,3.1235,3.121,3.1173,3.1035,3.1009,3.1009,3.1009,3.0969,3.0876,3.0726,3.0658,3.0576,3.036,2.9922,2.9572,2.9452,2.9007,2.8657,2.851,2.851,2.851,2.851,2.851,2.851,2.851,2.851,2.851,2.851,2.851,2.851,2.851,2.851,2.851,2.851,2.851,2.851,2.851,2.851,2.851,2.851,2.851,2.851,2.851,2.851,2.851,2.851,2.851,2.851,2.851,2.851,2.851,2.851,3.3907,3.3725,3.3513,3.3441,3.3683,3.3894,3.3823,3.4909,3.5749,3.5749,3.6175,3.6255,3.583,3.4965,3.4275,3.3865,3.4204,3.4275,3.3823,3.3823,3.3611,3.3124,3.3124,3.3124,3.3124,3.3124,3.3124,3.3124,3.3124,3.3124,3.3124,3.3124,3.3124,3.3124,3.3124,3.3124,3.3124,3.3124,3.3124,3.3124,3.3124,3.3124,3.3124,3.3124,3.3124,3.3124,3.3124,3.3124,3.3124,3.3124,3.3124,3.3124,3.3124,3.3124,3.3061,3.2704,3.2604,3.2541,3.224,3.2164,3.2164,3.2164,3.2068,3.1964,3.1784,3.1597,3.1411,3.1285,3.1153,3.1058,3.1058,3.0989,3.0918,3.0807,3.0712,3.0587,3.0462,3.0165,2.9942,2.9847,2.9552,2.9342,2.9232,2.9015,2.8871,2.8871,2.8643,2.851,2.851,2.851,2.851,2.851,2.851,2.851,2.851,2.851,2.851,2.851,2.851,2.851,2.851,2.851,2.851,2.851,2.851,2.851,2.851,2.851,2.851,2.851,2.851,2.851,2.851,2.851,2.851,2.851,3.3641,3.3641,3.3556,3.3398,3.3356,3.3313,3.3111,3.3823,3.4397,3.4397,3.4522,3.4551,3.4397,3.3738,3.324,3.3124,3.3124,3.3124,3.3124,3.3124,3.3124,3.3124,3.3124,3.3124,3.3124,3.3124,3.3124,3.3124,3.3124,3.3124,3.3124,3.3124,3.3124,3.3124,3.3124,3.3124,3.3124,3.3124,3.3124,3.3124,3.3124,3.3124,3.3124,3.3124,3.3124,3.3124,3.3124,3.3124,3.3124,3.3124,3.3124,3.3124,3.3124,3.3124,3.3124,3.3124,3.3124,3.3124,3.3124,3.3124,3.3124,3.3124,3.2939,3.2685,3.2411,3.2015,3.1637,3.1377,3.1124,3.0957,3.0957,3.0844,3.0688,3.0646,3.0507,3.0368,3.0368,3.0254,3.0206,3.0206,3.0134,3.0086,3.0086,2.9689,2.9412,2.9412,2.8931,2.8631,2.8631,2.8546,2.851,2.851,2.851,2.851,2.851,2.851,2.851,2.851,2.851,2.851,2.851,2.851,2.851,2.851,2.851,2.851,2.851,2.851,2.851,2.851,2.851,2.851,2.851,2.851,2.851,2.851,3.3441,3.3313,3.3197,3.3154,3.3154,3.3154,3.3124,3.3823,3.4397,3.4397,3.5006,3.5156,3.4468,3.4272,3.3907,3.3154,3.3124,3.3124,3.3124,3.3124,3.3124,3.3124,3.3124,3.3124,3.3124,3.3124,3.3124,3.3124,3.3124,3.3124,3.3124,3.3124,3.3124,3.3124,3.3124,3.3124,3.3124,3.3124,3.3124,3.3124,3.3124,3.3124,3.3124,3.3124,3.3124,3.3124,3.3124,3.3124,3.3124,3.3124,3.3124,3.3124,3.3124,3.3124,3.3124,3.3124,3.3124,3.3124,3.3124,3.3124,3.3124,3.3124,3.3068,3.3,3.2968,3.2716,3.2519,3.2487,3.2302,3.2142,3.2142,3.2099,3.2012,3.1782,3.1751,3.1651,3.1464,3.1079,3.079,3.079,3.0405,3.0086,3.0086,3.0013,2.9965,2.9965,2.9472,2.9172,2.9172,2.8751,2.851,2.851,2.851,2.851,2.851,2.851,2.851,2.851,2.851,2.851,2.851,2.851,2.851,2.851,2.851,2.851,2.851,2.851,2.851,2.851,2.851,2.851,2.851,2.851,2.851,2.851,3.324,3.3154,3.3124,3.3124,3.3124,3.3124,3.3124,3.3441,3.3696,3.3696,3.4008,3.4121,3.3738,3.3696,3.3539,3.3124,3.3124,3.3124,3.3124,3.3124,3.3124,3.3124,3.3124,3.3124,3.3124,3.3124,3.3124,3.3124,3.3124,3.3124,3.3124,3.3124,3.3124,3.3124,3.3124,3.3124,3.3124,3.3124,3.3124,3.3124,3.3124,3.3124,3.3124,3.3124,3.3124,3.3124,3.3124,3.3124,3.3124,3.3124,3.3124,3.3124,3.3124,3.3124,3.3124,3.3124,3.3124,3.3124,3.3124,3.3124,3.3124,3.3124,3.2982,3.2896,3.2896,3.2593,3.2332,3.2332,3.2157,3.2025,3.2025,3.2025,3.1981,3.1849,3.1849,3.1805,3.1705,3.15,3.1344,3.1344,3.1127,3.0983,3.0983,3.0718,3.0506,3.0506,3.0025,2.9725,2.9725,2.9496,2.9364,2.9364,2.9088,2.9076,2.9352,2.9364,2.9364,2.9364,2.9364,2.9364,2.9364,2.9364,2.9364,2.9352,2.9063,2.8931,2.8919,2.8631,2.851,2.851,2.851,2.851,2.851,2.851,2.851,2.851,3.3124,3.3124,3.3124,3.3124,3.3124,3.3124,3.3124,3.3124,3.3124,3.3124,3.3124,3.3124,3.3124,3.3124,3.3124,3.3124,3.3124,3.3124,3.3124,3.3124,3.3124,3.3124,3.3124,3.3124,3.3124,3.3124,3.3124,3.3124,3.3124,3.3124,3.3124,3.3124,3.3124,3.3124,3.3124,3.3124,3.3124,3.3124,3.3124,3.3124,3.3124,3.3124,3.3124,3.3124,3.3124,3.3124,3.3124,3.3124,3.3124,3.3124,3.3124,3.3124,3.3124,3.3124,3.3124,3.3124,3.3124,3.3124,3.3124,3.3124,3.3124,3.3124,3.2896,3.2711,3.2711,3.2332,3.1994,3.1994,3.1849,3.1705,3.1705,3.1705,3.1705,3.1705,3.1705,3.1705,3.1705,3.1705,3.1705,3.1705,3.1705,3.1705,3.1705,3.1344,3.1103,3.1103,3.0567,3.0266,3.0266,3.0158,3.0146,3.0266,2.9761,2.9677,3.0086,3.0086,3.0086,3.0086,3.0086,3.0086,3.0086,3.0086,3.0086,3.0062,2.9653,2.9484,2.9448,2.9039,2.8871,2.8871,2.8871,2.8871,2.8871,2.8871,2.8871,2.8871,3.3124,3.3124,3.3124,3.3124,3.3124,3.3124,3.3124,3.3124,3.3124,3.3124,3.3124,3.3124,3.3124,3.3124,3.3124,3.3124,3.3124,3.3124,3.3124,3.3124,3.3124,3.3124,3.3124,3.3124,3.3124,3.3124,3.3124,3.3124,3.3124,3.3124,3.3124,3.3124,3.3124,3.3124,3.3124,3.3124,3.3124,3.3124,3.3124,3.3124,3.3124,3.3124,3.3124,3.3124,3.3124,3.3124,3.3124,3.3124,3.3124,3.3124,3.3124,3.3124,3.3124,3.3124,3.3124,3.3124,3.3124,3.3124,3.3124,3.3124,3.3124,3.3124,3.2896,3.2711,3.2711,3.2332,3.1994,3.1994,3.1849,3.1705,3.1705,3.1705,3.1705,3.1705,3.1705,3.1705,3.1705,3.1705,3.1705,3.1705,3.1705,3.1705,3.1705,3.1669,3.1657,3.1657,3.1163,3.0819,3.0819,3.035,3.0314,3.085,3.0302,3.005,3.0086,3.0086,3.0086,3.0086,3.0086,3.0086,3.0086,3.0086,3.0086,3.0086,3.005,3.0025,3.0025,2.9989,2.9965,2.9965,2.9965,2.9965,2.9965,2.9965,2.9965,2.9965,3.3124,3.3124,3.3124,3.3124,3.3124,3.3124,3.3124,3.3124,3.3124,3.3124,3.3124,3.3124,3.3124,3.3124,3.3124,3.3124,3.3124,3.3124,3.3124,3.3124,3.3124,3.3124,3.3124,3.3124,3.3124,3.3124,3.3124,3.3124,3.3124,3.3124,3.3124,3.3124,3.3124,3.3124,3.3124,3.3124,3.3124,3.3124,3.3124,3.3124,3.3124,3.3124,3.3124,3.3124,3.3124,3.3124,3.3124,3.3124,3.3124,3.3124,3.2982,3.2853,3.2853,3.2766,3.2649,3.2649,3.2649,3.2649,3.2649,3.2865,3.3124,3.3124,3.2896,3.268,3.2562,3.2257,3.1937,3.1849,3.1749,3.1705,3.1705,3.1705,3.1705,3.1705,3.1705,3.1705,3.1705,3.1705,3.1705,3.1705,3.1705,3.1705,3.1705,3.1705,3.1705,3.1705,3.1524,3.1404,3.1404,3.1211,3.1199,3.1404,3.1211,3.1103,3.1103,3.1103,3.1103,3.1103,3.1103,3.1103,3.1103,3.1103,3.1103,3.1091,3.0766,3.0621,3.0555,3.0218,3.0086,3.0086,3.0086,3.0086,3.0086,3.0086,3.0086,3.0086,3.3124,3.3124,3.3124,3.3124,3.3124,3.3124,3.3124,3.3124,3.3124,3.3124,3.3124,3.3124,3.3124,3.3124,3.3124,3.3124,3.3124,3.3124,3.3124,3.3124,3.3124,3.3124,3.3124,3.3124,3.3124,3.3124,3.3124,3.3124,3.3124,3.3124,3.3124,3.3124,3.3124,3.3124,3.3124,3.3124,3.3124,3.3124,3.3124,3.3124,3.3124,3.3124,3.3124,3.3124,3.3124,3.3124,3.3124,3.3124,3.3124,3.3124,3.2939,3.2711,3.281,3.268,3.2475,3.2431,3.24,3.24,3.24,3.2649,3.2865,3.2865,3.268,3.2463,3.23,3.2069,3.1849,3.1705,3.1705,3.1705,3.1705,3.1705,3.1705,3.1705,3.1705,3.1705,3.1705,3.1705,3.1705,3.1705,3.1705,3.1705,3.1705,3.1705,3.1705,3.1705,3.1705,3.1705,3.1705,3.1705,3.1705,3.1705,3.1705,3.1705,3.1705,3.1705,3.1705,3.1705,3.1705,3.1705,3.1705,3.1705,3.1705,3.1681,3.132,3.1163,3.1139,3.0735,3.0579,3.0579,3.0579,3.0579,3.0579,3.0579,3.0579,3.0579,3.3124,3.3124,3.3124,3.3124,3.3124,3.3124,3.3124,3.3124,3.3124,3.3124,3.3124,3.3124,3.3124,3.3124,3.3124,3.3124,3.3124,3.3124,3.3093,3.3093,3.3093,3.3093,3.3124,3.3124,3.3093,3.3093,3.3093,3.3093,3.3093,3.3093,3.3093,3.3093,3.3093,3.3093,3.3093,3.3124,3.3124,3.3124,3.3124,3.3124,3.3124,3.3124,3.3124,3.3124,3.3124,3.3124,3.3124,3.3124,3.3124,3.3124,3.2896,3.2766,3.3025,3.2896,3.2636,3.2431,3.2388,3.2388,3.2388,3.2388,3.24,3.24,3.2213,3.1994,3.1994,3.1849,3.1705,3.1705,3.1705,3.1705,3.1705,3.1705,3.1705,3.1705,3.1705,3.1705,3.1705,3.1705,3.1705,3.1705,3.1705,3.1705,3.1705,3.1705,3.1705,3.1705,3.1705,3.1705,3.1705,3.1705,3.1705,3.1705,3.1705,3.1705,3.1705,3.1705,3.1705,3.1705,3.1705,3.1705,3.1705,3.1705,3.1705,3.1705,3.1705,3.1705,3.1705,3.1705,3.1705,3.1705,3.1705,3.1705,3.1705,3.1705,3.1705,3.1705,3.3124,3.3124,3.3124,3.3124,3.3124,3.3124,3.3124,3.3124,3.3124,3.3124,3.3124,3.3124,3.3124,3.3124,3.3124,3.3124,3.3432,3.3822,3.4211,3.4223,3.4223,3.4223,3.3859,3.3834,3.4223,3.4223,3.4223,3.4223,3.4223,3.4223,3.4223,3.4223,3.4223,3.4223,3.4223,3.401,3.3658,3.3658,3.3432,3.3124,3.3124,3.3124,3.3124,3.3124,3.3124,3.3124,3.3124,3.3124,3.3068,3.2896,3.268,3.2431,3.2201,3.2057,3.1969,3.1937,3.1893,3.1893,3.1893,3.1893,3.1981,3.23,3.2213,3.1994,3.1994,3.1849,3.1705,3.1705,3.1705,3.1705,3.1705,3.1705,3.1705,3.1705,3.1705,3.1705,3.1705,3.1705,3.1705,3.1705,3.1705,3.1705,3.1705,3.1705,3.1705,3.1705,3.1705,3.1705,3.1705,3.1705,3.1705,3.1705,3.1705,3.1705,3.1705,3.1705,3.1705,3.1705,3.1705,3.1705,3.1705,3.1705,3.1705,3.1705,3.1705,3.1705,3.1705,3.1705,3.1705,3.1705,3.1705,3.1705,3.1705,3.1705,3.1705,3.1705,3.3124,3.3124,3.3124,3.3124,3.3124,3.3124,3.3124,3.3124,3.3156,3.337,3.3407,3.3483,3.3709,3.3721,3.3721,3.3721,3.4035,3.4361,3.47,3.468,3.4768,3.4994,3.4726,3.4613,3.468,3.468,3.468,3.468,3.468,3.468,3.468,3.468,3.468,3.468,3.468,3.4537,3.4223,3.4223,3.3909,3.3407,3.3407,3.3269,3.3124,3.3124,3.3025,3.2939,3.2939,3.2896,3.2779,3.2649,3.2519,3.23,3.1849,3.1749,3.1805,3.1705,3.1705,3.1705,3.1705,3.1705,3.1749,3.2025,3.1981,3.1893,3.1893,3.1805,3.1705,3.1705,3.1705,3.1705,3.1705,3.1705,3.1705,3.1705,3.1705,3.1705,3.1705,3.1705,3.1705,3.1705,3.1705,3.1705,3.1705,3.1705,3.1705,3.1705,3.1705,3.1705,3.1705,3.1705,3.1705,3.1705,3.1705,3.1705,3.1705,3.1705,3.1705,3.1705,3.1705,3.1705,3.1705,3.1705,3.1705,3.1705,3.1705,3.1705,3.1705,3.1705,3.1705,3.1705,3.1705,3.1705,3.1705,3.1705,3.1705,3.1705,3.3124,3.3124,3.3136,3.3144,3.3156,3.3212,3.3262,3.3219,3.3407,3.3909,3.3972,3.4161,3.4663,3.468,3.468,3.468,3.4718,3.4768,3.4864,3.4864,3.509,3.5545,3.5571,3.5332,3.4876,3.4864,3.4864,3.4864,3.4864,3.4864,3.4864,3.4864,3.4864,3.4864,3.4864,3.4839,3.4756,3.4756,3.443,3.3928,3.3928,3.3602,3.3101,3.3101,3.2946,3.268,3.268,3.255,3.24,3.2344,3.2344,3.2257,3.1837,3.1849,3.1937,3.1749,3.1705,3.1717,3.1765,3.1789,3.1789,3.1837,3.1849,3.1825,3.1729,3.1705,3.1705,3.1705,3.1705,3.1705,3.1705,3.1705,3.1705,3.1705,3.1705,3.1705,3.1705,3.1705,3.1705,3.1705,3.1705,3.1705,3.1705,3.1705,3.1705,3.1705,3.1705,3.1705,3.1705,3.1705,3.1705,3.1705,3.1705,3.1705,3.1705,3.1705,3.1705,3.1705,3.1705,3.1705,3.1705,3.1705,3.1705,3.1705,3.1705,3.1705,3.1705,3.1705,3.1705,3.1705,3.1705,3.1705,3.1705,3.1705,3.1705,3.1705,3.3124,3.3124,3.3219,3.3646,3.3721,3.3872,3.4299,3.4361,3.4412,3.4525,3.455,3.4587,3.4713,3.468,3.468,3.468,3.5069,3.5554,3.5981,3.6053,3.6103,3.6182,3.6182,3.6132,3.6053,3.6053,3.6053,3.6053,3.6053,3.6053,3.6053,3.6053,3.6053,3.6053,3.6053,3.5768,3.532,3.532,3.4915,3.4222,3.4222,3.3809,3.3205,3.3205,3.2889,3.2475,3.2475,3.2431,3.2344,3.2169,3.1981,3.1837,3.1705,3.1705,3.1761,3.1705,3.1705,3.1801,3.2202,3.2322,3.2418,3.2827,3.2935,3.2719,3.1898,3.1705,3.1705,3.1705,3.1705,3.1705,3.1705,3.1705,3.1705,3.1705,3.1705,3.1705,3.1705,3.1705,3.1705,3.1705,3.1705,3.1705,3.1705,3.1705,3.1705,3.1705,3.1705,3.1705,3.1705,3.1705,3.1705,3.1705,3.1705,3.1705,3.1705,3.1705,3.1705,3.1705,3.1705,3.1705,3.1705,3.1705,3.1705,3.1705,3.1705,3.1705,3.1705,3.1705,3.1705,3.1705,3.1705,3.1705,3.1705,3.1705,3.1705,3.1705,3.3124,3.3294,3.3558,3.3847,3.411,3.4399,3.4675,3.468,3.4768,3.5044,3.5069,3.5169,3.5479,3.5504,3.5504,3.5504,3.5768,3.6056,3.6392,3.6405,3.6405,3.6405,3.6405,3.6405,3.6405,3.6405,3.6405,3.6405,3.6405,3.6405,3.6405,3.6405,3.6405,3.6405,3.6405,3.6194,3.5931,3.5931,3.5524,3.4873,3.4748,3.4334,3.3703,3.3625,3.3318,3.2983,3.2983,3.2893,3.2816,3.2681,3.2533,3.2488,3.2488,3.2488,3.2488,3.2488,3.2488,3.2503,3.2803,3.2875,3.2947,3.3224,3.3284,3.314,3.2575,3.2488,3.2488,3.2488,3.2488,3.2488,3.2488,3.2488,3.2488,3.2488,3.2488,3.2488,3.2488,3.2488,3.2488,3.2488,3.2488,3.2488,3.2488,3.2488,3.2488,3.2488,3.2488,3.2488,3.2488,3.2488,3.2488,3.2488,3.2488,3.2322,3.207,3.2058,3.1925,3.1705,3.1705,3.1705,3.1705,3.1705,3.1705,3.1705,3.1705,3.1705,3.1705,3.1705,3.1705,3.1705,3.1705,3.1705,3.1705,3.1705,3.1705,3.1705,3.3206,3.3583,3.396,3.4148,3.4562,3.4856,3.4989,3.5002,3.5165,3.5583,3.5633,3.5855,3.6367,3.6405,3.6405,3.6405,3.6405,3.6405,3.6405,3.6405,3.6405,3.6405,3.6405,3.6405,3.6405,3.6405,3.6405,3.6405,3.6405,3.6405,3.6405,3.6405,3.6405,3.6405,3.6405,3.6405,3.6405,3.6405,3.6107,3.5553,3.5425,3.495,3.435,3.4133,3.3842,3.3584,3.3538,3.3458,3.3284,3.3284,3.3284,3.3284,3.3284,3.3284,3.3284,3.3284,3.3284,3.3308,3.3392,3.3416,3.344,3.3525,3.3549,3.3549,3.3549,3.3416,3.3284,3.3284,3.3284,3.3284,3.3284,3.3284,3.3284,3.3284,3.3284,3.3284,3.3284,3.3284,3.3284,3.3284,3.3284,3.3284,3.3284,3.3284,3.3284,3.3284,3.3284,3.3284,3.3284,3.3284,3.3284,3.3284,3.3284,3.308,3.2647,3.2635,3.2394,3.1982,3.1982,3.1886,3.1705,3.1705,3.1705,3.1705,3.1705,3.1705,3.1705,3.1705,3.1705,3.1705,3.1705,3.1705,3.1705,3.1705,3.1705,3.1705,3.3696,3.3847,3.4198,3.5107,3.5332,3.5545,3.6116,3.6179,3.6216,3.6292,3.6304,3.6329,3.6405,3.6405,3.6405,3.6405,3.6405,3.6405,3.6405,3.6405,3.6405,3.6405,3.6405,3.6405,3.6405,3.6405,3.6405,3.6405,3.6405,3.6405,3.6405,3.6405,3.6405,3.6405,3.6405,3.6405,3.6405,3.6405,3.6238,3.5951,3.5904,3.5427,3.4699,3.4464,3.4032,3.3584,3.3423,3.3331,3.3284,3.3284,3.3284,3.3284,3.3284,3.3284,3.3284,3.3284,3.3284,3.3392,3.3825,3.3886,3.3994,3.4499,3.4619,3.4619,3.4619,3.3921,3.3284,3.3284,3.3284,3.3284,3.3284,3.3284,3.3284,3.3284,3.3284,3.3284,3.3284,3.3284,3.3284,3.3284,3.3284,3.3284,3.3284,3.3284,3.3284,3.3284,3.3284,3.3284,3.3284,3.3284,3.3284,3.3284,3.3284,3.326,3.3188,3.3176,3.314,3.3068,3.3068,3.2575,3.1705,3.1705,3.1705,3.1705,3.1705,3.1705,3.1705,3.1705,3.1705,3.1705,3.1705,3.1705,3.1705,3.1705,3.1705,3.1705,3.4311,3.4613,3.4919,3.542,3.5805,3.6081,3.6367,3.6405,3.6405,3.6405,3.6405,3.6405,3.6405,3.6405,3.6405,3.6405,3.6405,3.6405,3.6405,3.6405,3.6405,3.6405,3.6405,3.6405,3.6405,3.6405,3.6405,3.6405,3.6405,3.6405,3.6405,3.6405,3.6323,3.6193,3.6193,3.6086,3.5943,3.5943,3.5895,3.5764,3.562,3.5329,3.4966,3.4727,3.4486,3.4281,3.415,3.415,3.415,3.415,3.415,3.415,3.415,3.415,3.415,3.415,3.415,3.4198,3.4366,3.4438,3.4486,3.4727,3.4775,3.4775,3.4775,3.4475,3.415,3.415,3.415,3.415,3.415,3.415,3.415,3.415,3.415,3.415,3.415,3.415,3.415,3.415,3.415,3.415,3.415,3.415,3.415,3.415,3.415,3.415,3.415,3.415,3.415,3.415,3.415,3.4006,3.3705,3.3705,3.3573,3.3284,3.3284,3.3032,3.2563,3.2262,3.213,3.2118,3.1849,3.1705,3.1705,3.1705,3.1705,3.1705,3.1705,3.1705,3.1705,3.1705,3.1705,3.1705]}]]